<?xml version="1.0" encoding="UTF-8" standalone="no" ?>
<gpx xmlns="http://www.topografix.com/GPX/1/1" xmlns:xsi="http://www.w3.org/2001/XMLSchema-instance" xsi:schemaLocation="http://www.topografix.com/GPX/1/1 http://www.topografix.com/GPX/1/1/gpx.xsd" version="1.1" creator="VisuGPX - https://www.visugpx.com">
  <metadata>
    <name>Besac pôle espoirs 90km</name>
  </metadata>
  <wpt lat="47.17851" lon="5.99412">
    <ele>372.8</ele>
    <name><![CDATA[Danger]]></name>
  </wpt>
  <wpt lat="47.16752" lon="5.99808">
    <ele>398.9</ele>
    <name><![CDATA[Danger]]></name>
  </wpt>
  <wpt lat="47.12086" lon="6.07465">
    <ele>526.1</ele>
    <name><![CDATA[Danger]]></name>
  </wpt>
  <wpt lat="47.13288" lon="6.05459">
    <ele>458.7</ele>
    <name><![CDATA[Meilleur Grimpeur]]></name>
  </wpt>
  <wpt lat="47.09756" lon="6.06108">
    <ele>388.9</ele>
    <name><![CDATA[Danger]]></name>
  </wpt>
  <wpt lat="47.06044" lon="6.00061">
    <ele>413.6</ele>
    <name><![CDATA[Panneau randonneur]]></name>
  </wpt>
  <wpt lat="47.08448" lon="5.98412">
    <ele>309</ele>
    <name><![CDATA[Danger]]></name>
  </wpt>
  <wpt lat="47.13867" lon="5.95693">
    <ele>285.7</ele>
    <name><![CDATA[Danger]]></name>
  </wpt>
  <wpt lat="47.16044" lon="5.95218">
    <ele>367.8</ele>
    <name><![CDATA[Danger]]></name>
  </wpt>
  <wpt lat="47.1662" lon="5.95483">
    <ele>369.5</ele>
    <name><![CDATA[Danger]]></name>
  </wpt>
  <wpt lat="47.20487" lon="5.99505">
    <ele>237</ele>
    <name><![CDATA[Danger]]></name>
  </wpt>
  <wpt lat="47.22791" lon="6.03031">
    <ele>239</ele>
    <name><![CDATA[Danger]]></name>
  </wpt>
  <wpt lat="47.22982" lon="6.01875">
    <ele>244.8</ele>
    <name><![CDATA[Danger]]></name>
  </wpt>
  <wpt lat="47.20619" lon="6.00469">
    <ele>255.5</ele>
    <name><![CDATA[Meilleur Grimpeur]]></name>
  </wpt>
  <wpt lat="47.08855" lon="6.05402">
    <ele>335.7</ele>
    <name><![CDATA[Meilleur Grimpeur]]></name>
  </wpt>
  <wpt lat="47.05043" lon="5.99087">
    <ele>404.1</ele>
    <name><![CDATA[Meilleur Grimpeur]]></name>
  </wpt>
  <trk>
    <name><![CDATA[BPJEPS_18mars-23583218]]></name>
    <extensions>
      <line xmlns="http://www.topografix.com/GPX/gpx_style/0/2">
        <color>0000FF</color>
        <width>4</width>
      </line>
    </extensions>
    <trkseg>
      <trkpt lat="47.25057" lon="5.99896">
        <ele>295</ele>
        <time>2026-03-18T09:35:42Z</time>
      </trkpt>
      <trkpt lat="47.25056" lon="5.99897">
        <ele>295</ele>
        <time>2026-03-18T09:35:42Z</time>
      </trkpt>
      <trkpt lat="47.25065" lon="5.99912">
        <ele>296</ele>
        <time>2026-03-18T09:35:45Z</time>
      </trkpt>
      <trkpt lat="47.25075" lon="5.99927">
        <ele>295</ele>
        <time>2026-03-18T09:35:47Z</time>
      </trkpt>
      <trkpt lat="47.25085" lon="5.99942">
        <ele>295</ele>
        <time>2026-03-18T09:35:50Z</time>
      </trkpt>
      <trkpt lat="47.25104" lon="5.99972">
        <ele>297</ele>
        <time>2026-03-18T09:35:55Z</time>
      </trkpt>
      <trkpt lat="47.25114" lon="5.99988">
        <ele>297</ele>
        <time>2026-03-18T09:35:57Z</time>
      </trkpt>
      <trkpt lat="47.2512" lon="5.99996">
        <ele>297</ele>
        <time>2026-03-18T09:35:59Z</time>
      </trkpt>
      <trkpt lat="47.25111" lon="6.00009">
        <ele>298</ele>
        <time>2026-03-18T09:36:01Z</time>
      </trkpt>
      <trkpt lat="47.25101" lon="6.0002">
        <ele>299</ele>
        <time>2026-03-18T09:36:03Z</time>
      </trkpt>
      <trkpt lat="47.25095" lon="6.00025">
        <ele>300</ele>
        <time>2026-03-18T09:36:04Z</time>
      </trkpt>
      <trkpt lat="47.25081" lon="6.00037">
        <ele>301</ele>
        <time>2026-03-18T09:36:07Z</time>
      </trkpt>
      <trkpt lat="47.25077" lon="6.00042">
        <ele>302</ele>
        <time>2026-03-18T09:36:08Z</time>
      </trkpt>
      <trkpt lat="47.25063" lon="6.00062">
        <ele>303</ele>
        <time>2026-03-18T09:36:12Z</time>
      </trkpt>
      <trkpt lat="47.25045" lon="6.00084">
        <ele>305</ele>
        <time>2026-03-18T09:36:16Z</time>
      </trkpt>
      <trkpt lat="47.25029" lon="6.00101">
        <ele>306</ele>
        <time>2026-03-18T09:36:19Z</time>
      </trkpt>
      <trkpt lat="47.25014" lon="6.00119">
        <ele>307</ele>
        <time>2026-03-18T09:36:23Z</time>
      </trkpt>
      <trkpt lat="47.24945" lon="6.0024">
        <ele>309</ele>
        <time>2026-03-18T09:36:42Z</time>
      </trkpt>
      <trkpt lat="47.24938" lon="6.00245">
        <ele>309</ele>
        <time>2026-03-18T09:36:43Z</time>
      </trkpt>
      <trkpt lat="47.24934" lon="6.00254">
        <ele>309</ele>
        <time>2026-03-18T09:36:45Z</time>
      </trkpt>
      <trkpt lat="47.24929" lon="6.00268">
        <ele>309</ele>
        <time>2026-03-18T09:36:47Z</time>
      </trkpt>
      <trkpt lat="47.24925" lon="6.00279">
        <ele>309</ele>
        <time>2026-03-18T09:36:48Z</time>
      </trkpt>
      <trkpt lat="47.24882" lon="6.00364">
        <ele>304</ele>
        <time>2026-03-18T09:37:01Z</time>
      </trkpt>
      <trkpt lat="47.24869" lon="6.00393">
        <ele>303</ele>
        <time>2026-03-18T09:37:05Z</time>
      </trkpt>
      <trkpt lat="47.24843" lon="6.00444">
        <ele>301</ele>
        <time>2026-03-18T09:37:13Z</time>
      </trkpt>
      <trkpt lat="47.24841" lon="6.00448">
        <ele>301</ele>
        <time>2026-03-18T09:37:13Z</time>
      </trkpt>
      <trkpt lat="47.24836" lon="6.00459">
        <ele>301</ele>
        <time>2026-03-18T09:37:15Z</time>
      </trkpt>
      <trkpt lat="47.24821" lon="6.00492">
        <ele>299</ele>
        <time>2026-03-18T09:37:20Z</time>
      </trkpt>
      <trkpt lat="47.24804" lon="6.00528">
        <ele>298</ele>
        <time>2026-03-18T09:37:25Z</time>
      </trkpt>
      <trkpt lat="47.2479" lon="6.0056">
        <ele>297</ele>
        <time>2026-03-18T09:37:30Z</time>
      </trkpt>
      <trkpt lat="47.24775" lon="6.00592">
        <ele>295</ele>
        <time>2026-03-18T09:37:34Z</time>
      </trkpt>
      <trkpt lat="47.24764" lon="6.00618">
        <ele>294</ele>
        <time>2026-03-18T09:37:38Z</time>
      </trkpt>
      <trkpt lat="47.24733" lon="6.00683">
        <ele>291</ele>
        <time>2026-03-18T09:37:48Z</time>
      </trkpt>
      <trkpt lat="47.24724" lon="6.00702">
        <ele>291</ele>
        <time>2026-03-18T09:37:50Z</time>
      </trkpt>
      <trkpt lat="47.24712" lon="6.00733">
        <ele>291</ele>
        <time>2026-03-18T09:37:55Z</time>
      </trkpt>
      <trkpt lat="47.24674" lon="6.00806">
        <ele>290</ele>
        <time>2026-03-18T09:38:06Z</time>
      </trkpt>
      <trkpt lat="47.24653" lon="6.00839">
        <ele>290</ele>
        <time>2026-03-18T09:38:11Z</time>
      </trkpt>
      <trkpt lat="47.24647" lon="6.00848">
        <ele>290</ele>
        <time>2026-03-18T09:38:13Z</time>
      </trkpt>
      <trkpt lat="47.24645" lon="6.00851">
        <ele>290</ele>
        <time>2026-03-18T09:38:13Z</time>
      </trkpt>
      <trkpt lat="47.24609" lon="6.00905">
        <ele>290</ele>
        <time>2026-03-18T09:38:22Z</time>
      </trkpt>
      <trkpt lat="47.24604" lon="6.00913">
        <ele>290</ele>
        <time>2026-03-18T09:38:24Z</time>
      </trkpt>
      <trkpt lat="47.24574" lon="6.00958">
        <ele>288</ele>
        <time>2026-03-18T09:38:31Z</time>
      </trkpt>
      <trkpt lat="47.24568" lon="6.00966">
        <ele>288</ele>
        <time>2026-03-18T09:38:33Z</time>
      </trkpt>
      <trkpt lat="47.24549" lon="6.00995">
        <ele>286</ele>
        <time>2026-03-18T09:38:38Z</time>
      </trkpt>
      <trkpt lat="47.24538" lon="6.01012">
        <ele>285</ele>
        <time>2026-03-18T09:38:41Z</time>
      </trkpt>
      <trkpt lat="47.24531" lon="6.01024">
        <ele>284</ele>
        <time>2026-03-18T09:38:42Z</time>
      </trkpt>
      <trkpt lat="47.24519" lon="6.01042">
        <ele>283</ele>
        <time>2026-03-18T09:38:45Z</time>
      </trkpt>
      <trkpt lat="47.24514" lon="6.0105">
        <ele>283</ele>
        <time>2026-03-18T09:38:47Z</time>
      </trkpt>
      <trkpt lat="47.24451" lon="6.01147">
        <ele>283</ele>
        <time>2026-03-18T09:39:03Z</time>
      </trkpt>
      <trkpt lat="47.2445" lon="6.01149">
        <ele>283</ele>
        <time>2026-03-18T09:39:03Z</time>
      </trkpt>
      <trkpt lat="47.24443" lon="6.01159">
        <ele>283</ele>
        <time>2026-03-18T09:39:05Z</time>
      </trkpt>
      <trkpt lat="47.24438" lon="6.01168">
        <ele>283</ele>
        <time>2026-03-18T09:39:06Z</time>
      </trkpt>
      <trkpt lat="47.24423" lon="6.01183">
        <ele>283</ele>
        <time>2026-03-18T09:39:10Z</time>
      </trkpt>
      <trkpt lat="47.2442" lon="6.01187">
        <ele>283</ele>
        <time>2026-03-18T09:39:10Z</time>
      </trkpt>
      <trkpt lat="47.24409" lon="6.01205">
        <ele>283</ele>
        <time>2026-03-18T09:39:13Z</time>
      </trkpt>
      <trkpt lat="47.24401" lon="6.0124">
        <ele>284</ele>
        <time>2026-03-18T09:39:18Z</time>
      </trkpt>
      <trkpt lat="47.24386" lon="6.01299">
        <ele>285</ele>
        <time>2026-03-18T09:39:25Z</time>
      </trkpt>
      <trkpt lat="47.24385" lon="6.01308">
        <ele>285</ele>
        <time>2026-03-18T09:39:27Z</time>
      </trkpt>
      <trkpt lat="47.24387" lon="6.01319">
        <ele>285</ele>
        <time>2026-03-18T09:39:28Z</time>
      </trkpt>
      <trkpt lat="47.24377" lon="6.01327">
        <ele>285</ele>
        <time>2026-03-18T09:39:30Z</time>
      </trkpt>
      <trkpt lat="47.24375" lon="6.01331">
        <ele>285</ele>
        <time>2026-03-18T09:39:31Z</time>
      </trkpt>
      <trkpt lat="47.24345" lon="6.01369">
        <ele>283</ele>
        <time>2026-03-18T09:39:38Z</time>
      </trkpt>
      <trkpt lat="47.24299" lon="6.01426">
        <ele>283</ele>
        <time>2026-03-18T09:39:48Z</time>
      </trkpt>
      <trkpt lat="47.24268" lon="6.01451">
        <ele>282</ele>
        <time>2026-03-18T09:39:55Z</time>
      </trkpt>
      <trkpt lat="47.24239" lon="6.01477">
        <ele>281</ele>
        <time>2026-03-18T09:40:01Z</time>
      </trkpt>
      <trkpt lat="47.24232" lon="6.01484">
        <ele>280</ele>
        <time>2026-03-18T09:40:02Z</time>
      </trkpt>
      <trkpt lat="47.24227" lon="6.01473">
        <ele>280</ele>
        <time>2026-03-18T09:40:04Z</time>
      </trkpt>
      <trkpt lat="47.24226" lon="6.01469">
        <ele>280</ele>
        <time>2026-03-18T09:40:04Z</time>
      </trkpt>
      <trkpt lat="47.24222" lon="6.01459">
        <ele>281</ele>
        <time>2026-03-18T09:40:06Z</time>
      </trkpt>
      <trkpt lat="47.24214" lon="6.01451">
        <ele>281</ele>
        <time>2026-03-18T09:40:07Z</time>
      </trkpt>
      <trkpt lat="47.24209" lon="6.0145">
        <ele>281</ele>
        <time>2026-03-18T09:40:08Z</time>
      </trkpt>
      <trkpt lat="47.242" lon="6.01449">
        <ele>281</ele>
        <time>2026-03-18T09:40:10Z</time>
      </trkpt>
      <trkpt lat="47.24191" lon="6.01449">
        <ele>280</ele>
        <time>2026-03-18T09:40:11Z</time>
      </trkpt>
      <trkpt lat="47.24182" lon="6.01449">
        <ele>280</ele>
        <time>2026-03-18T09:40:13Z</time>
      </trkpt>
      <trkpt lat="47.24152" lon="6.01434">
        <ele>280</ele>
        <time>2026-03-18T09:40:19Z</time>
      </trkpt>
      <trkpt lat="47.24149" lon="6.01433">
        <ele>280</ele>
        <time>2026-03-18T09:40:19Z</time>
      </trkpt>
      <trkpt lat="47.24132" lon="6.01425">
        <ele>279</ele>
        <time>2026-03-18T09:40:22Z</time>
      </trkpt>
      <trkpt lat="47.24101" lon="6.0141">
        <ele>278</ele>
        <time>2026-03-18T09:40:28Z</time>
      </trkpt>
      <trkpt lat="47.24094" lon="6.01406">
        <ele>278</ele>
        <time>2026-03-18T09:40:30Z</time>
      </trkpt>
      <trkpt lat="47.24071" lon="6.01392">
        <ele>277</ele>
        <time>2026-03-18T09:40:34Z</time>
      </trkpt>
      <trkpt lat="47.24048" lon="6.01373">
        <ele>276</ele>
        <time>2026-03-18T09:40:39Z</time>
      </trkpt>
      <trkpt lat="47.2404" lon="6.01369">
        <ele>276</ele>
        <time>2026-03-18T09:40:40Z</time>
      </trkpt>
      <trkpt lat="47.24034" lon="6.01366">
        <ele>275</ele>
        <time>2026-03-18T09:40:41Z</time>
      </trkpt>
      <trkpt lat="47.24031" lon="6.01365">
        <ele>275</ele>
        <time>2026-03-18T09:40:42Z</time>
      </trkpt>
      <trkpt lat="47.2403" lon="6.01352">
        <ele>276</ele>
        <time>2026-03-18T09:40:43Z</time>
      </trkpt>
      <trkpt lat="47.24027" lon="6.01343">
        <ele>276</ele>
        <time>2026-03-18T09:40:45Z</time>
      </trkpt>
      <trkpt lat="47.24009" lon="6.01317">
        <ele>276</ele>
        <time>2026-03-18T09:40:49Z</time>
      </trkpt>
      <trkpt lat="47.24001" lon="6.01308">
        <ele>276</ele>
        <time>2026-03-18T09:40:51Z</time>
      </trkpt>
      <trkpt lat="47.23995" lon="6.01299">
        <ele>276</ele>
        <time>2026-03-18T09:40:52Z</time>
      </trkpt>
      <trkpt lat="47.23973" lon="6.01271">
        <ele>277</ele>
        <time>2026-03-18T09:40:58Z</time>
      </trkpt>
      <trkpt lat="47.23971" lon="6.01269">
        <ele>277</ele>
        <time>2026-03-18T09:40:58Z</time>
      </trkpt>
      <trkpt lat="47.23965" lon="6.01263">
        <ele>277</ele>
        <time>2026-03-18T09:40:59Z</time>
      </trkpt>
      <trkpt lat="47.23944" lon="6.01238">
        <ele>277</ele>
        <time>2026-03-18T09:41:04Z</time>
      </trkpt>
      <trkpt lat="47.23941" lon="6.01257">
        <ele>277</ele>
        <time>2026-03-18T09:41:06Z</time>
      </trkpt>
      <trkpt lat="47.23945" lon="6.01282">
        <ele>276</ele>
        <time>2026-03-18T09:41:10Z</time>
      </trkpt>
      <trkpt lat="47.23944" lon="6.01314">
        <ele>276</ele>
        <time>2026-03-18T09:41:13Z</time>
      </trkpt>
      <trkpt lat="47.23941" lon="6.0134">
        <ele>275</ele>
        <time>2026-03-18T09:41:17Z</time>
      </trkpt>
      <trkpt lat="47.2394" lon="6.01353">
        <ele>275</ele>
        <time>2026-03-18T09:41:18Z</time>
      </trkpt>
      <trkpt lat="47.23939" lon="6.0136">
        <ele>274</ele>
        <time>2026-03-18T09:41:19Z</time>
      </trkpt>
      <trkpt lat="47.23939" lon="6.01371">
        <ele>274</ele>
        <time>2026-03-18T09:41:20Z</time>
      </trkpt>
      <trkpt lat="47.23941" lon="6.0139">
        <ele>273</ele>
        <time>2026-03-18T09:41:23Z</time>
      </trkpt>
      <trkpt lat="47.23947" lon="6.01415">
        <ele>271</ele>
        <time>2026-03-18T09:41:26Z</time>
      </trkpt>
      <trkpt lat="47.23949" lon="6.01429">
        <ele>269</ele>
        <time>2026-03-18T09:41:28Z</time>
      </trkpt>
      <trkpt lat="47.23953" lon="6.01435">
        <ele>269</ele>
        <time>2026-03-18T09:41:29Z</time>
      </trkpt>
      <trkpt lat="47.23992" lon="6.01477">
        <ele>265</ele>
        <time>2026-03-18T09:41:37Z</time>
      </trkpt>
      <trkpt lat="47.23993" lon="6.01482">
        <ele>265</ele>
        <time>2026-03-18T09:41:38Z</time>
      </trkpt>
      <trkpt lat="47.23993" lon="6.01487">
        <ele>265</ele>
        <time>2026-03-18T09:41:38Z</time>
      </trkpt>
      <trkpt lat="47.23992" lon="6.01494">
        <ele>264</ele>
        <time>2026-03-18T09:41:39Z</time>
      </trkpt>
      <trkpt lat="47.23989" lon="6.01506">
        <ele>263</ele>
        <time>2026-03-18T09:41:41Z</time>
      </trkpt>
      <trkpt lat="47.23827" lon="6.01473">
        <ele>259</ele>
        <time>2026-03-18T09:42:10Z</time>
      </trkpt>
      <trkpt lat="47.23816" lon="6.01473">
        <ele>258</ele>
        <time>2026-03-18T09:42:12Z</time>
      </trkpt>
      <trkpt lat="47.23801" lon="6.01475">
        <ele>257</ele>
        <time>2026-03-18T09:42:15Z</time>
      </trkpt>
      <trkpt lat="47.2378" lon="6.01484">
        <ele>254</ele>
        <time>2026-03-18T09:42:19Z</time>
      </trkpt>
      <trkpt lat="47.23772" lon="6.01487">
        <ele>253</ele>
        <time>2026-03-18T09:42:20Z</time>
      </trkpt>
      <trkpt lat="47.23762" lon="6.01489">
        <ele>253</ele>
        <time>2026-03-18T09:42:22Z</time>
      </trkpt>
      <trkpt lat="47.23755" lon="6.01487">
        <ele>253</ele>
        <time>2026-03-18T09:42:23Z</time>
      </trkpt>
      <trkpt lat="47.23752" lon="6.01486">
        <ele>253</ele>
        <time>2026-03-18T09:42:24Z</time>
      </trkpt>
      <trkpt lat="47.2372" lon="6.01463">
        <ele>254</ele>
        <time>2026-03-18T09:42:30Z</time>
      </trkpt>
      <trkpt lat="47.2371" lon="6.01453">
        <ele>254</ele>
        <time>2026-03-18T09:42:32Z</time>
      </trkpt>
      <trkpt lat="47.23701" lon="6.01446">
        <ele>255</ele>
        <time>2026-03-18T09:42:34Z</time>
      </trkpt>
      <trkpt lat="47.23669" lon="6.01423">
        <ele>255</ele>
        <time>2026-03-18T09:42:40Z</time>
      </trkpt>
      <trkpt lat="47.23628" lon="6.01394">
        <ele>255</ele>
        <time>2026-03-18T09:42:48Z</time>
      </trkpt>
      <trkpt lat="47.23603" lon="6.01376">
        <ele>256</ele>
        <time>2026-03-18T09:42:53Z</time>
      </trkpt>
      <trkpt lat="47.23594" lon="6.01375">
        <ele>256</ele>
        <time>2026-03-18T09:42:55Z</time>
      </trkpt>
      <trkpt lat="47.23587" lon="6.0138">
        <ele>255</ele>
        <time>2026-03-18T09:42:56Z</time>
      </trkpt>
      <trkpt lat="47.23581" lon="6.01386">
        <ele>254</ele>
        <time>2026-03-18T09:42:58Z</time>
      </trkpt>
      <trkpt lat="47.23577" lon="6.01397">
        <ele>253</ele>
        <time>2026-03-18T09:42:59Z</time>
      </trkpt>
      <trkpt lat="47.23568" lon="6.01439">
        <ele>249</ele>
        <time>2026-03-18T09:43:04Z</time>
      </trkpt>
      <trkpt lat="47.23567" lon="6.01445">
        <ele>248</ele>
        <time>2026-03-18T09:43:05Z</time>
      </trkpt>
      <trkpt lat="47.23565" lon="6.01453">
        <ele>248</ele>
        <time>2026-03-18T09:43:06Z</time>
      </trkpt>
      <trkpt lat="47.2355" lon="6.01521">
        <ele>246</ele>
        <time>2026-03-18T09:43:15Z</time>
      </trkpt>
      <trkpt lat="47.23545" lon="6.01539">
        <ele>245</ele>
        <time>2026-03-18T09:43:17Z</time>
      </trkpt>
      <trkpt lat="47.23543" lon="6.01558">
        <ele>244</ele>
        <time>2026-03-18T09:43:19Z</time>
      </trkpt>
      <trkpt lat="47.23534" lon="6.01553">
        <ele>244</ele>
        <time>2026-03-18T09:43:21Z</time>
      </trkpt>
      <trkpt lat="47.23495" lon="6.01546">
        <ele>244</ele>
        <time>2026-03-18T09:43:28Z</time>
      </trkpt>
      <trkpt lat="47.23471" lon="6.01546">
        <ele>245</ele>
        <time>2026-03-18T09:43:32Z</time>
      </trkpt>
      <trkpt lat="47.23453" lon="6.01539">
        <ele>246</ele>
        <time>2026-03-18T09:43:36Z</time>
      </trkpt>
      <trkpt lat="47.23446" lon="6.01537">
        <ele>247</ele>
        <time>2026-03-18T09:43:37Z</time>
      </trkpt>
      <trkpt lat="47.23442" lon="6.01534">
        <ele>247</ele>
        <time>2026-03-18T09:43:38Z</time>
      </trkpt>
      <trkpt lat="47.23437" lon="6.01536">
        <ele>247</ele>
        <time>2026-03-18T09:43:39Z</time>
      </trkpt>
      <trkpt lat="47.23431" lon="6.01531">
        <ele>247</ele>
        <time>2026-03-18T09:43:40Z</time>
      </trkpt>
      <trkpt lat="47.23425" lon="6.01527">
        <ele>248</ele>
        <time>2026-03-18T09:43:41Z</time>
      </trkpt>
      <trkpt lat="47.23384" lon="6.01502">
        <ele>248</ele>
        <time>2026-03-18T09:43:49Z</time>
      </trkpt>
      <trkpt lat="47.23379" lon="6.01499">
        <ele>248</ele>
        <time>2026-03-18T09:43:50Z</time>
      </trkpt>
      <trkpt lat="47.2336" lon="6.01487">
        <ele>248</ele>
        <time>2026-03-18T09:43:54Z</time>
      </trkpt>
      <trkpt lat="47.23356" lon="6.01484">
        <ele>248</ele>
        <time>2026-03-18T09:43:54Z</time>
      </trkpt>
      <trkpt lat="47.23343" lon="6.01476">
        <ele>249</ele>
        <time>2026-03-18T09:43:57Z</time>
      </trkpt>
      <trkpt lat="47.23311" lon="6.01457">
        <ele>250</ele>
        <time>2026-03-18T09:44:03Z</time>
      </trkpt>
      <trkpt lat="47.23285" lon="6.01441">
        <ele>252</ele>
        <time>2026-03-18T09:44:08Z</time>
      </trkpt>
      <trkpt lat="47.2328" lon="6.01439">
        <ele>252</ele>
        <time>2026-03-18T09:44:09Z</time>
      </trkpt>
      <trkpt lat="47.23273" lon="6.01434">
        <ele>252</ele>
        <time>2026-03-18T09:44:10Z</time>
      </trkpt>
      <trkpt lat="47.23267" lon="6.0143">
        <ele>253</ele>
        <time>2026-03-18T09:44:12Z</time>
      </trkpt>
      <trkpt lat="47.2326" lon="6.01426">
        <ele>253</ele>
        <time>2026-03-18T09:44:13Z</time>
      </trkpt>
      <trkpt lat="47.23256" lon="6.01424">
        <ele>254</ele>
        <time>2026-03-18T09:44:14Z</time>
      </trkpt>
      <trkpt lat="47.23243" lon="6.01415">
        <ele>254</ele>
        <time>2026-03-18T09:44:16Z</time>
      </trkpt>
      <trkpt lat="47.23227" lon="6.01405">
        <ele>255</ele>
        <time>2026-03-18T09:44:19Z</time>
      </trkpt>
      <trkpt lat="47.23214" lon="6.01395">
        <ele>256</ele>
        <time>2026-03-18T09:44:22Z</time>
      </trkpt>
      <trkpt lat="47.23212" lon="6.01404">
        <ele>256</ele>
        <time>2026-03-18T09:44:23Z</time>
      </trkpt>
      <trkpt lat="47.23213" lon="6.01433">
        <ele>254</ele>
        <time>2026-03-18T09:44:27Z</time>
      </trkpt>
      <trkpt lat="47.23218" lon="6.01489">
        <ele>252</ele>
        <time>2026-03-18T09:44:33Z</time>
      </trkpt>
      <trkpt lat="47.23223" lon="6.01546">
        <ele>250</ele>
        <time>2026-03-18T09:44:40Z</time>
      </trkpt>
      <trkpt lat="47.23227" lon="6.01588">
        <ele>248</ele>
        <time>2026-03-18T09:44:46Z</time>
      </trkpt>
      <trkpt lat="47.23228" lon="6.01597">
        <ele>248</ele>
        <time>2026-03-18T09:44:47Z</time>
      </trkpt>
      <trkpt lat="47.23221" lon="6.016">
        <ele>247</ele>
        <time>2026-03-18T09:44:48Z</time>
      </trkpt>
      <trkpt lat="47.23199" lon="6.01605">
        <ele>247</ele>
        <time>2026-03-18T09:44:52Z</time>
      </trkpt>
      <trkpt lat="47.23158" lon="6.0162">
        <ele>245</ele>
        <time>2026-03-18T09:44:59Z</time>
      </trkpt>
      <trkpt lat="47.23138" lon="6.01628">
        <ele>246</ele>
        <time>2026-03-18T09:45:03Z</time>
      </trkpt>
      <trkpt lat="47.23114" lon="6.01644">
        <ele>246</ele>
        <time>2026-03-18T09:45:08Z</time>
      </trkpt>
      <trkpt lat="47.23091" lon="6.0166">
        <ele>246</ele>
        <time>2026-03-18T09:45:12Z</time>
      </trkpt>
      <trkpt lat="47.23088" lon="6.01663">
        <ele>246</ele>
        <time>2026-03-18T09:45:13Z</time>
      </trkpt>
      <trkpt lat="47.23083" lon="6.01668">
        <ele>246</ele>
        <time>2026-03-18T09:45:14Z</time>
      </trkpt>
      <trkpt lat="47.23051" lon="6.01698">
        <ele>251</ele>
        <time>2026-03-18T09:45:21Z</time>
      </trkpt>
      <trkpt lat="47.23041" lon="6.01706">
        <ele>253</ele>
        <time>2026-03-18T09:45:23Z</time>
      </trkpt>
      <trkpt lat="47.23037" lon="6.01709">
        <ele>254</ele>
        <time>2026-03-18T09:45:24Z</time>
      </trkpt>
      <trkpt lat="47.23023" lon="6.01727">
        <ele>256</ele>
        <time>2026-03-18T09:45:27Z</time>
      </trkpt>
      <trkpt lat="47.23003" lon="6.01755">
        <ele>260</ele>
        <time>2026-03-18T09:45:32Z</time>
      </trkpt>
      <trkpt lat="47.2299" lon="6.01794">
        <ele>267</ele>
        <time>2026-03-18T09:45:37Z</time>
      </trkpt>
      <trkpt lat="47.22984" lon="6.01814">
        <ele>271</ele>
        <time>2026-03-18T09:45:40Z</time>
      </trkpt>
      <trkpt lat="47.22982" lon="6.01841">
        <ele>272</ele>
        <time>2026-03-18T09:45:43Z</time>
      </trkpt>
      <trkpt lat="47.22982" lon="6.01898">
        <ele>267</ele>
        <time>2026-03-18T09:45:50Z</time>
      </trkpt>
      <trkpt lat="47.22984" lon="6.01933">
        <ele>265</ele>
        <time>2026-03-18T09:45:54Z</time>
      </trkpt>
      <trkpt lat="47.22995" lon="6.02001">
        <ele>256</ele>
        <time>2026-03-18T09:46:03Z</time>
      </trkpt>
      <trkpt lat="47.22998" lon="6.02084">
        <ele>253</ele>
        <time>2026-03-18T09:46:13Z</time>
      </trkpt>
      <trkpt lat="47.22998" lon="6.02136">
        <ele>256</ele>
        <time>2026-03-18T09:46:19Z</time>
      </trkpt>
      <trkpt lat="47.22999" lon="6.02206">
        <ele>260</ele>
        <time>2026-03-18T09:46:27Z</time>
      </trkpt>
      <trkpt lat="47.22998" lon="6.02234">
        <ele>264</ele>
        <time>2026-03-18T09:46:31Z</time>
      </trkpt>
      <trkpt lat="47.2299" lon="6.02353">
        <ele>263</ele>
        <time>2026-03-18T09:46:45Z</time>
      </trkpt>
      <trkpt lat="47.22983" lon="6.02395">
        <ele>264</ele>
        <time>2026-03-18T09:46:50Z</time>
      </trkpt>
      <trkpt lat="47.22972" lon="6.02431">
        <ele>268</ele>
        <time>2026-03-18T09:46:55Z</time>
      </trkpt>
      <trkpt lat="47.2297" lon="6.02448">
        <ele>267</ele>
        <time>2026-03-18T09:46:57Z</time>
      </trkpt>
      <trkpt lat="47.22968" lon="6.02465">
        <ele>265</ele>
        <time>2026-03-18T09:46:59Z</time>
      </trkpt>
      <trkpt lat="47.22966" lon="6.025">
        <ele>261</ele>
        <time>2026-03-18T09:47:04Z</time>
      </trkpt>
      <trkpt lat="47.2296" lon="6.02538">
        <ele>262</ele>
        <time>2026-03-18T09:47:08Z</time>
      </trkpt>
      <trkpt lat="47.2295" lon="6.02581">
        <ele>263</ele>
        <time>2026-03-18T09:47:14Z</time>
      </trkpt>
      <trkpt lat="47.22928" lon="6.02663">
        <ele>265</ele>
        <time>2026-03-18T09:47:24Z</time>
      </trkpt>
      <trkpt lat="47.22904" lon="6.02742">
        <ele>255</ele>
        <time>2026-03-18T09:47:35Z</time>
      </trkpt>
      <trkpt lat="47.22886" lon="6.02812">
        <ele>250</ele>
        <time>2026-03-18T09:47:44Z</time>
      </trkpt>
      <trkpt lat="47.22855" lon="6.02913">
        <ele>248</ele>
        <time>2026-03-18T09:47:57Z</time>
      </trkpt>
      <trkpt lat="47.22851" lon="6.02929">
        <ele>247</ele>
        <time>2026-03-18T09:47:59Z</time>
      </trkpt>
      <trkpt lat="47.22844" lon="6.02947">
        <ele>247</ele>
        <time>2026-03-18T09:48:02Z</time>
      </trkpt>
      <trkpt lat="47.22804" lon="6.03013">
        <ele>244</ele>
        <time>2026-03-18T09:48:13Z</time>
      </trkpt>
      <trkpt lat="47.22804" lon="6.03013">
        <ele>244</ele>
        <time>2026-03-18T09:48:13Z</time>
      </trkpt>
      <trkpt lat="47.22765" lon="6.03066">
        <ele>242</ele>
        <time>2026-03-18T09:48:22Z</time>
      </trkpt>
      <trkpt lat="47.22758" lon="6.03073">
        <ele>241</ele>
        <time>2026-03-18T09:48:24Z</time>
      </trkpt>
      <trkpt lat="47.22751" lon="6.03081">
        <ele>240</ele>
        <time>2026-03-18T09:48:25Z</time>
      </trkpt>
      <trkpt lat="47.22742" lon="6.03086">
        <ele>240</ele>
        <time>2026-03-18T09:48:27Z</time>
      </trkpt>
      <trkpt lat="47.22701" lon="6.03119">
        <ele>241</ele>
        <time>2026-03-18T09:48:35Z</time>
      </trkpt>
      <trkpt lat="47.22696" lon="6.03124">
        <ele>241</ele>
        <time>2026-03-18T09:48:36Z</time>
      </trkpt>
      <trkpt lat="47.22693" lon="6.03126">
        <ele>241</ele>
        <time>2026-03-18T09:48:37Z</time>
      </trkpt>
      <trkpt lat="47.22692" lon="6.03127">
        <ele>241</ele>
        <time>2026-03-18T09:48:37Z</time>
      </trkpt>
      <trkpt lat="47.2269" lon="6.03128">
        <ele>241</ele>
        <time>2026-03-18T09:48:37Z</time>
      </trkpt>
      <trkpt lat="47.22677" lon="6.03134">
        <ele>242</ele>
        <time>2026-03-18T09:48:40Z</time>
      </trkpt>
      <trkpt lat="47.22663" lon="6.03139">
        <ele>242</ele>
        <time>2026-03-18T09:48:42Z</time>
      </trkpt>
      <trkpt lat="47.22644" lon="6.03144">
        <ele>243</ele>
        <time>2026-03-18T09:48:46Z</time>
      </trkpt>
      <trkpt lat="47.22629" lon="6.03146">
        <ele>244</ele>
        <time>2026-03-18T09:48:48Z</time>
      </trkpt>
      <trkpt lat="47.22622" lon="6.03147">
        <ele>244</ele>
        <time>2026-03-18T09:48:50Z</time>
      </trkpt>
      <trkpt lat="47.22611" lon="6.03145">
        <ele>244</ele>
        <time>2026-03-18T09:48:52Z</time>
      </trkpt>
      <trkpt lat="47.22604" lon="6.03143">
        <ele>245</ele>
        <time>2026-03-18T09:48:53Z</time>
      </trkpt>
      <trkpt lat="47.22584" lon="6.03134">
        <ele>245</ele>
        <time>2026-03-18T09:48:57Z</time>
      </trkpt>
      <trkpt lat="47.22562" lon="6.03119">
        <ele>244</ele>
        <time>2026-03-18T09:49:01Z</time>
      </trkpt>
      <trkpt lat="47.22535" lon="6.03097">
        <ele>243</ele>
        <time>2026-03-18T09:49:07Z</time>
      </trkpt>
      <trkpt lat="47.22519" lon="6.03084">
        <ele>242</ele>
        <time>2026-03-18T09:49:10Z</time>
      </trkpt>
      <trkpt lat="47.22509" lon="6.03076">
        <ele>242</ele>
        <time>2026-03-18T09:49:12Z</time>
      </trkpt>
      <trkpt lat="47.22493" lon="6.03066">
        <ele>242</ele>
        <time>2026-03-18T09:49:15Z</time>
      </trkpt>
      <trkpt lat="47.22468" lon="6.03052">
        <ele>241</ele>
        <time>2026-03-18T09:49:20Z</time>
      </trkpt>
      <trkpt lat="47.22465" lon="6.03051">
        <ele>241</ele>
        <time>2026-03-18T09:49:20Z</time>
      </trkpt>
      <trkpt lat="47.22448" lon="6.0304">
        <ele>240</ele>
        <time>2026-03-18T09:49:23Z</time>
      </trkpt>
      <trkpt lat="47.22439" lon="6.03029">
        <ele>240</ele>
        <time>2026-03-18T09:49:26Z</time>
      </trkpt>
      <trkpt lat="47.22423" lon="6.03009">
        <ele>239</ele>
        <time>2026-03-18T09:49:29Z</time>
      </trkpt>
      <trkpt lat="47.22416" lon="6.02994">
        <ele>239</ele>
        <time>2026-03-18T09:49:32Z</time>
      </trkpt>
      <trkpt lat="47.22392" lon="6.02929">
        <ele>242</ele>
        <time>2026-03-18T09:49:40Z</time>
      </trkpt>
      <trkpt lat="47.22384" lon="6.02915">
        <ele>242</ele>
        <time>2026-03-18T09:49:43Z</time>
      </trkpt>
      <trkpt lat="47.22348" lon="6.02871">
        <ele>246</ele>
        <time>2026-03-18T09:49:51Z</time>
      </trkpt>
      <trkpt lat="47.223" lon="6.02828">
        <ele>245</ele>
        <time>2026-03-18T09:50:01Z</time>
      </trkpt>
      <trkpt lat="47.22253" lon="6.02789">
        <ele>243</ele>
        <time>2026-03-18T09:50:11Z</time>
      </trkpt>
      <trkpt lat="47.22233" lon="6.02763">
        <ele>242</ele>
        <time>2026-03-18T09:50:15Z</time>
      </trkpt>
      <trkpt lat="47.22182" lon="6.02668">
        <ele>242</ele>
        <time>2026-03-18T09:50:30Z</time>
      </trkpt>
      <trkpt lat="47.22125" lon="6.02539">
        <ele>243</ele>
        <time>2026-03-18T09:50:49Z</time>
      </trkpt>
      <trkpt lat="47.22072" lon="6.02373">
        <ele>246</ele>
        <time>2026-03-18T09:51:11Z</time>
      </trkpt>
      <trkpt lat="47.22034" lon="6.02277">
        <ele>249</ele>
        <time>2026-03-18T09:51:24Z</time>
      </trkpt>
      <trkpt lat="47.22021" lon="6.02241">
        <ele>249</ele>
        <time>2026-03-18T09:51:29Z</time>
      </trkpt>
      <trkpt lat="47.21987" lon="6.02186">
        <ele>244</ele>
        <time>2026-03-18T09:51:38Z</time>
      </trkpt>
      <trkpt lat="47.21967" lon="6.02152">
        <ele>243</ele>
        <time>2026-03-18T09:51:43Z</time>
      </trkpt>
      <trkpt lat="47.21946" lon="6.02107">
        <ele>242</ele>
        <time>2026-03-18T09:51:50Z</time>
      </trkpt>
      <trkpt lat="47.21935" lon="6.02072">
        <ele>241</ele>
        <time>2026-03-18T09:51:55Z</time>
      </trkpt>
      <trkpt lat="47.21927" lon="6.02038">
        <ele>241</ele>
        <time>2026-03-18T09:51:59Z</time>
      </trkpt>
      <trkpt lat="47.21924" lon="6.02023">
        <ele>240</ele>
        <time>2026-03-18T09:52:01Z</time>
      </trkpt>
      <trkpt lat="47.21922" lon="6.01994">
        <ele>240</ele>
        <time>2026-03-18T09:52:05Z</time>
      </trkpt>
      <trkpt lat="47.21922" lon="6.01958">
        <ele>241</ele>
        <time>2026-03-18T09:52:09Z</time>
      </trkpt>
      <trkpt lat="47.21926" lon="6.01879">
        <ele>243</ele>
        <time>2026-03-18T09:52:18Z</time>
      </trkpt>
      <trkpt lat="47.21928" lon="6.01834">
        <ele>244</ele>
        <time>2026-03-18T09:52:24Z</time>
      </trkpt>
      <trkpt lat="47.21928" lon="6.01818">
        <ele>244</ele>
        <time>2026-03-18T09:52:26Z</time>
      </trkpt>
      <trkpt lat="47.21925" lon="6.01775">
        <ele>244</ele>
        <time>2026-03-18T09:52:31Z</time>
      </trkpt>
      <trkpt lat="47.21918" lon="6.01731">
        <ele>243</ele>
        <time>2026-03-18T09:52:37Z</time>
      </trkpt>
      <trkpt lat="47.21901" lon="6.01752">
        <ele>242</ele>
        <time>2026-03-18T09:52:40Z</time>
      </trkpt>
      <trkpt lat="47.21887" lon="6.01782">
        <ele>241</ele>
        <time>2026-03-18T09:52:45Z</time>
      </trkpt>
      <trkpt lat="47.21879" lon="6.01789">
        <ele>240</ele>
        <time>2026-03-18T09:52:47Z</time>
      </trkpt>
      <trkpt lat="47.21853" lon="6.01799">
        <ele>239</ele>
        <time>2026-03-18T09:52:51Z</time>
      </trkpt>
      <trkpt lat="47.21829" lon="6.01808">
        <ele>238</ele>
        <time>2026-03-18T09:52:56Z</time>
      </trkpt>
      <trkpt lat="47.21776" lon="6.0183">
        <ele>238</ele>
        <time>2026-03-18T09:53:05Z</time>
      </trkpt>
      <trkpt lat="47.2173" lon="6.0185">
        <ele>247</ele>
        <time>2026-03-18T09:53:14Z</time>
      </trkpt>
      <trkpt lat="47.21722" lon="6.01853">
        <ele>250</ele>
        <time>2026-03-18T09:53:16Z</time>
      </trkpt>
      <trkpt lat="47.21714" lon="6.01854">
        <ele>254</ele>
        <time>2026-03-18T09:53:17Z</time>
      </trkpt>
      <trkpt lat="47.21705" lon="6.01854">
        <ele>258</ele>
        <time>2026-03-18T09:53:19Z</time>
      </trkpt>
      <trkpt lat="47.21706" lon="6.01842">
        <ele>257</ele>
        <time>2026-03-18T09:53:20Z</time>
      </trkpt>
      <trkpt lat="47.21702" lon="6.01764">
        <ele>257</ele>
        <time>2026-03-18T09:53:29Z</time>
      </trkpt>
      <trkpt lat="47.21692" lon="6.01645">
        <ele>259</ele>
        <time>2026-03-18T09:53:44Z</time>
      </trkpt>
      <trkpt lat="47.21674" lon="6.01427">
        <ele>255</ele>
        <time>2026-03-18T09:54:10Z</time>
      </trkpt>
      <trkpt lat="47.21653" lon="6.01241">
        <ele>253</ele>
        <time>2026-03-18T09:54:33Z</time>
      </trkpt>
      <trkpt lat="47.21644" lon="6.01173">
        <ele>254</ele>
        <time>2026-03-18T09:54:42Z</time>
      </trkpt>
      <trkpt lat="47.21597" lon="6.00947">
        <ele>248</ele>
        <time>2026-03-18T09:55:10Z</time>
      </trkpt>
      <trkpt lat="47.21591" lon="6.00921">
        <ele>247</ele>
        <time>2026-03-18T09:55:14Z</time>
      </trkpt>
      <trkpt lat="47.21548" lon="6.00748">
        <ele>248</ele>
        <time>2026-03-18T09:55:36Z</time>
      </trkpt>
      <trkpt lat="47.21527" lon="6.00669">
        <ele>246</ele>
        <time>2026-03-18T09:55:46Z</time>
      </trkpt>
      <trkpt lat="47.21516" lon="6.00628">
        <ele>244</ele>
        <time>2026-03-18T09:55:51Z</time>
      </trkpt>
      <trkpt lat="47.21503" lon="6.00589">
        <ele>241</ele>
        <time>2026-03-18T09:55:57Z</time>
      </trkpt>
      <trkpt lat="47.21458" lon="6.00461">
        <ele>248</ele>
        <time>2026-03-18T09:56:14Z</time>
      </trkpt>
      <trkpt lat="47.21437" lon="6.00407">
        <ele>245</ele>
        <time>2026-03-18T09:56:22Z</time>
      </trkpt>
      <trkpt lat="47.21411" lon="6.00349">
        <ele>243</ele>
        <time>2026-03-18T09:56:30Z</time>
      </trkpt>
      <trkpt lat="47.21399" lon="6.00327">
        <ele>243</ele>
        <time>2026-03-18T09:56:33Z</time>
      </trkpt>
      <trkpt lat="47.21378" lon="6.003">
        <ele>245</ele>
        <time>2026-03-18T09:56:38Z</time>
      </trkpt>
      <trkpt lat="47.21366" lon="6.00288">
        <ele>245</ele>
        <time>2026-03-18T09:56:41Z</time>
      </trkpt>
      <trkpt lat="47.21358" lon="6.00295">
        <ele>247</ele>
        <time>2026-03-18T09:56:43Z</time>
      </trkpt>
      <trkpt lat="47.21352" lon="6.00297">
        <ele>248</ele>
        <time>2026-03-18T09:56:44Z</time>
      </trkpt>
      <trkpt lat="47.21345" lon="6.00294">
        <ele>249</ele>
        <time>2026-03-18T09:56:45Z</time>
      </trkpt>
      <trkpt lat="47.21339" lon="6.00287">
        <ele>248</ele>
        <time>2026-03-18T09:56:46Z</time>
      </trkpt>
      <trkpt lat="47.21332" lon="6.00277">
        <ele>247</ele>
        <time>2026-03-18T09:56:48Z</time>
      </trkpt>
      <trkpt lat="47.21296" lon="6.00257">
        <ele>248</ele>
        <time>2026-03-18T09:56:55Z</time>
      </trkpt>
      <trkpt lat="47.21274" lon="6.00247">
        <ele>249</ele>
        <time>2026-03-18T09:56:59Z</time>
      </trkpt>
      <trkpt lat="47.21263" lon="6.00244">
        <ele>250</ele>
        <time>2026-03-18T09:57:01Z</time>
      </trkpt>
      <trkpt lat="47.21253" lon="6.00243">
        <ele>251</ele>
        <time>2026-03-18T09:57:03Z</time>
      </trkpt>
      <trkpt lat="47.21231" lon="6.00247">
        <ele>252</ele>
        <time>2026-03-18T09:57:07Z</time>
      </trkpt>
      <trkpt lat="47.21164" lon="6.00266">
        <ele>257</ele>
        <time>2026-03-18T09:57:19Z</time>
      </trkpt>
      <trkpt lat="47.20998" lon="6.00332">
        <ele>254</ele>
        <time>2026-03-18T09:57:49Z</time>
      </trkpt>
      <trkpt lat="47.20961" lon="6.00347">
        <ele>255</ele>
        <time>2026-03-18T09:57:56Z</time>
      </trkpt>
      <trkpt lat="47.20918" lon="6.00362">
        <ele>254</ele>
        <time>2026-03-18T09:58:04Z</time>
      </trkpt>
      <trkpt lat="47.20905" lon="6.00369">
        <ele>255</ele>
        <time>2026-03-18T09:58:07Z</time>
      </trkpt>
      <trkpt lat="47.2087" lon="6.00383">
        <ele>256</ele>
        <time>2026-03-18T09:58:13Z</time>
      </trkpt>
      <trkpt lat="47.20846" lon="6.00388">
        <ele>256</ele>
        <time>2026-03-18T09:58:17Z</time>
      </trkpt>
      <trkpt lat="47.20782" lon="6.00412">
        <ele>255</ele>
        <time>2026-03-18T09:58:29Z</time>
      </trkpt>
      <trkpt lat="47.20761" lon="6.00419">
        <ele>255</ele>
        <time>2026-03-18T09:58:33Z</time>
      </trkpt>
      <trkpt lat="47.20747" lon="6.00429">
        <ele>255</ele>
        <time>2026-03-18T09:58:36Z</time>
      </trkpt>
      <trkpt lat="47.20742" lon="6.00432">
        <ele>255</ele>
        <time>2026-03-18T09:58:37Z</time>
      </trkpt>
      <trkpt lat="47.20711" lon="6.00462">
        <ele>256</ele>
        <time>2026-03-18T09:58:43Z</time>
      </trkpt>
      <trkpt lat="47.20695" lon="6.00472">
        <ele>254</ele>
        <time>2026-03-18T09:58:46Z</time>
      </trkpt>
      <trkpt lat="47.20652" lon="6.0049">
        <ele>255</ele>
        <time>2026-03-18T09:58:54Z</time>
      </trkpt>
      <trkpt lat="47.20642" lon="6.00494">
        <ele>258</ele>
        <time>2026-03-18T09:58:56Z</time>
      </trkpt>
      <trkpt lat="47.20637" lon="6.00494">
        <ele>259</ele>
        <time>2026-03-18T09:58:57Z</time>
      </trkpt>
      <trkpt lat="47.20634" lon="6.00493">
        <ele>260</ele>
        <time>2026-03-18T09:58:58Z</time>
      </trkpt>
      <trkpt lat="47.20633" lon="6.00492">
        <ele>260</ele>
        <time>2026-03-18T09:58:58Z</time>
      </trkpt>
      <trkpt lat="47.2063" lon="6.00491">
        <ele>261</ele>
        <time>2026-03-18T09:58:58Z</time>
      </trkpt>
      <trkpt lat="47.20626" lon="6.00486">
        <ele>262</ele>
        <time>2026-03-18T09:58:59Z</time>
      </trkpt>
      <trkpt lat="47.20622" lon="6.00478">
        <ele>262</ele>
        <time>2026-03-18T09:59:01Z</time>
      </trkpt>
      <trkpt lat="47.20619" lon="6.00469">
        <ele>263</ele>
        <time>2026-03-18T09:59:02Z</time>
      </trkpt>
      <trkpt lat="47.20617" lon="6.00448">
        <ele>263</ele>
        <time>2026-03-18T09:59:04Z</time>
      </trkpt>
      <trkpt lat="47.20616" lon="6.00421">
        <ele>263</ele>
        <time>2026-03-18T09:59:08Z</time>
      </trkpt>
      <trkpt lat="47.20612" lon="6.00385">
        <ele>262</ele>
        <time>2026-03-18T09:59:12Z</time>
      </trkpt>
      <trkpt lat="47.20609" lon="6.0036">
        <ele>262</ele>
        <time>2026-03-18T09:59:15Z</time>
      </trkpt>
      <trkpt lat="47.20598" lon="6.00328">
        <ele>262</ele>
        <time>2026-03-18T09:59:19Z</time>
      </trkpt>
      <trkpt lat="47.20583" lon="6.00296">
        <ele>261</ele>
        <time>2026-03-18T09:59:24Z</time>
      </trkpt>
      <trkpt lat="47.20541" lon="6.00231">
        <ele>266</ele>
        <time>2026-03-18T09:59:35Z</time>
      </trkpt>
      <trkpt lat="47.20525" lon="6.00209">
        <ele>268</ele>
        <time>2026-03-18T09:59:39Z</time>
      </trkpt>
      <trkpt lat="47.20494" lon="6.00176">
        <ele>272</ele>
        <time>2026-03-18T09:59:46Z</time>
      </trkpt>
      <trkpt lat="47.20432" lon="6.00099">
        <ele>276</ele>
        <time>2026-03-18T10:00:00Z</time>
      </trkpt>
      <trkpt lat="47.20269" lon="5.99907">
        <ele>285</ele>
        <time>2026-03-18T10:00:37Z</time>
      </trkpt>
      <trkpt lat="47.20184" lon="5.9982">
        <ele>295</ele>
        <time>2026-03-18T10:00:56Z</time>
      </trkpt>
      <trkpt lat="47.20172" lon="5.99802">
        <ele>295</ele>
        <time>2026-03-18T10:00:59Z</time>
      </trkpt>
      <trkpt lat="47.20161" lon="5.99782">
        <ele>296</ele>
        <time>2026-03-18T10:01:02Z</time>
      </trkpt>
      <trkpt lat="47.20135" lon="5.99728">
        <ele>297</ele>
        <time>2026-03-18T10:01:10Z</time>
      </trkpt>
      <trkpt lat="47.20133" lon="5.99725">
        <ele>297</ele>
        <time>2026-03-18T10:01:10Z</time>
      </trkpt>
      <trkpt lat="47.20128" lon="5.99721">
        <ele>298</ele>
        <time>2026-03-18T10:01:11Z</time>
      </trkpt>
      <trkpt lat="47.20118" lon="5.99722">
        <ele>302</ele>
        <time>2026-03-18T10:01:13Z</time>
      </trkpt>
      <trkpt lat="47.20112" lon="5.99734">
        <ele>306</ele>
        <time>2026-03-18T10:01:15Z</time>
      </trkpt>
      <trkpt lat="47.20111" lon="5.99747">
        <ele>308</ele>
        <time>2026-03-18T10:01:16Z</time>
      </trkpt>
      <trkpt lat="47.20115" lon="5.99764">
        <ele>310</ele>
        <time>2026-03-18T10:01:19Z</time>
      </trkpt>
      <trkpt lat="47.20195" lon="5.99906">
        <ele>311</ele>
        <time>2026-03-18T10:01:41Z</time>
      </trkpt>
      <trkpt lat="47.2026" lon="6.00001">
        <ele>311</ele>
        <time>2026-03-18T10:01:57Z</time>
      </trkpt>
      <trkpt lat="47.20305" lon="6.00078">
        <ele>318</ele>
        <time>2026-03-18T10:02:10Z</time>
      </trkpt>
      <trkpt lat="47.20386" lon="6.00236">
        <ele>331</ele>
        <time>2026-03-18T10:02:33Z</time>
      </trkpt>
      <trkpt lat="47.2042" lon="6.00315">
        <ele>335</ele>
        <time>2026-03-18T10:02:45Z</time>
      </trkpt>
      <trkpt lat="47.20448" lon="6.00401">
        <ele>340</ele>
        <time>2026-03-18T10:02:56Z</time>
      </trkpt>
      <trkpt lat="47.20473" lon="6.00472">
        <ele>339</ele>
        <time>2026-03-18T10:03:06Z</time>
      </trkpt>
      <trkpt lat="47.20486" lon="6.00561">
        <ele>336</ele>
        <time>2026-03-18T10:03:17Z</time>
      </trkpt>
      <trkpt lat="47.20473" lon="6.00619">
        <ele>337</ele>
        <time>2026-03-18T10:03:24Z</time>
      </trkpt>
      <trkpt lat="47.2046" lon="6.00654">
        <ele>338</ele>
        <time>2026-03-18T10:03:29Z</time>
      </trkpt>
      <trkpt lat="47.20439" lon="6.0068">
        <ele>343</ele>
        <time>2026-03-18T10:03:34Z</time>
      </trkpt>
      <trkpt lat="47.20413" lon="6.00702">
        <ele>347</ele>
        <time>2026-03-18T10:03:39Z</time>
      </trkpt>
      <trkpt lat="47.20402" lon="6.00708">
        <ele>345</ele>
        <time>2026-03-18T10:03:41Z</time>
      </trkpt>
      <trkpt lat="47.20382" lon="6.00719">
        <ele>343</ele>
        <time>2026-03-18T10:03:45Z</time>
      </trkpt>
      <trkpt lat="47.20374" lon="6.00721">
        <ele>344</ele>
        <time>2026-03-18T10:03:47Z</time>
      </trkpt>
      <trkpt lat="47.20365" lon="6.00719">
        <ele>346</ele>
        <time>2026-03-18T10:03:48Z</time>
      </trkpt>
      <trkpt lat="47.20352" lon="6.00711">
        <ele>350</ele>
        <time>2026-03-18T10:03:51Z</time>
      </trkpt>
      <trkpt lat="47.20335" lon="6.00693">
        <ele>356</ele>
        <time>2026-03-18T10:03:55Z</time>
      </trkpt>
      <trkpt lat="47.20307" lon="6.00642">
        <ele>364</ele>
        <time>2026-03-18T10:04:02Z</time>
      </trkpt>
      <trkpt lat="47.20299" lon="6.00632">
        <ele>365</ele>
        <time>2026-03-18T10:04:04Z</time>
      </trkpt>
      <trkpt lat="47.20291" lon="6.00623">
        <ele>366</ele>
        <time>2026-03-18T10:04:06Z</time>
      </trkpt>
      <trkpt lat="47.20273" lon="6.00617">
        <ele>365</ele>
        <time>2026-03-18T10:04:09Z</time>
      </trkpt>
      <trkpt lat="47.2024" lon="6.00611">
        <ele>363</ele>
        <time>2026-03-18T10:04:15Z</time>
      </trkpt>
      <trkpt lat="47.20213" lon="6.00603">
        <ele>365</ele>
        <time>2026-03-18T10:04:20Z</time>
      </trkpt>
      <trkpt lat="47.20191" lon="6.00601">
        <ele>366</ele>
        <time>2026-03-18T10:04:24Z</time>
      </trkpt>
      <trkpt lat="47.20163" lon="6.0061">
        <ele>364</ele>
        <time>2026-03-18T10:04:29Z</time>
      </trkpt>
      <trkpt lat="47.20145" lon="6.00609">
        <ele>363</ele>
        <time>2026-03-18T10:04:32Z</time>
      </trkpt>
      <trkpt lat="47.20124" lon="6.00601">
        <ele>365</ele>
        <time>2026-03-18T10:04:36Z</time>
      </trkpt>
      <trkpt lat="47.20093" lon="6.0058">
        <ele>367</ele>
        <time>2026-03-18T10:04:42Z</time>
      </trkpt>
      <trkpt lat="47.20035" lon="6.00545">
        <ele>370</ele>
        <time>2026-03-18T10:04:54Z</time>
      </trkpt>
      <trkpt lat="47.20019" lon="6.00516">
        <ele>373</ele>
        <time>2026-03-18T10:04:58Z</time>
      </trkpt>
      <trkpt lat="47.20009" lon="6.00503">
        <ele>373</ele>
        <time>2026-03-18T10:05:00Z</time>
      </trkpt>
      <trkpt lat="47.19999" lon="6.00494">
        <ele>373</ele>
        <time>2026-03-18T10:05:03Z</time>
      </trkpt>
      <trkpt lat="47.19985" lon="6.00485">
        <ele>374</ele>
        <time>2026-03-18T10:05:05Z</time>
      </trkpt>
      <trkpt lat="47.19971" lon="6.00478">
        <ele>375</ele>
        <time>2026-03-18T10:05:08Z</time>
      </trkpt>
      <trkpt lat="47.19944" lon="6.0046">
        <ele>376</ele>
        <time>2026-03-18T10:05:13Z</time>
      </trkpt>
      <trkpt lat="47.19909" lon="6.00416">
        <ele>378</ele>
        <time>2026-03-18T10:05:21Z</time>
      </trkpt>
      <trkpt lat="47.19883" lon="6.00375">
        <ele>381</ele>
        <time>2026-03-18T10:05:28Z</time>
      </trkpt>
      <trkpt lat="47.19875" lon="6.00358">
        <ele>382</ele>
        <time>2026-03-18T10:05:31Z</time>
      </trkpt>
      <trkpt lat="47.19871" lon="6.00348">
        <ele>382</ele>
        <time>2026-03-18T10:05:32Z</time>
      </trkpt>
      <trkpt lat="47.19857" lon="6.00314">
        <ele>383</ele>
        <time>2026-03-18T10:05:37Z</time>
      </trkpt>
      <trkpt lat="47.19852" lon="6.00296">
        <ele>383</ele>
        <time>2026-03-18T10:05:39Z</time>
      </trkpt>
      <trkpt lat="47.19847" lon="6.00266">
        <ele>384</ele>
        <time>2026-03-18T10:05:43Z</time>
      </trkpt>
      <trkpt lat="47.19844" lon="6.00253">
        <ele>384</ele>
        <time>2026-03-18T10:05:45Z</time>
      </trkpt>
      <trkpt lat="47.19841" lon="6.00243">
        <ele>384</ele>
        <time>2026-03-18T10:05:46Z</time>
      </trkpt>
      <trkpt lat="47.19831" lon="6.00226">
        <ele>385</ele>
        <time>2026-03-18T10:05:49Z</time>
      </trkpt>
      <trkpt lat="47.1981" lon="6.0019">
        <ele>388</ele>
        <time>2026-03-18T10:05:54Z</time>
      </trkpt>
      <trkpt lat="47.19792" lon="6.00163">
        <ele>389</ele>
        <time>2026-03-18T10:05:59Z</time>
      </trkpt>
      <trkpt lat="47.1976" lon="6.00128">
        <ele>389</ele>
        <time>2026-03-18T10:06:06Z</time>
      </trkpt>
      <trkpt lat="47.19746" lon="6.00116">
        <ele>388</ele>
        <time>2026-03-18T10:06:09Z</time>
      </trkpt>
      <trkpt lat="47.19709" lon="6.00094">
        <ele>390</ele>
        <time>2026-03-18T10:06:16Z</time>
      </trkpt>
      <trkpt lat="47.19679" lon="6.00081">
        <ele>390</ele>
        <time>2026-03-18T10:06:22Z</time>
      </trkpt>
      <trkpt lat="47.19654" lon="6.00077">
        <ele>391</ele>
        <time>2026-03-18T10:06:26Z</time>
      </trkpt>
      <trkpt lat="47.19627" lon="6.00075">
        <ele>392</ele>
        <time>2026-03-18T10:06:31Z</time>
      </trkpt>
      <trkpt lat="47.19603" lon="6.00069">
        <ele>392</ele>
        <time>2026-03-18T10:06:35Z</time>
      </trkpt>
      <trkpt lat="47.19587" lon="6.00063">
        <ele>393</ele>
        <time>2026-03-18T10:06:38Z</time>
      </trkpt>
      <trkpt lat="47.1957" lon="6.00053">
        <ele>394</ele>
        <time>2026-03-18T10:06:41Z</time>
      </trkpt>
      <trkpt lat="47.19539" lon="6.00026">
        <ele>396</ele>
        <time>2026-03-18T10:06:48Z</time>
      </trkpt>
      <trkpt lat="47.19516" lon="6.00017">
        <ele>397</ele>
        <time>2026-03-18T10:06:52Z</time>
      </trkpt>
      <trkpt lat="47.19496" lon="6.00016">
        <ele>398</ele>
        <time>2026-03-18T10:06:56Z</time>
      </trkpt>
      <trkpt lat="47.19312" lon="6.00025">
        <ele>405</ele>
        <time>2026-03-18T10:07:28Z</time>
      </trkpt>
      <trkpt lat="47.19304" lon="6.00025">
        <ele>405</ele>
        <time>2026-03-18T10:07:30Z</time>
      </trkpt>
      <trkpt lat="47.19277" lon="6.00024">
        <ele>405</ele>
        <time>2026-03-18T10:07:35Z</time>
      </trkpt>
      <trkpt lat="47.19247" lon="6.00015">
        <ele>404</ele>
        <time>2026-03-18T10:07:40Z</time>
      </trkpt>
      <trkpt lat="47.19203" lon="5.9999">
        <ele>402</ele>
        <time>2026-03-18T10:07:48Z</time>
      </trkpt>
      <trkpt lat="47.19166" lon="5.99965">
        <ele>401</ele>
        <time>2026-03-18T10:07:56Z</time>
      </trkpt>
      <trkpt lat="47.19102" lon="5.99908">
        <ele>399</ele>
        <time>2026-03-18T10:08:09Z</time>
      </trkpt>
      <trkpt lat="47.1903" lon="5.99831">
        <ele>398</ele>
        <time>2026-03-18T10:08:25Z</time>
      </trkpt>
      <trkpt lat="47.19002" lon="5.99798">
        <ele>397</ele>
        <time>2026-03-18T10:08:31Z</time>
      </trkpt>
      <trkpt lat="47.18985" lon="5.99775">
        <ele>397</ele>
        <time>2026-03-18T10:08:35Z</time>
      </trkpt>
      <trkpt lat="47.18961" lon="5.99734">
        <ele>396</ele>
        <time>2026-03-18T10:08:42Z</time>
      </trkpt>
      <trkpt lat="47.18879" lon="5.99577">
        <ele>389</ele>
        <time>2026-03-18T10:09:06Z</time>
      </trkpt>
      <trkpt lat="47.1887" lon="5.99562">
        <ele>389</ele>
        <time>2026-03-18T10:09:08Z</time>
      </trkpt>
      <trkpt lat="47.18853" lon="5.99545">
        <ele>388</ele>
        <time>2026-03-18T10:09:12Z</time>
      </trkpt>
      <trkpt lat="47.18777" lon="5.99486">
        <ele>384</ele>
        <time>2026-03-18T10:09:27Z</time>
      </trkpt>
      <trkpt lat="47.1874" lon="5.9945">
        <ele>383</ele>
        <time>2026-03-18T10:09:35Z</time>
      </trkpt>
      <trkpt lat="47.18724" lon="5.99431">
        <ele>383</ele>
        <time>2026-03-18T10:09:39Z</time>
      </trkpt>
      <trkpt lat="47.18712" lon="5.99415">
        <ele>383</ele>
        <time>2026-03-18T10:09:42Z</time>
      </trkpt>
      <trkpt lat="47.18653" lon="5.99327">
        <ele>380</ele>
        <time>2026-03-18T10:09:57Z</time>
      </trkpt>
      <trkpt lat="47.18655" lon="5.99325">
        <ele>380</ele>
        <time>2026-03-18T10:09:57Z</time>
      </trkpt>
      <trkpt lat="47.18656" lon="5.99319">
        <ele>380</ele>
        <time>2026-03-18T10:09:58Z</time>
      </trkpt>
      <trkpt lat="47.18655" lon="5.99313">
        <ele>380</ele>
        <time>2026-03-18T10:09:58Z</time>
      </trkpt>
      <trkpt lat="47.18651" lon="5.99309">
        <ele>380</ele>
        <time>2026-03-18T10:09:59Z</time>
      </trkpt>
      <trkpt lat="47.18649" lon="5.99309">
        <ele>380</ele>
        <time>2026-03-18T10:10:00Z</time>
      </trkpt>
      <trkpt lat="47.18645" lon="5.99311">
        <ele>380</ele>
        <time>2026-03-18T10:10:00Z</time>
      </trkpt>
      <trkpt lat="47.18556" lon="5.99234">
        <ele>380</ele>
        <time>2026-03-18T10:10:19Z</time>
      </trkpt>
      <trkpt lat="47.1853" lon="5.9921">
        <ele>380</ele>
        <time>2026-03-18T10:10:24Z</time>
      </trkpt>
      <trkpt lat="47.18516" lon="5.99201">
        <ele>380</ele>
        <time>2026-03-18T10:10:27Z</time>
      </trkpt>
      <trkpt lat="47.18497" lon="5.99195">
        <ele>380</ele>
        <time>2026-03-18T10:10:30Z</time>
      </trkpt>
      <trkpt lat="47.18477" lon="5.99194">
        <ele>380</ele>
        <time>2026-03-18T10:10:34Z</time>
      </trkpt>
      <trkpt lat="47.18436" lon="5.99194">
        <ele>380</ele>
        <time>2026-03-18T10:10:41Z</time>
      </trkpt>
      <trkpt lat="47.18418" lon="5.99192">
        <ele>379</ele>
        <time>2026-03-18T10:10:44Z</time>
      </trkpt>
      <trkpt lat="47.18403" lon="5.99188">
        <ele>379</ele>
        <time>2026-03-18T10:10:47Z</time>
      </trkpt>
      <trkpt lat="47.18386" lon="5.9918">
        <ele>379</ele>
        <time>2026-03-18T10:10:50Z</time>
      </trkpt>
      <trkpt lat="47.18351" lon="5.9915">
        <ele>378</ele>
        <time>2026-03-18T10:10:58Z</time>
      </trkpt>
      <trkpt lat="47.18339" lon="5.99145">
        <ele>377</ele>
        <time>2026-03-18T10:11:00Z</time>
      </trkpt>
      <trkpt lat="47.1832" lon="5.99144">
        <ele>377</ele>
        <time>2026-03-18T10:11:03Z</time>
      </trkpt>
      <trkpt lat="47.18309" lon="5.99147">
        <ele>377</ele>
        <time>2026-03-18T10:11:05Z</time>
      </trkpt>
      <trkpt lat="47.18277" lon="5.99148">
        <ele>377</ele>
        <time>2026-03-18T10:11:11Z</time>
      </trkpt>
      <trkpt lat="47.18262" lon="5.99152">
        <ele>376</ele>
        <time>2026-03-18T10:11:14Z</time>
      </trkpt>
      <trkpt lat="47.18178" lon="5.99201">
        <ele>378</ele>
        <time>2026-03-18T10:11:30Z</time>
      </trkpt>
      <trkpt lat="47.18097" lon="5.99241">
        <ele>376</ele>
        <time>2026-03-18T10:11:45Z</time>
      </trkpt>
      <trkpt lat="47.1803" lon="5.99276">
        <ele>377</ele>
        <time>2026-03-18T10:11:58Z</time>
      </trkpt>
      <trkpt lat="47.17993" lon="5.99287">
        <ele>379</ele>
        <time>2026-03-18T10:12:04Z</time>
      </trkpt>
      <trkpt lat="47.17979" lon="5.993">
        <ele>380</ele>
        <time>2026-03-18T10:12:07Z</time>
      </trkpt>
      <trkpt lat="47.17937" lon="5.99337">
        <ele>381</ele>
        <time>2026-03-18T10:12:16Z</time>
      </trkpt>
      <trkpt lat="47.17896" lon="5.99388">
        <ele>379</ele>
        <time>2026-03-18T10:12:25Z</time>
      </trkpt>
      <trkpt lat="47.17868" lon="5.99414">
        <ele>375</ele>
        <time>2026-03-18T10:12:31Z</time>
      </trkpt>
      <trkpt lat="47.17843" lon="5.99436">
        <ele>373</ele>
        <time>2026-03-18T10:12:37Z</time>
      </trkpt>
      <trkpt lat="47.17807" lon="5.99459">
        <ele>369</ele>
        <time>2026-03-18T10:12:43Z</time>
      </trkpt>
      <trkpt lat="47.17812" lon="5.99474">
        <ele>369</ele>
        <time>2026-03-18T10:12:46Z</time>
      </trkpt>
      <trkpt lat="47.17807" lon="5.99459">
        <ele>369</ele>
        <time>2026-03-18T10:12:48Z</time>
      </trkpt>
      <trkpt lat="47.17765" lon="5.99489">
        <ele>366</ele>
        <time>2026-03-18T10:12:56Z</time>
      </trkpt>
      <trkpt lat="47.17725" lon="5.99515">
        <ele>364</ele>
        <time>2026-03-18T10:13:04Z</time>
      </trkpt>
      <trkpt lat="47.17597" lon="5.99599">
        <ele>357</ele>
        <time>2026-03-18T10:13:29Z</time>
      </trkpt>
      <trkpt lat="47.17397" lon="5.99729">
        <ele>357</ele>
        <time>2026-03-18T10:14:07Z</time>
      </trkpt>
      <trkpt lat="47.17378" lon="5.99734">
        <ele>359</ele>
        <time>2026-03-18T10:14:11Z</time>
      </trkpt>
      <trkpt lat="47.17358" lon="5.99729">
        <ele>360</ele>
        <time>2026-03-18T10:14:15Z</time>
      </trkpt>
      <trkpt lat="47.17344" lon="5.99721">
        <ele>360</ele>
        <time>2026-03-18T10:14:17Z</time>
      </trkpt>
      <trkpt lat="47.17302" lon="5.99681">
        <ele>362</ele>
        <time>2026-03-18T10:14:26Z</time>
      </trkpt>
      <trkpt lat="47.17252" lon="5.99658">
        <ele>365</ele>
        <time>2026-03-18T10:14:35Z</time>
      </trkpt>
      <trkpt lat="47.17192" lon="5.99671">
        <ele>368</ele>
        <time>2026-03-18T10:14:46Z</time>
      </trkpt>
      <trkpt lat="47.17175" lon="5.99674">
        <ele>369</ele>
        <time>2026-03-18T10:14:49Z</time>
      </trkpt>
      <trkpt lat="47.17135" lon="5.99691">
        <ele>370</ele>
        <time>2026-03-18T10:14:57Z</time>
      </trkpt>
      <trkpt lat="47.17062" lon="5.99721">
        <ele>373</ele>
        <time>2026-03-18T10:15:10Z</time>
      </trkpt>
      <trkpt lat="47.17031" lon="5.99754">
        <ele>376</ele>
        <time>2026-03-18T10:15:17Z</time>
      </trkpt>
      <trkpt lat="47.1701" lon="5.99782">
        <ele>378</ele>
        <time>2026-03-18T10:15:22Z</time>
      </trkpt>
      <trkpt lat="47.16996" lon="5.9981">
        <ele>380</ele>
        <time>2026-03-18T10:15:26Z</time>
      </trkpt>
      <trkpt lat="47.16959" lon="5.99913">
        <ele>385</ele>
        <time>2026-03-18T10:15:40Z</time>
      </trkpt>
      <trkpt lat="47.16946" lon="5.99948">
        <ele>385</ele>
        <time>2026-03-18T10:15:45Z</time>
      </trkpt>
      <trkpt lat="47.16937" lon="5.99962">
        <ele>386</ele>
        <time>2026-03-18T10:15:47Z</time>
      </trkpt>
      <trkpt lat="47.16926" lon="5.9997">
        <ele>387</ele>
        <time>2026-03-18T10:15:50Z</time>
      </trkpt>
      <trkpt lat="47.16908" lon="5.99978">
        <ele>388</ele>
        <time>2026-03-18T10:15:53Z</time>
      </trkpt>
      <trkpt lat="47.16895" lon="5.99978">
        <ele>389</ele>
        <time>2026-03-18T10:15:55Z</time>
      </trkpt>
      <trkpt lat="47.16887" lon="5.99975">
        <ele>389</ele>
        <time>2026-03-18T10:15:57Z</time>
      </trkpt>
      <trkpt lat="47.16873" lon="5.99966">
        <ele>390</ele>
        <time>2026-03-18T10:15:59Z</time>
      </trkpt>
      <trkpt lat="47.16862" lon="5.99954">
        <ele>391</ele>
        <time>2026-03-18T10:16:02Z</time>
      </trkpt>
      <trkpt lat="47.16834" lon="5.99909">
        <ele>393</ele>
        <time>2026-03-18T10:16:09Z</time>
      </trkpt>
      <trkpt lat="47.16815" lon="5.99887">
        <ele>395</ele>
        <time>2026-03-18T10:16:14Z</time>
      </trkpt>
      <trkpt lat="47.16776" lon="5.99848">
        <ele>396</ele>
        <time>2026-03-18T10:16:22Z</time>
      </trkpt>
      <trkpt lat="47.16766" lon="5.99836">
        <ele>396</ele>
        <time>2026-03-18T10:16:24Z</time>
      </trkpt>
      <trkpt lat="47.16752" lon="5.99808">
        <ele>399</ele>
        <time>2026-03-18T10:16:28Z</time>
      </trkpt>
      <trkpt lat="47.16722" lon="5.99827">
        <ele>397</ele>
        <time>2026-03-18T10:16:34Z</time>
      </trkpt>
      <trkpt lat="47.16688" lon="5.99854">
        <ele>398</ele>
        <time>2026-03-18T10:16:41Z</time>
      </trkpt>
      <trkpt lat="47.16652" lon="5.99889">
        <ele>402</ele>
        <time>2026-03-18T10:16:49Z</time>
      </trkpt>
      <trkpt lat="47.16631" lon="5.99912">
        <ele>407</ele>
        <time>2026-03-18T10:16:53Z</time>
      </trkpt>
      <trkpt lat="47.16522" lon="6.00027">
        <ele>419</ele>
        <time>2026-03-18T10:17:17Z</time>
      </trkpt>
      <trkpt lat="47.16504" lon="6.00047">
        <ele>420</ele>
        <time>2026-03-18T10:17:21Z</time>
      </trkpt>
      <trkpt lat="47.16339" lon="6.00279">
        <ele>415</ele>
        <time>2026-03-18T10:18:02Z</time>
      </trkpt>
      <trkpt lat="47.16296" lon="6.00343">
        <ele>413</ele>
        <time>2026-03-18T10:18:13Z</time>
      </trkpt>
      <trkpt lat="47.16248" lon="6.00432">
        <ele>411</ele>
        <time>2026-03-18T10:18:27Z</time>
      </trkpt>
      <trkpt lat="47.16186" lon="6.00536">
        <ele>409</ele>
        <time>2026-03-18T10:18:43Z</time>
      </trkpt>
      <trkpt lat="47.16112" lon="6.00623">
        <ele>407</ele>
        <time>2026-03-18T10:19:00Z</time>
      </trkpt>
      <trkpt lat="47.16053" lon="6.00676">
        <ele>403</ele>
        <time>2026-03-18T10:19:13Z</time>
      </trkpt>
      <trkpt lat="47.15992" lon="6.00718">
        <ele>399</ele>
        <time>2026-03-18T10:19:24Z</time>
      </trkpt>
      <trkpt lat="47.15964" lon="6.00898">
        <ele>404</ele>
        <time>2026-03-18T10:19:47Z</time>
      </trkpt>
      <trkpt lat="47.15949" lon="6.00936">
        <ele>404</ele>
        <time>2026-03-18T10:19:52Z</time>
      </trkpt>
      <trkpt lat="47.15805" lon="6.0109">
        <ele>412</ele>
        <time>2026-03-18T10:20:24Z</time>
      </trkpt>
      <trkpt lat="47.15793" lon="6.01114">
        <ele>413</ele>
        <time>2026-03-18T10:20:27Z</time>
      </trkpt>
      <trkpt lat="47.15788" lon="6.01141">
        <ele>414</ele>
        <time>2026-03-18T10:20:31Z</time>
      </trkpt>
      <trkpt lat="47.15785" lon="6.01236">
        <ele>418</ele>
        <time>2026-03-18T10:20:42Z</time>
      </trkpt>
      <trkpt lat="47.1578" lon="6.01383">
        <ele>421</ele>
        <time>2026-03-18T10:21:00Z</time>
      </trkpt>
      <trkpt lat="47.15782" lon="6.01427">
        <ele>422</ele>
        <time>2026-03-18T10:21:05Z</time>
      </trkpt>
      <trkpt lat="47.15786" lon="6.01462">
        <ele>422</ele>
        <time>2026-03-18T10:21:10Z</time>
      </trkpt>
      <trkpt lat="47.15801" lon="6.01551">
        <ele>425</ele>
        <time>2026-03-18T10:21:21Z</time>
      </trkpt>
      <trkpt lat="47.15803" lon="6.01591">
        <ele>427</ele>
        <time>2026-03-18T10:21:26Z</time>
      </trkpt>
      <trkpt lat="47.158" lon="6.01618">
        <ele>429</ele>
        <time>2026-03-18T10:21:29Z</time>
      </trkpt>
      <trkpt lat="47.15727" lon="6.02049">
        <ele>437</ele>
        <time>2026-03-18T10:22:23Z</time>
      </trkpt>
      <trkpt lat="47.15709" lon="6.02335">
        <ele>430</ele>
        <time>2026-03-18T10:22:58Z</time>
      </trkpt>
      <trkpt lat="47.15694" lon="6.02495">
        <ele>430</ele>
        <time>2026-03-18T10:23:17Z</time>
      </trkpt>
      <trkpt lat="47.15668" lon="6.02631">
        <ele>434</ele>
        <time>2026-03-18T10:23:34Z</time>
      </trkpt>
      <trkpt lat="47.15642" lon="6.02738">
        <ele>436</ele>
        <time>2026-03-18T10:23:48Z</time>
      </trkpt>
      <trkpt lat="47.15596" lon="6.02932">
        <ele>439</ele>
        <time>2026-03-18T10:24:13Z</time>
      </trkpt>
      <trkpt lat="47.15586" lon="6.0296">
        <ele>440</ele>
        <time>2026-03-18T10:24:17Z</time>
      </trkpt>
      <trkpt lat="47.15576" lon="6.02981">
        <ele>441</ele>
        <time>2026-03-18T10:24:20Z</time>
      </trkpt>
      <trkpt lat="47.15536" lon="6.03044">
        <ele>442</ele>
        <time>2026-03-18T10:24:30Z</time>
      </trkpt>
      <trkpt lat="47.1544" lon="6.03187">
        <ele>444</ele>
        <time>2026-03-18T10:24:54Z</time>
      </trkpt>
      <trkpt lat="47.15368" lon="6.03282">
        <ele>443</ele>
        <time>2026-03-18T10:25:12Z</time>
      </trkpt>
      <trkpt lat="47.15347" lon="6.03306">
        <ele>442</ele>
        <time>2026-03-18T10:25:16Z</time>
      </trkpt>
      <trkpt lat="47.15283" lon="6.03371">
        <ele>440</ele>
        <time>2026-03-18T10:25:30Z</time>
      </trkpt>
      <trkpt lat="47.15267" lon="6.03391">
        <ele>439</ele>
        <time>2026-03-18T10:25:34Z</time>
      </trkpt>
      <trkpt lat="47.15255" lon="6.03415">
        <ele>439</ele>
        <time>2026-03-18T10:25:38Z</time>
      </trkpt>
      <trkpt lat="47.15243" lon="6.03464">
        <ele>440</ele>
        <time>2026-03-18T10:25:44Z</time>
      </trkpt>
      <trkpt lat="47.15231" lon="6.03501">
        <ele>441</ele>
        <time>2026-03-18T10:25:49Z</time>
      </trkpt>
      <trkpt lat="47.15218" lon="6.0353">
        <ele>441</ele>
        <time>2026-03-18T10:25:53Z</time>
      </trkpt>
      <trkpt lat="47.15161" lon="6.03592">
        <ele>440</ele>
        <time>2026-03-18T10:26:06Z</time>
      </trkpt>
      <trkpt lat="47.15128" lon="6.03652">
        <ele>441</ele>
        <time>2026-03-18T10:26:15Z</time>
      </trkpt>
      <trkpt lat="47.15123" lon="6.03676">
        <ele>442</ele>
        <time>2026-03-18T10:26:18Z</time>
      </trkpt>
      <trkpt lat="47.15121" lon="6.03703">
        <ele>441</ele>
        <time>2026-03-18T10:26:21Z</time>
      </trkpt>
      <trkpt lat="47.15121" lon="6.03726">
        <ele>441</ele>
        <time>2026-03-18T10:26:24Z</time>
      </trkpt>
      <trkpt lat="47.15125" lon="6.03849">
        <ele>442</ele>
        <time>2026-03-18T10:26:39Z</time>
      </trkpt>
      <trkpt lat="47.15121" lon="6.03992">
        <ele>444</ele>
        <time>2026-03-18T10:26:56Z</time>
      </trkpt>
      <trkpt lat="47.15119" lon="6.03999">
        <ele>445</ele>
        <time>2026-03-18T10:26:57Z</time>
      </trkpt>
      <trkpt lat="47.15112" lon="6.04033">
        <ele>446</ele>
        <time>2026-03-18T10:27:02Z</time>
      </trkpt>
      <trkpt lat="47.15072" lon="6.04175">
        <ele>449</ele>
        <time>2026-03-18T10:27:20Z</time>
      </trkpt>
      <trkpt lat="47.1504" lon="6.04251">
        <ele>449</ele>
        <time>2026-03-18T10:27:31Z</time>
      </trkpt>
      <trkpt lat="47.15034" lon="6.04313">
        <ele>448</ele>
        <time>2026-03-18T10:27:38Z</time>
      </trkpt>
      <trkpt lat="47.15032" lon="6.04326">
        <ele>448</ele>
        <time>2026-03-18T10:27:40Z</time>
      </trkpt>
      <trkpt lat="47.15028" lon="6.04339">
        <ele>448</ele>
        <time>2026-03-18T10:27:42Z</time>
      </trkpt>
      <trkpt lat="47.15018" lon="6.04358">
        <ele>448</ele>
        <time>2026-03-18T10:27:45Z</time>
      </trkpt>
      <trkpt lat="47.14974" lon="6.04422">
        <ele>449</ele>
        <time>2026-03-18T10:27:56Z</time>
      </trkpt>
      <trkpt lat="47.14946" lon="6.04457">
        <ele>451</ele>
        <time>2026-03-18T10:28:02Z</time>
      </trkpt>
      <trkpt lat="47.14918" lon="6.04479">
        <ele>452</ele>
        <time>2026-03-18T10:28:08Z</time>
      </trkpt>
      <trkpt lat="47.14867" lon="6.04519">
        <ele>453</ele>
        <time>2026-03-18T10:28:18Z</time>
      </trkpt>
      <trkpt lat="47.14837" lon="6.0456">
        <ele>455</ele>
        <time>2026-03-18T10:28:26Z</time>
      </trkpt>
      <trkpt lat="47.14791" lon="6.04624">
        <ele>455</ele>
        <time>2026-03-18T10:28:37Z</time>
      </trkpt>
      <trkpt lat="47.14769" lon="6.04648">
        <ele>455</ele>
        <time>2026-03-18T10:28:42Z</time>
      </trkpt>
      <trkpt lat="47.14763" lon="6.04651">
        <ele>454</ele>
        <time>2026-03-18T10:28:43Z</time>
      </trkpt>
      <trkpt lat="47.14747" lon="6.04658">
        <ele>454</ele>
        <time>2026-03-18T10:28:46Z</time>
      </trkpt>
      <trkpt lat="47.14631" lon="6.04676">
        <ele>457</ele>
        <time>2026-03-18T10:29:07Z</time>
      </trkpt>
      <trkpt lat="47.14483" lon="6.04701">
        <ele>457</ele>
        <time>2026-03-18T10:29:33Z</time>
      </trkpt>
      <trkpt lat="47.14468" lon="6.04705">
        <ele>457</ele>
        <time>2026-03-18T10:29:36Z</time>
      </trkpt>
      <trkpt lat="47.1446" lon="6.04707">
        <ele>457</ele>
        <time>2026-03-18T10:29:37Z</time>
      </trkpt>
      <trkpt lat="47.14456" lon="6.0471">
        <ele>457</ele>
        <time>2026-03-18T10:29:38Z</time>
      </trkpt>
      <trkpt lat="47.14453" lon="6.04714">
        <ele>457</ele>
        <time>2026-03-18T10:29:39Z</time>
      </trkpt>
      <trkpt lat="47.14433" lon="6.04706">
        <ele>457</ele>
        <time>2026-03-18T10:29:42Z</time>
      </trkpt>
      <trkpt lat="47.14403" lon="6.04699">
        <ele>457</ele>
        <time>2026-03-18T10:29:48Z</time>
      </trkpt>
      <trkpt lat="47.14333" lon="6.04705">
        <ele>456</ele>
        <time>2026-03-18T10:30:00Z</time>
      </trkpt>
      <trkpt lat="47.14324" lon="6.04706">
        <ele>456</ele>
        <time>2026-03-18T10:30:02Z</time>
      </trkpt>
      <trkpt lat="47.14319" lon="6.04705">
        <ele>456</ele>
        <time>2026-03-18T10:30:03Z</time>
      </trkpt>
      <trkpt lat="47.14296" lon="6.04695">
        <ele>456</ele>
        <time>2026-03-18T10:30:07Z</time>
      </trkpt>
      <trkpt lat="47.1428" lon="6.04689">
        <ele>456</ele>
        <time>2026-03-18T10:30:10Z</time>
      </trkpt>
      <trkpt lat="47.14233" lon="6.04669">
        <ele>455</ele>
        <time>2026-03-18T10:30:19Z</time>
      </trkpt>
      <trkpt lat="47.14224" lon="6.0467">
        <ele>455</ele>
        <time>2026-03-18T10:30:20Z</time>
      </trkpt>
      <trkpt lat="47.1421" lon="6.04676">
        <ele>455</ele>
        <time>2026-03-18T10:30:23Z</time>
      </trkpt>
      <trkpt lat="47.14194" lon="6.04686">
        <ele>454</ele>
        <time>2026-03-18T10:30:26Z</time>
      </trkpt>
      <trkpt lat="47.14161" lon="6.04708">
        <ele>453</ele>
        <time>2026-03-18T10:30:32Z</time>
      </trkpt>
      <trkpt lat="47.14139" lon="6.04725">
        <ele>452</ele>
        <time>2026-03-18T10:30:37Z</time>
      </trkpt>
      <trkpt lat="47.14128" lon="6.0473">
        <ele>452</ele>
        <time>2026-03-18T10:30:39Z</time>
      </trkpt>
      <trkpt lat="47.14126" lon="6.04741">
        <ele>452</ele>
        <time>2026-03-18T10:30:40Z</time>
      </trkpt>
      <trkpt lat="47.14119" lon="6.04754">
        <ele>451</ele>
        <time>2026-03-18T10:30:42Z</time>
      </trkpt>
      <trkpt lat="47.14088" lon="6.0479">
        <ele>450</ele>
        <time>2026-03-18T10:30:49Z</time>
      </trkpt>
      <trkpt lat="47.14067" lon="6.04806">
        <ele>449</ele>
        <time>2026-03-18T10:30:54Z</time>
      </trkpt>
      <trkpt lat="47.14032" lon="6.04834">
        <ele>450</ele>
        <time>2026-03-18T10:31:01Z</time>
      </trkpt>
      <trkpt lat="47.13983" lon="6.04873">
        <ele>450</ele>
        <time>2026-03-18T10:31:11Z</time>
      </trkpt>
      <trkpt lat="47.13977" lon="6.04878">
        <ele>450</ele>
        <time>2026-03-18T10:31:12Z</time>
      </trkpt>
      <trkpt lat="47.13966" lon="6.04887">
        <ele>450</ele>
        <time>2026-03-18T10:31:14Z</time>
      </trkpt>
      <trkpt lat="47.13888" lon="6.04952">
        <ele>447</ele>
        <time>2026-03-18T10:31:30Z</time>
      </trkpt>
      <trkpt lat="47.13711" lon="6.05091">
        <ele>445</ele>
        <time>2026-03-18T10:32:06Z</time>
      </trkpt>
      <trkpt lat="47.13694" lon="6.05105">
        <ele>445</ele>
        <time>2026-03-18T10:32:09Z</time>
      </trkpt>
      <trkpt lat="47.13508" lon="6.05257">
        <ele>449</ele>
        <time>2026-03-18T10:32:47Z</time>
      </trkpt>
      <trkpt lat="47.13331" lon="6.05402">
        <ele>456</ele>
        <time>2026-03-18T10:33:23Z</time>
      </trkpt>
      <trkpt lat="47.13312" lon="6.05419">
        <ele>456</ele>
        <time>2026-03-18T10:33:27Z</time>
      </trkpt>
      <trkpt lat="47.1329" lon="6.05444">
        <ele>455</ele>
        <time>2026-03-18T10:33:32Z</time>
      </trkpt>
      <trkpt lat="47.13194" lon="6.0556">
        <ele>451</ele>
        <time>2026-03-18T10:33:54Z</time>
      </trkpt>
      <trkpt lat="47.13176" lon="6.05582">
        <ele>451</ele>
        <time>2026-03-18T10:33:58Z</time>
      </trkpt>
      <trkpt lat="47.13166" lon="6.05599">
        <ele>451</ele>
        <time>2026-03-18T10:34:01Z</time>
      </trkpt>
      <trkpt lat="47.13162" lon="6.05608">
        <ele>451</ele>
        <time>2026-03-18T10:34:02Z</time>
      </trkpt>
      <trkpt lat="47.13158" lon="6.05632">
        <ele>452</ele>
        <time>2026-03-18T10:34:05Z</time>
      </trkpt>
      <trkpt lat="47.13157" lon="6.0565">
        <ele>452</ele>
        <time>2026-03-18T10:34:07Z</time>
      </trkpt>
      <trkpt lat="47.13189" lon="6.05912">
        <ele>458</ele>
        <time>2026-03-18T10:34:40Z</time>
      </trkpt>
      <trkpt lat="47.13195" lon="6.05978">
        <ele>458</ele>
        <time>2026-03-18T10:34:48Z</time>
      </trkpt>
      <trkpt lat="47.13193" lon="6.05994">
        <ele>458</ele>
        <time>2026-03-18T10:34:50Z</time>
      </trkpt>
      <trkpt lat="47.13188" lon="6.06006">
        <ele>459</ele>
        <time>2026-03-18T10:34:51Z</time>
      </trkpt>
      <trkpt lat="47.13175" lon="6.06028">
        <ele>460</ele>
        <time>2026-03-18T10:34:55Z</time>
      </trkpt>
      <trkpt lat="47.13032" lon="6.06188">
        <ele>469</ele>
        <time>2026-03-18T10:35:27Z</time>
      </trkpt>
      <trkpt lat="47.13024" lon="6.06204">
        <ele>470</ele>
        <time>2026-03-18T10:35:29Z</time>
      </trkpt>
      <trkpt lat="47.13022" lon="6.06221">
        <ele>470</ele>
        <time>2026-03-18T10:35:31Z</time>
      </trkpt>
      <trkpt lat="47.13022" lon="6.06237">
        <ele>471</ele>
        <time>2026-03-18T10:35:33Z</time>
      </trkpt>
      <trkpt lat="47.13029" lon="6.06511">
        <ele>483</ele>
        <time>2026-03-18T10:36:06Z</time>
      </trkpt>
      <trkpt lat="47.13034" lon="6.06569">
        <ele>487</ele>
        <time>2026-03-18T10:36:14Z</time>
      </trkpt>
      <trkpt lat="47.13038" lon="6.06627">
        <ele>489</ele>
        <time>2026-03-18T10:36:21Z</time>
      </trkpt>
      <trkpt lat="47.13049" lon="6.06695">
        <ele>490</ele>
        <time>2026-03-18T10:36:29Z</time>
      </trkpt>
      <trkpt lat="47.13064" lon="6.06764">
        <ele>490</ele>
        <time>2026-03-18T10:36:38Z</time>
      </trkpt>
      <trkpt lat="47.13073" lon="6.06805">
        <ele>492</ele>
        <time>2026-03-18T10:36:43Z</time>
      </trkpt>
      <trkpt lat="47.13085" lon="6.06844">
        <ele>494</ele>
        <time>2026-03-18T10:36:48Z</time>
      </trkpt>
      <trkpt lat="47.13152" lon="6.06996">
        <ele>510</ele>
        <time>2026-03-18T10:37:10Z</time>
      </trkpt>
      <trkpt lat="47.13153" lon="6.07007">
        <ele>511</ele>
        <time>2026-03-18T10:37:12Z</time>
      </trkpt>
      <trkpt lat="47.1315" lon="6.07017">
        <ele>512</ele>
        <time>2026-03-18T10:37:13Z</time>
      </trkpt>
      <trkpt lat="47.13147" lon="6.07026">
        <ele>512</ele>
        <time>2026-03-18T10:37:14Z</time>
      </trkpt>
      <trkpt lat="47.13142" lon="6.07031">
        <ele>513</ele>
        <time>2026-03-18T10:37:15Z</time>
      </trkpt>
      <trkpt lat="47.13123" lon="6.07032">
        <ele>513</ele>
        <time>2026-03-18T10:37:19Z</time>
      </trkpt>
      <trkpt lat="47.12992" lon="6.07006">
        <ele>516</ele>
        <time>2026-03-18T10:37:42Z</time>
      </trkpt>
      <trkpt lat="47.12861" lon="6.06983">
        <ele>520</ele>
        <time>2026-03-18T10:38:06Z</time>
      </trkpt>
      <trkpt lat="47.12848" lon="6.06978">
        <ele>520</ele>
        <time>2026-03-18T10:38:08Z</time>
      </trkpt>
      <trkpt lat="47.12834" lon="6.06972">
        <ele>520</ele>
        <time>2026-03-18T10:38:10Z</time>
      </trkpt>
      <trkpt lat="47.1282" lon="6.06964">
        <ele>521</ele>
        <time>2026-03-18T10:38:13Z</time>
      </trkpt>
      <trkpt lat="47.12786" lon="6.06935">
        <ele>522</ele>
        <time>2026-03-18T10:38:20Z</time>
      </trkpt>
      <trkpt lat="47.12769" lon="6.06923">
        <ele>523</ele>
        <time>2026-03-18T10:38:24Z</time>
      </trkpt>
      <trkpt lat="47.12759" lon="6.0692">
        <ele>524</ele>
        <time>2026-03-18T10:38:25Z</time>
      </trkpt>
      <trkpt lat="47.12729" lon="6.0692">
        <ele>526</ele>
        <time>2026-03-18T10:38:31Z</time>
      </trkpt>
      <trkpt lat="47.12711" lon="6.06924">
        <ele>528</ele>
        <time>2026-03-18T10:38:34Z</time>
      </trkpt>
      <trkpt lat="47.12691" lon="6.06924">
        <ele>529</ele>
        <time>2026-03-18T10:38:37Z</time>
      </trkpt>
      <trkpt lat="47.12662" lon="6.06929">
        <ele>532</ele>
        <time>2026-03-18T10:38:43Z</time>
      </trkpt>
      <trkpt lat="47.12625" lon="6.06939">
        <ele>533</ele>
        <time>2026-03-18T10:38:49Z</time>
      </trkpt>
      <trkpt lat="47.12612" lon="6.06945">
        <ele>534</ele>
        <time>2026-03-18T10:38:52Z</time>
      </trkpt>
      <trkpt lat="47.12596" lon="6.06957">
        <ele>536</ele>
        <time>2026-03-18T10:38:55Z</time>
      </trkpt>
      <trkpt lat="47.12591" lon="6.06961">
        <ele>536</ele>
        <time>2026-03-18T10:38:56Z</time>
      </trkpt>
      <trkpt lat="47.12585" lon="6.06967">
        <ele>537</ele>
        <time>2026-03-18T10:38:57Z</time>
      </trkpt>
      <trkpt lat="47.12571" lon="6.06986">
        <ele>539</ele>
        <time>2026-03-18T10:39:01Z</time>
      </trkpt>
      <trkpt lat="47.12544" lon="6.07027">
        <ele>544</ele>
        <time>2026-03-18T10:39:08Z</time>
      </trkpt>
      <trkpt lat="47.12473" lon="6.07126">
        <ele>546</ele>
        <time>2026-03-18T10:39:25Z</time>
      </trkpt>
      <trkpt lat="47.12463" lon="6.07134">
        <ele>546</ele>
        <time>2026-03-18T10:39:27Z</time>
      </trkpt>
      <trkpt lat="47.12452" lon="6.07137">
        <ele>545</ele>
        <time>2026-03-18T10:39:29Z</time>
      </trkpt>
      <trkpt lat="47.12421" lon="6.0714">
        <ele>544</ele>
        <time>2026-03-18T10:39:35Z</time>
      </trkpt>
      <trkpt lat="47.12408" lon="6.07141">
        <ele>544</ele>
        <time>2026-03-18T10:39:37Z</time>
      </trkpt>
      <trkpt lat="47.12393" lon="6.07146">
        <ele>544</ele>
        <time>2026-03-18T10:39:40Z</time>
      </trkpt>
      <trkpt lat="47.12379" lon="6.07158">
        <ele>544</ele>
        <time>2026-03-18T10:39:42Z</time>
      </trkpt>
      <trkpt lat="47.1237" lon="6.07172">
        <ele>545</ele>
        <time>2026-03-18T10:39:45Z</time>
      </trkpt>
      <trkpt lat="47.12363" lon="6.07186">
        <ele>545</ele>
        <time>2026-03-18T10:39:47Z</time>
      </trkpt>
      <trkpt lat="47.12361" lon="6.07201">
        <ele>544</ele>
        <time>2026-03-18T10:39:49Z</time>
      </trkpt>
      <trkpt lat="47.1236" lon="6.07224">
        <ele>544</ele>
        <time>2026-03-18T10:39:52Z</time>
      </trkpt>
      <trkpt lat="47.12365" lon="6.07261">
        <ele>544</ele>
        <time>2026-03-18T10:39:56Z</time>
      </trkpt>
      <trkpt lat="47.12371" lon="6.07318">
        <ele>543</ele>
        <time>2026-03-18T10:40:03Z</time>
      </trkpt>
      <trkpt lat="47.12371" lon="6.07333">
        <ele>542</ele>
        <time>2026-03-18T10:40:05Z</time>
      </trkpt>
      <trkpt lat="47.12366" lon="6.07381">
        <ele>540</ele>
        <time>2026-03-18T10:40:11Z</time>
      </trkpt>
      <trkpt lat="47.12361" lon="6.07413">
        <ele>539</ele>
        <time>2026-03-18T10:40:15Z</time>
      </trkpt>
      <trkpt lat="47.12353" lon="6.0744">
        <ele>539</ele>
        <time>2026-03-18T10:40:18Z</time>
      </trkpt>
      <trkpt lat="47.12353" lon="6.07444">
        <ele>539</ele>
        <time>2026-03-18T10:40:19Z</time>
      </trkpt>
      <trkpt lat="47.12319" lon="6.07567">
        <ele>539</ele>
        <time>2026-03-18T10:40:35Z</time>
      </trkpt>
      <trkpt lat="47.12319" lon="6.07587">
        <ele>540</ele>
        <time>2026-03-18T10:40:37Z</time>
      </trkpt>
      <trkpt lat="47.12326" lon="6.0762">
        <ele>542</ele>
        <time>2026-03-18T10:40:41Z</time>
      </trkpt>
      <trkpt lat="47.1233" lon="6.07649">
        <ele>543</ele>
        <time>2026-03-18T10:40:45Z</time>
      </trkpt>
      <trkpt lat="47.12329" lon="6.0767">
        <ele>544</ele>
        <time>2026-03-18T10:40:48Z</time>
      </trkpt>
      <trkpt lat="47.12323" lon="6.0769">
        <ele>544</ele>
        <time>2026-03-18T10:40:50Z</time>
      </trkpt>
      <trkpt lat="47.12314" lon="6.07711">
        <ele>545</ele>
        <time>2026-03-18T10:40:53Z</time>
      </trkpt>
      <trkpt lat="47.12293" lon="6.07748">
        <ele>545</ele>
        <time>2026-03-18T10:40:59Z</time>
      </trkpt>
      <trkpt lat="47.12267" lon="6.07782">
        <ele>545</ele>
        <time>2026-03-18T10:41:05Z</time>
      </trkpt>
      <trkpt lat="47.12236" lon="6.07829">
        <ele>544</ele>
        <time>2026-03-18T10:41:13Z</time>
      </trkpt>
      <trkpt lat="47.12222" lon="6.07864">
        <ele>546</ele>
        <time>2026-03-18T10:41:18Z</time>
      </trkpt>
      <trkpt lat="47.12214" lon="6.07897">
        <ele>547</ele>
        <time>2026-03-18T10:41:22Z</time>
      </trkpt>
      <trkpt lat="47.12207" lon="6.07916">
        <ele>548</ele>
        <time>2026-03-18T10:41:25Z</time>
      </trkpt>
      <trkpt lat="47.12203" lon="6.07926">
        <ele>548</ele>
        <time>2026-03-18T10:41:26Z</time>
      </trkpt>
      <trkpt lat="47.12187" lon="6.07945">
        <ele>546</ele>
        <time>2026-03-18T10:41:30Z</time>
      </trkpt>
      <trkpt lat="47.12182" lon="6.07953">
        <ele>546</ele>
        <time>2026-03-18T10:41:31Z</time>
      </trkpt>
      <trkpt lat="47.12168" lon="6.07985">
        <ele>545</ele>
        <time>2026-03-18T10:41:36Z</time>
      </trkpt>
      <trkpt lat="47.12166" lon="6.07955">
        <ele>543</ele>
        <time>2026-03-18T10:41:40Z</time>
      </trkpt>
      <trkpt lat="47.12163" lon="6.07901">
        <ele>541</ele>
        <time>2026-03-18T10:41:46Z</time>
      </trkpt>
      <trkpt lat="47.12158" lon="6.07827">
        <ele>536</ele>
        <time>2026-03-18T10:41:55Z</time>
      </trkpt>
      <trkpt lat="47.12158" lon="6.07776">
        <ele>532</ele>
        <time>2026-03-18T10:42:01Z</time>
      </trkpt>
      <trkpt lat="47.12163" lon="6.07709">
        <ele>530</ele>
        <time>2026-03-18T10:42:10Z</time>
      </trkpt>
      <trkpt lat="47.12163" lon="6.07687">
        <ele>529</ele>
        <time>2026-03-18T10:42:12Z</time>
      </trkpt>
      <trkpt lat="47.1216" lon="6.07656">
        <ele>529</ele>
        <time>2026-03-18T10:42:16Z</time>
      </trkpt>
      <trkpt lat="47.12139" lon="6.07592">
        <ele>527</ele>
        <time>2026-03-18T10:42:25Z</time>
      </trkpt>
      <trkpt lat="47.12132" lon="6.07574">
        <ele>527</ele>
        <time>2026-03-18T10:42:27Z</time>
      </trkpt>
      <trkpt lat="47.12091" lon="6.07493">
        <ele>524</ele>
        <time>2026-03-18T10:42:39Z</time>
      </trkpt>
      <trkpt lat="47.12088" lon="6.07482">
        <ele>524</ele>
        <time>2026-03-18T10:42:41Z</time>
      </trkpt>
      <trkpt lat="47.12086" lon="6.07467">
        <ele>524</ele>
        <time>2026-03-18T10:42:43Z</time>
      </trkpt>
      <trkpt lat="47.1208" lon="6.07388">
        <ele>523</ele>
        <time>2026-03-18T10:42:52Z</time>
      </trkpt>
      <trkpt lat="47.12077" lon="6.07344">
        <ele>524</ele>
        <time>2026-03-18T10:42:58Z</time>
      </trkpt>
      <trkpt lat="47.12076" lon="6.07322">
        <ele>525</ele>
        <time>2026-03-18T10:43:00Z</time>
      </trkpt>
      <trkpt lat="47.12071" lon="6.07303">
        <ele>526</ele>
        <time>2026-03-18T10:43:03Z</time>
      </trkpt>
      <trkpt lat="47.12064" lon="6.07284">
        <ele>527</ele>
        <time>2026-03-18T10:43:05Z</time>
      </trkpt>
      <trkpt lat="47.12033" lon="6.07224">
        <ele>527</ele>
        <time>2026-03-18T10:43:14Z</time>
      </trkpt>
      <trkpt lat="47.12013" lon="6.07179">
        <ele>527</ele>
        <time>2026-03-18T10:43:21Z</time>
      </trkpt>
      <trkpt lat="47.12" lon="6.07135">
        <ele>526</ele>
        <time>2026-03-18T10:43:27Z</time>
      </trkpt>
      <trkpt lat="47.11986" lon="6.07068">
        <ele>524</ele>
        <time>2026-03-18T10:43:35Z</time>
      </trkpt>
      <trkpt lat="47.11953" lon="6.06985">
        <ele>521</ele>
        <time>2026-03-18T10:43:47Z</time>
      </trkpt>
      <trkpt lat="47.11912" lon="6.06862">
        <ele>520</ele>
        <time>2026-03-18T10:44:03Z</time>
      </trkpt>
      <trkpt lat="47.119" lon="6.06835">
        <ele>520</ele>
        <time>2026-03-18T10:44:07Z</time>
      </trkpt>
      <trkpt lat="47.11829" lon="6.06709">
        <ele>515</ele>
        <time>2026-03-18T10:44:27Z</time>
      </trkpt>
      <trkpt lat="47.11763" lon="6.06579">
        <ele>512</ele>
        <time>2026-03-18T10:44:47Z</time>
      </trkpt>
      <trkpt lat="47.11702" lon="6.06495">
        <ele>508</ele>
        <time>2026-03-18T10:45:02Z</time>
      </trkpt>
      <trkpt lat="47.11682" lon="6.06472">
        <ele>505</ele>
        <time>2026-03-18T10:45:06Z</time>
      </trkpt>
      <trkpt lat="47.11622" lon="6.06413">
        <ele>499</ele>
        <time>2026-03-18T10:45:19Z</time>
      </trkpt>
      <trkpt lat="47.11603" lon="6.0639">
        <ele>498</ele>
        <time>2026-03-18T10:45:23Z</time>
      </trkpt>
      <trkpt lat="47.11574" lon="6.06352">
        <ele>497</ele>
        <time>2026-03-18T10:45:30Z</time>
      </trkpt>
      <trkpt lat="47.11549" lon="6.06307">
        <ele>496</ele>
        <time>2026-03-18T10:45:37Z</time>
      </trkpt>
      <trkpt lat="47.1152" lon="6.0625">
        <ele>494</ele>
        <time>2026-03-18T10:45:46Z</time>
      </trkpt>
      <trkpt lat="47.11476" lon="6.06134">
        <ele>492</ele>
        <time>2026-03-18T10:46:02Z</time>
      </trkpt>
      <trkpt lat="47.11472" lon="6.06125">
        <ele>491</ele>
        <time>2026-03-18T10:46:03Z</time>
      </trkpt>
      <trkpt lat="47.11468" lon="6.06118">
        <ele>491</ele>
        <time>2026-03-18T10:46:05Z</time>
      </trkpt>
      <trkpt lat="47.1146" lon="6.06115">
        <ele>491</ele>
        <time>2026-03-18T10:46:06Z</time>
      </trkpt>
      <trkpt lat="47.1145" lon="6.06114">
        <ele>490</ele>
        <time>2026-03-18T10:46:08Z</time>
      </trkpt>
      <trkpt lat="47.11381" lon="6.06122">
        <ele>489</ele>
        <time>2026-03-18T10:46:20Z</time>
      </trkpt>
      <trkpt lat="47.11311" lon="6.06132">
        <ele>489</ele>
        <time>2026-03-18T10:46:33Z</time>
      </trkpt>
      <trkpt lat="47.11176" lon="6.0615">
        <ele>493</ele>
        <time>2026-03-18T10:46:57Z</time>
      </trkpt>
      <trkpt lat="47.11146" lon="6.06149">
        <ele>495</ele>
        <time>2026-03-18T10:47:02Z</time>
      </trkpt>
      <trkpt lat="47.11114" lon="6.06138">
        <ele>497</ele>
        <time>2026-03-18T10:47:08Z</time>
      </trkpt>
      <trkpt lat="47.1109" lon="6.06118">
        <ele>498</ele>
        <time>2026-03-18T10:47:13Z</time>
      </trkpt>
      <trkpt lat="47.1107" lon="6.06097">
        <ele>496</ele>
        <time>2026-03-18T10:47:17Z</time>
      </trkpt>
      <trkpt lat="47.11012" lon="6.0598">
        <ele>493</ele>
        <time>2026-03-18T10:47:35Z</time>
      </trkpt>
      <trkpt lat="47.10985" lon="6.05935">
        <ele>493</ele>
        <time>2026-03-18T10:47:42Z</time>
      </trkpt>
      <trkpt lat="47.10947" lon="6.0589">
        <ele>492</ele>
        <time>2026-03-18T10:47:51Z</time>
      </trkpt>
      <trkpt lat="47.10901" lon="6.05847">
        <ele>490</ele>
        <time>2026-03-18T10:48:00Z</time>
      </trkpt>
      <trkpt lat="47.10857" lon="6.05793">
        <ele>489</ele>
        <time>2026-03-18T10:48:11Z</time>
      </trkpt>
      <trkpt lat="47.10805" lon="6.05743">
        <ele>487</ele>
        <time>2026-03-18T10:48:22Z</time>
      </trkpt>
      <trkpt lat="47.10783" lon="6.05713">
        <ele>486</ele>
        <time>2026-03-18T10:48:27Z</time>
      </trkpt>
      <trkpt lat="47.10756" lon="6.05666">
        <ele>487</ele>
        <time>2026-03-18T10:48:34Z</time>
      </trkpt>
      <trkpt lat="47.10741" lon="6.05644">
        <ele>486</ele>
        <time>2026-03-18T10:48:38Z</time>
      </trkpt>
      <trkpt lat="47.10732" lon="6.05633">
        <ele>486</ele>
        <time>2026-03-18T10:48:40Z</time>
      </trkpt>
      <trkpt lat="47.10683" lon="6.0559">
        <ele>486</ele>
        <time>2026-03-18T10:48:50Z</time>
      </trkpt>
      <trkpt lat="47.10673" lon="6.05579">
        <ele>486</ele>
        <time>2026-03-18T10:48:53Z</time>
      </trkpt>
      <trkpt lat="47.10656" lon="6.05553">
        <ele>484</ele>
        <time>2026-03-18T10:48:57Z</time>
      </trkpt>
      <trkpt lat="47.10638" lon="6.05516">
        <ele>483</ele>
        <time>2026-03-18T10:49:03Z</time>
      </trkpt>
      <trkpt lat="47.10622" lon="6.05469">
        <ele>480</ele>
        <time>2026-03-18T10:49:09Z</time>
      </trkpt>
      <trkpt lat="47.10571" lon="6.05256">
        <ele>472</ele>
        <time>2026-03-18T10:49:36Z</time>
      </trkpt>
      <trkpt lat="47.10556" lon="6.052">
        <ele>473</ele>
        <time>2026-03-18T10:49:44Z</time>
      </trkpt>
      <trkpt lat="47.10549" lon="6.05185">
        <ele>472</ele>
        <time>2026-03-18T10:49:46Z</time>
      </trkpt>
      <trkpt lat="47.10543" lon="6.05174">
        <ele>472</ele>
        <time>2026-03-18T10:49:47Z</time>
      </trkpt>
      <trkpt lat="47.10526" lon="6.05158">
        <ele>470</ele>
        <time>2026-03-18T10:49:51Z</time>
      </trkpt>
      <trkpt lat="47.10514" lon="6.05153">
        <ele>469</ele>
        <time>2026-03-18T10:49:53Z</time>
      </trkpt>
      <trkpt lat="47.10497" lon="6.05151">
        <ele>467</ele>
        <time>2026-03-18T10:49:56Z</time>
      </trkpt>
      <trkpt lat="47.10472" lon="6.05157">
        <ele>463</ele>
        <time>2026-03-18T10:50:01Z</time>
      </trkpt>
      <trkpt lat="47.10415" lon="6.05178">
        <ele>457</ele>
        <time>2026-03-18T10:50:11Z</time>
      </trkpt>
      <trkpt lat="47.10386" lon="6.05184">
        <ele>456</ele>
        <time>2026-03-18T10:50:16Z</time>
      </trkpt>
      <trkpt lat="47.10345" lon="6.05184">
        <ele>455</ele>
        <time>2026-03-18T10:50:24Z</time>
      </trkpt>
      <trkpt lat="47.1031" lon="6.05176">
        <ele>455</ele>
        <time>2026-03-18T10:50:30Z</time>
      </trkpt>
      <trkpt lat="47.10226" lon="6.05153">
        <ele>453</ele>
        <time>2026-03-18T10:50:45Z</time>
      </trkpt>
      <trkpt lat="47.10197" lon="6.05146">
        <ele>450</ele>
        <time>2026-03-18T10:50:50Z</time>
      </trkpt>
      <trkpt lat="47.10187" lon="6.05147">
        <ele>450</ele>
        <time>2026-03-18T10:50:52Z</time>
      </trkpt>
      <trkpt lat="47.10179" lon="6.0515">
        <ele>450</ele>
        <time>2026-03-18T10:50:54Z</time>
      </trkpt>
      <trkpt lat="47.10167" lon="6.05157">
        <ele>451</ele>
        <time>2026-03-18T10:50:56Z</time>
      </trkpt>
      <trkpt lat="47.10132" lon="6.05193">
        <ele>447</ele>
        <time>2026-03-18T10:51:04Z</time>
      </trkpt>
      <trkpt lat="47.10112" lon="6.05207">
        <ele>444</ele>
        <time>2026-03-18T10:51:08Z</time>
      </trkpt>
      <trkpt lat="47.10064" lon="6.05228">
        <ele>433</ele>
        <time>2026-03-18T10:51:16Z</time>
      </trkpt>
      <trkpt lat="47.10053" lon="6.05237">
        <ele>430</ele>
        <time>2026-03-18T10:51:19Z</time>
      </trkpt>
      <trkpt lat="47.10047" lon="6.05247">
        <ele>430</ele>
        <time>2026-03-18T10:51:20Z</time>
      </trkpt>
      <trkpt lat="47.10037" lon="6.05274">
        <ele>429</ele>
        <time>2026-03-18T10:51:24Z</time>
      </trkpt>
      <trkpt lat="47.10031" lon="6.05301">
        <ele>429</ele>
        <time>2026-03-18T10:51:27Z</time>
      </trkpt>
      <trkpt lat="47.10019" lon="6.05366">
        <ele>427</ele>
        <time>2026-03-18T10:51:36Z</time>
      </trkpt>
      <trkpt lat="47.10017" lon="6.0539">
        <ele>424</ele>
        <time>2026-03-18T10:51:39Z</time>
      </trkpt>
      <trkpt lat="47.10022" lon="6.05428">
        <ele>423</ele>
        <time>2026-03-18T10:51:43Z</time>
      </trkpt>
      <trkpt lat="47.1003" lon="6.05458">
        <ele>421</ele>
        <time>2026-03-18T10:51:47Z</time>
      </trkpt>
      <trkpt lat="47.10037" lon="6.05476">
        <ele>421</ele>
        <time>2026-03-18T10:51:50Z</time>
      </trkpt>
      <trkpt lat="47.10047" lon="6.05492">
        <ele>422</ele>
        <time>2026-03-18T10:51:52Z</time>
      </trkpt>
      <trkpt lat="47.10058" lon="6.05503">
        <ele>424</ele>
        <time>2026-03-18T10:51:55Z</time>
      </trkpt>
      <trkpt lat="47.10114" lon="6.05535">
        <ele>436</ele>
        <time>2026-03-18T10:52:05Z</time>
      </trkpt>
      <trkpt lat="47.10123" lon="6.05546">
        <ele>437</ele>
        <time>2026-03-18T10:52:07Z</time>
      </trkpt>
      <trkpt lat="47.10127" lon="6.05554">
        <ele>436</ele>
        <time>2026-03-18T10:52:09Z</time>
      </trkpt>
      <trkpt lat="47.10131" lon="6.05568">
        <ele>435</ele>
        <time>2026-03-18T10:52:10Z</time>
      </trkpt>
      <trkpt lat="47.1013" lon="6.05577">
        <ele>433</ele>
        <time>2026-03-18T10:52:12Z</time>
      </trkpt>
      <trkpt lat="47.10123" lon="6.05599">
        <ele>430</ele>
        <time>2026-03-18T10:52:15Z</time>
      </trkpt>
      <trkpt lat="47.10102" lon="6.05643">
        <ele>424</ele>
        <time>2026-03-18T10:52:21Z</time>
      </trkpt>
      <trkpt lat="47.10093" lon="6.05657">
        <ele>421</ele>
        <time>2026-03-18T10:52:23Z</time>
      </trkpt>
      <trkpt lat="47.10084" lon="6.05667">
        <ele>418</ele>
        <time>2026-03-18T10:52:25Z</time>
      </trkpt>
      <trkpt lat="47.10077" lon="6.05676">
        <ele>419</ele>
        <time>2026-03-18T10:52:27Z</time>
      </trkpt>
      <trkpt lat="47.10054" lon="6.05696">
        <ele>418</ele>
        <time>2026-03-18T10:52:32Z</time>
      </trkpt>
      <trkpt lat="47.10039" lon="6.05705">
        <ele>416</ele>
        <time>2026-03-18T10:52:35Z</time>
      </trkpt>
      <trkpt lat="47.10001" lon="6.05724">
        <ele>411</ele>
        <time>2026-03-18T10:52:42Z</time>
      </trkpt>
      <trkpt lat="47.0996" lon="6.05739">
        <ele>408</ele>
        <time>2026-03-18T10:52:49Z</time>
      </trkpt>
      <trkpt lat="47.0995" lon="6.05744">
        <ele>407</ele>
        <time>2026-03-18T10:52:51Z</time>
      </trkpt>
      <trkpt lat="47.09929" lon="6.0576">
        <ele>407</ele>
        <time>2026-03-18T10:52:55Z</time>
      </trkpt>
      <trkpt lat="47.09907" lon="6.05781">
        <ele>406</ele>
        <time>2026-03-18T10:53:00Z</time>
      </trkpt>
      <trkpt lat="47.09893" lon="6.05797">
        <ele>404</ele>
        <time>2026-03-18T10:53:03Z</time>
      </trkpt>
      <trkpt lat="47.09885" lon="6.05808">
        <ele>404</ele>
        <time>2026-03-18T10:53:05Z</time>
      </trkpt>
      <trkpt lat="47.09867" lon="6.05842">
        <ele>402</ele>
        <time>2026-03-18T10:53:10Z</time>
      </trkpt>
      <trkpt lat="47.09836" lon="6.05913">
        <ele>398</ele>
        <time>2026-03-18T10:53:21Z</time>
      </trkpt>
      <trkpt lat="47.09815" lon="6.05975">
        <ele>395</ele>
        <time>2026-03-18T10:53:29Z</time>
      </trkpt>
      <trkpt lat="47.09812" lon="6.05982">
        <ele>394</ele>
        <time>2026-03-18T10:53:30Z</time>
      </trkpt>
      <trkpt lat="47.09782" lon="6.06037">
        <ele>389</ele>
        <time>2026-03-18T10:53:39Z</time>
      </trkpt>
      <trkpt lat="47.0977" lon="6.06068">
        <ele>387</ele>
        <time>2026-03-18T10:53:43Z</time>
      </trkpt>
      <trkpt lat="47.09756" lon="6.06108">
        <ele>385</ele>
        <time>2026-03-18T10:53:48Z</time>
      </trkpt>
      <trkpt lat="47.09752" lon="6.06128">
        <ele>385</ele>
        <time>2026-03-18T10:53:51Z</time>
      </trkpt>
      <trkpt lat="47.09748" lon="6.06164">
        <ele>385</ele>
        <time>2026-03-18T10:53:55Z</time>
      </trkpt>
      <trkpt lat="47.09739" lon="6.06288">
        <ele>380</ele>
        <time>2026-03-18T10:54:10Z</time>
      </trkpt>
      <trkpt lat="47.09737" lon="6.06335">
        <ele>378</ele>
        <time>2026-03-18T10:54:16Z</time>
      </trkpt>
      <trkpt lat="47.09742" lon="6.06365">
        <ele>377</ele>
        <time>2026-03-18T10:54:20Z</time>
      </trkpt>
      <trkpt lat="47.09747" lon="6.06382">
        <ele>376</ele>
        <time>2026-03-18T10:54:22Z</time>
      </trkpt>
      <trkpt lat="47.09749" lon="6.0639">
        <ele>376</ele>
        <time>2026-03-18T10:54:23Z</time>
      </trkpt>
      <trkpt lat="47.09758" lon="6.06408">
        <ele>375</ele>
        <time>2026-03-18T10:54:26Z</time>
      </trkpt>
      <trkpt lat="47.09783" lon="6.0644">
        <ele>375</ele>
        <time>2026-03-18T10:54:32Z</time>
      </trkpt>
      <trkpt lat="47.09789" lon="6.06451">
        <ele>374</ele>
        <time>2026-03-18T10:54:33Z</time>
      </trkpt>
      <trkpt lat="47.09791" lon="6.06467">
        <ele>373</ele>
        <time>2026-03-18T10:54:35Z</time>
      </trkpt>
      <trkpt lat="47.09787" lon="6.06483">
        <ele>372</ele>
        <time>2026-03-18T10:54:37Z</time>
      </trkpt>
      <trkpt lat="47.09778" lon="6.06501">
        <ele>370</ele>
        <time>2026-03-18T10:54:40Z</time>
      </trkpt>
      <trkpt lat="47.09687" lon="6.06336">
        <ele>374</ele>
        <time>2026-03-18T10:55:06Z</time>
      </trkpt>
      <trkpt lat="47.09664" lon="6.06294">
        <ele>373</ele>
        <time>2026-03-18T10:55:12Z</time>
      </trkpt>
      <trkpt lat="47.09657" lon="6.06278">
        <ele>373</ele>
        <time>2026-03-18T10:55:15Z</time>
      </trkpt>
      <trkpt lat="47.09649" lon="6.06256">
        <ele>373</ele>
        <time>2026-03-18T10:55:18Z</time>
      </trkpt>
      <trkpt lat="47.09645" lon="6.0624">
        <ele>372</ele>
        <time>2026-03-18T10:55:20Z</time>
      </trkpt>
      <trkpt lat="47.09642" lon="6.06223">
        <ele>371</ele>
        <time>2026-03-18T10:55:22Z</time>
      </trkpt>
      <trkpt lat="47.09622" lon="6.06089">
        <ele>364</ele>
        <time>2026-03-18T10:55:39Z</time>
      </trkpt>
      <trkpt lat="47.09612" lon="6.06093">
        <ele>363</ele>
        <time>2026-03-18T10:55:40Z</time>
      </trkpt>
      <trkpt lat="47.09605" lon="6.06092">
        <ele>363</ele>
        <time>2026-03-18T10:55:42Z</time>
      </trkpt>
      <trkpt lat="47.09599" lon="6.0609">
        <ele>362</ele>
        <time>2026-03-18T10:55:43Z</time>
      </trkpt>
      <trkpt lat="47.09575" lon="6.06074">
        <ele>359</ele>
        <time>2026-03-18T10:55:47Z</time>
      </trkpt>
      <trkpt lat="47.0956" lon="6.06067">
        <ele>358</ele>
        <time>2026-03-18T10:55:50Z</time>
      </trkpt>
      <trkpt lat="47.09481" lon="6.06047">
        <ele>354</ele>
        <time>2026-03-18T10:56:04Z</time>
      </trkpt>
      <trkpt lat="47.09421" lon="6.06022">
        <ele>351</ele>
        <time>2026-03-18T10:56:16Z</time>
      </trkpt>
      <trkpt lat="47.09322" lon="6.05975">
        <ele>346</ele>
        <time>2026-03-18T10:56:34Z</time>
      </trkpt>
      <trkpt lat="47.09256" lon="6.05934">
        <ele>341</ele>
        <time>2026-03-18T10:56:47Z</time>
      </trkpt>
      <trkpt lat="47.09244" lon="6.05928">
        <ele>340</ele>
        <time>2026-03-18T10:56:49Z</time>
      </trkpt>
      <trkpt lat="47.09221" lon="6.0592">
        <ele>339</ele>
        <time>2026-03-18T10:56:53Z</time>
      </trkpt>
      <trkpt lat="47.09173" lon="6.05916">
        <ele>339</ele>
        <time>2026-03-18T10:57:02Z</time>
      </trkpt>
      <trkpt lat="47.09157" lon="6.05915">
        <ele>338</ele>
        <time>2026-03-18T10:57:05Z</time>
      </trkpt>
      <trkpt lat="47.09136" lon="6.05909">
        <ele>336</ele>
        <time>2026-03-18T10:57:09Z</time>
      </trkpt>
      <trkpt lat="47.09114" lon="6.05898">
        <ele>334</ele>
        <time>2026-03-18T10:57:13Z</time>
      </trkpt>
      <trkpt lat="47.09104" lon="6.05891">
        <ele>332</ele>
        <time>2026-03-18T10:57:15Z</time>
      </trkpt>
      <trkpt lat="47.09097" lon="6.05885">
        <ele>331</ele>
        <time>2026-03-18T10:57:16Z</time>
      </trkpt>
      <trkpt lat="47.09073" lon="6.05859">
        <ele>328</ele>
        <time>2026-03-18T10:57:21Z</time>
      </trkpt>
      <trkpt lat="47.0905" lon="6.05831">
        <ele>326</ele>
        <time>2026-03-18T10:57:27Z</time>
      </trkpt>
      <trkpt lat="47.09002" lon="6.05764">
        <ele>322</ele>
        <time>2026-03-18T10:57:38Z</time>
      </trkpt>
      <trkpt lat="47.08992" lon="6.05752">
        <ele>321</ele>
        <time>2026-03-18T10:57:41Z</time>
      </trkpt>
      <trkpt lat="47.08967" lon="6.0573">
        <ele>320</ele>
        <time>2026-03-18T10:57:46Z</time>
      </trkpt>
      <trkpt lat="47.08923" lon="6.057">
        <ele>318</ele>
        <time>2026-03-18T10:57:55Z</time>
      </trkpt>
      <trkpt lat="47.08909" lon="6.05692">
        <ele>318</ele>
        <time>2026-03-18T10:57:57Z</time>
      </trkpt>
      <trkpt lat="47.08901" lon="6.05689">
        <ele>317</ele>
        <time>2026-03-18T10:57:59Z</time>
      </trkpt>
      <trkpt lat="47.08893" lon="6.05687">
        <ele>316</ele>
        <time>2026-03-18T10:58:00Z</time>
      </trkpt>
      <trkpt lat="47.08886" lon="6.05688">
        <ele>316</ele>
        <time>2026-03-18T10:58:01Z</time>
      </trkpt>
      <trkpt lat="47.08878" lon="6.0569">
        <ele>316</ele>
        <time>2026-03-18T10:58:03Z</time>
      </trkpt>
      <trkpt lat="47.08871" lon="6.05694">
        <ele>315</ele>
        <time>2026-03-18T10:58:04Z</time>
      </trkpt>
      <trkpt lat="47.08866" lon="6.057">
        <ele>315</ele>
        <time>2026-03-18T10:58:05Z</time>
      </trkpt>
      <trkpt lat="47.08862" lon="6.05707">
        <ele>315</ele>
        <time>2026-03-18T10:58:06Z</time>
      </trkpt>
      <trkpt lat="47.08858" lon="6.05719">
        <ele>316</ele>
        <time>2026-03-18T10:58:08Z</time>
      </trkpt>
      <trkpt lat="47.08857" lon="6.05731">
        <ele>316</ele>
        <time>2026-03-18T10:58:10Z</time>
      </trkpt>
      <trkpt lat="47.08857" lon="6.05759">
        <ele>317</ele>
        <time>2026-03-18T10:58:13Z</time>
      </trkpt>
      <trkpt lat="47.08859" lon="6.05809">
        <ele>316</ele>
        <time>2026-03-18T10:58:19Z</time>
      </trkpt>
      <trkpt lat="47.08857" lon="6.05817">
        <ele>316</ele>
        <time>2026-03-18T10:58:20Z</time>
      </trkpt>
      <trkpt lat="47.08855" lon="6.05824">
        <ele>316</ele>
        <time>2026-03-18T10:58:21Z</time>
      </trkpt>
      <trkpt lat="47.08849" lon="6.05831">
        <ele>315</ele>
        <time>2026-03-18T10:58:22Z</time>
      </trkpt>
      <trkpt lat="47.08806" lon="6.05854">
        <ele>316</ele>
        <time>2026-03-18T10:58:30Z</time>
      </trkpt>
      <trkpt lat="47.08759" lon="6.05887">
        <ele>319</ele>
        <time>2026-03-18T10:58:40Z</time>
      </trkpt>
      <trkpt lat="47.08749" lon="6.05891">
        <ele>319</ele>
        <time>2026-03-18T10:58:42Z</time>
      </trkpt>
      <trkpt lat="47.08739" lon="6.05893">
        <ele>320</ele>
        <time>2026-03-18T10:58:43Z</time>
      </trkpt>
      <trkpt lat="47.08725" lon="6.0589">
        <ele>320</ele>
        <time>2026-03-18T10:58:46Z</time>
      </trkpt>
      <trkpt lat="47.08724" lon="6.05884">
        <ele>320</ele>
        <time>2026-03-18T10:58:47Z</time>
      </trkpt>
      <trkpt lat="47.08724" lon="6.0587">
        <ele>320</ele>
        <time>2026-03-18T10:58:48Z</time>
      </trkpt>
      <trkpt lat="47.08725" lon="6.05858">
        <ele>320</ele>
        <time>2026-03-18T10:58:50Z</time>
      </trkpt>
      <trkpt lat="47.08726" lon="6.05832">
        <ele>320</ele>
        <time>2026-03-18T10:58:53Z</time>
      </trkpt>
      <trkpt lat="47.08723" lon="6.05771">
        <ele>318</ele>
        <time>2026-03-18T10:59:00Z</time>
      </trkpt>
      <trkpt lat="47.08718" lon="6.05738">
        <ele>316</ele>
        <time>2026-03-18T10:59:04Z</time>
      </trkpt>
      <trkpt lat="47.08716" lon="6.05725">
        <ele>316</ele>
        <time>2026-03-18T10:59:06Z</time>
      </trkpt>
      <trkpt lat="47.08714" lon="6.05714">
        <ele>316</ele>
        <time>2026-03-18T10:59:07Z</time>
      </trkpt>
      <trkpt lat="47.08714" lon="6.05692">
        <ele>315</ele>
        <time>2026-03-18T10:59:10Z</time>
      </trkpt>
      <trkpt lat="47.08718" lon="6.05658">
        <ele>315</ele>
        <time>2026-03-18T10:59:14Z</time>
      </trkpt>
      <trkpt lat="47.0872" lon="6.05647">
        <ele>315</ele>
        <time>2026-03-18T10:59:16Z</time>
      </trkpt>
      <trkpt lat="47.08727" lon="6.05629">
        <ele>315</ele>
        <time>2026-03-18T10:59:18Z</time>
      </trkpt>
      <trkpt lat="47.08811" lon="6.05467">
        <ele>323</ele>
        <time>2026-03-18T10:59:43Z</time>
      </trkpt>
      <trkpt lat="47.08824" lon="6.05452">
        <ele>325</ele>
        <time>2026-03-18T10:59:46Z</time>
      </trkpt>
      <trkpt lat="47.08841" lon="6.05441">
        <ele>327</ele>
        <time>2026-03-18T10:59:49Z</time>
      </trkpt>
      <trkpt lat="47.08851" lon="6.0544">
        <ele>328</ele>
        <time>2026-03-18T10:59:51Z</time>
      </trkpt>
      <trkpt lat="47.08882" lon="6.05442">
        <ele>331</ele>
        <time>2026-03-18T10:59:56Z</time>
      </trkpt>
      <trkpt lat="47.08908" lon="6.05447">
        <ele>331</ele>
        <time>2026-03-18T11:00:01Z</time>
      </trkpt>
      <trkpt lat="47.08975" lon="6.05483">
        <ele>329</ele>
        <time>2026-03-18T11:00:14Z</time>
      </trkpt>
      <trkpt lat="47.08992" lon="6.05486">
        <ele>331</ele>
        <time>2026-03-18T11:00:17Z</time>
      </trkpt>
      <trkpt lat="47.09018" lon="6.0549">
        <ele>333</ele>
        <time>2026-03-18T11:00:21Z</time>
      </trkpt>
      <trkpt lat="47.0907" lon="6.05491">
        <ele>339</ele>
        <time>2026-03-18T11:00:31Z</time>
      </trkpt>
      <trkpt lat="47.09106" lon="6.05475">
        <ele>344</ele>
        <time>2026-03-18T11:00:37Z</time>
      </trkpt>
      <trkpt lat="47.09124" lon="6.05476">
        <ele>344</ele>
        <time>2026-03-18T11:00:41Z</time>
      </trkpt>
      <trkpt lat="47.09141" lon="6.05483">
        <ele>344</ele>
        <time>2026-03-18T11:00:44Z</time>
      </trkpt>
      <trkpt lat="47.09165" lon="6.05495">
        <ele>343</ele>
        <time>2026-03-18T11:00:48Z</time>
      </trkpt>
      <trkpt lat="47.09187" lon="6.05494">
        <ele>343</ele>
        <time>2026-03-18T11:00:52Z</time>
      </trkpt>
      <trkpt lat="47.09201" lon="6.05489">
        <ele>343</ele>
        <time>2026-03-18T11:00:55Z</time>
      </trkpt>
      <trkpt lat="47.09217" lon="6.0548">
        <ele>344</ele>
        <time>2026-03-18T11:00:58Z</time>
      </trkpt>
      <trkpt lat="47.09235" lon="6.05466">
        <ele>346</ele>
        <time>2026-03-18T11:01:01Z</time>
      </trkpt>
      <trkpt lat="47.09251" lon="6.05457">
        <ele>347</ele>
        <time>2026-03-18T11:01:04Z</time>
      </trkpt>
      <trkpt lat="47.09269" lon="6.05452">
        <ele>348</ele>
        <time>2026-03-18T11:01:08Z</time>
      </trkpt>
      <trkpt lat="47.09315" lon="6.05444">
        <ele>351</ele>
        <time>2026-03-18T11:01:16Z</time>
      </trkpt>
      <trkpt lat="47.09325" lon="6.05437">
        <ele>352</ele>
        <time>2026-03-18T11:01:18Z</time>
      </trkpt>
      <trkpt lat="47.09334" lon="6.05425">
        <ele>353</ele>
        <time>2026-03-18T11:01:20Z</time>
      </trkpt>
      <trkpt lat="47.0934" lon="6.05414">
        <ele>354</ele>
        <time>2026-03-18T11:01:22Z</time>
      </trkpt>
      <trkpt lat="47.09344" lon="6.05396">
        <ele>355</ele>
        <time>2026-03-18T11:01:24Z</time>
      </trkpt>
      <trkpt lat="47.09346" lon="6.05375">
        <ele>356</ele>
        <time>2026-03-18T11:01:27Z</time>
      </trkpt>
      <trkpt lat="47.09344" lon="6.05348">
        <ele>357</ele>
        <time>2026-03-18T11:01:30Z</time>
      </trkpt>
      <trkpt lat="47.09339" lon="6.0533">
        <ele>358</ele>
        <time>2026-03-18T11:01:32Z</time>
      </trkpt>
      <trkpt lat="47.09332" lon="6.05316">
        <ele>359</ele>
        <time>2026-03-18T11:01:34Z</time>
      </trkpt>
      <trkpt lat="47.09319" lon="6.05302">
        <ele>360</ele>
        <time>2026-03-18T11:01:37Z</time>
      </trkpt>
      <trkpt lat="47.09199" lon="6.05218">
        <ele>364</ele>
        <time>2026-03-18T11:02:01Z</time>
      </trkpt>
      <trkpt lat="47.09186" lon="6.05205">
        <ele>365</ele>
        <time>2026-03-18T11:02:04Z</time>
      </trkpt>
      <trkpt lat="47.09177" lon="6.05193">
        <ele>366</ele>
        <time>2026-03-18T11:02:06Z</time>
      </trkpt>
      <trkpt lat="47.09169" lon="6.05178">
        <ele>367</ele>
        <time>2026-03-18T11:02:08Z</time>
      </trkpt>
      <trkpt lat="47.09128" lon="6.05098">
        <ele>378</ele>
        <time>2026-03-18T11:02:20Z</time>
      </trkpt>
      <trkpt lat="47.09109" lon="6.05068">
        <ele>381</ele>
        <time>2026-03-18T11:02:25Z</time>
      </trkpt>
      <trkpt lat="47.0909" lon="6.05041">
        <ele>383</ele>
        <time>2026-03-18T11:02:30Z</time>
      </trkpt>
      <trkpt lat="47.09067" lon="6.05012">
        <ele>386</ele>
        <time>2026-03-18T11:02:35Z</time>
      </trkpt>
      <trkpt lat="47.09052" lon="6.04995">
        <ele>388</ele>
        <time>2026-03-18T11:02:39Z</time>
      </trkpt>
      <trkpt lat="47.09019" lon="6.04975">
        <ele>388</ele>
        <time>2026-03-18T11:02:45Z</time>
      </trkpt>
      <trkpt lat="47.09007" lon="6.04965">
        <ele>389</ele>
        <time>2026-03-18T11:02:48Z</time>
      </trkpt>
      <trkpt lat="47.08951" lon="6.04913">
        <ele>393</ele>
        <time>2026-03-18T11:02:59Z</time>
      </trkpt>
      <trkpt lat="47.08914" lon="6.04882">
        <ele>396</ele>
        <time>2026-03-18T11:03:07Z</time>
      </trkpt>
      <trkpt lat="47.08878" lon="6.04864">
        <ele>396</ele>
        <time>2026-03-18T11:03:14Z</time>
      </trkpt>
      <trkpt lat="47.08789" lon="6.04796">
        <ele>399</ele>
        <time>2026-03-18T11:03:32Z</time>
      </trkpt>
      <trkpt lat="47.08714" lon="6.04698">
        <ele>408</ele>
        <time>2026-03-18T11:03:49Z</time>
      </trkpt>
      <trkpt lat="47.08696" lon="6.04686">
        <ele>409</ele>
        <time>2026-03-18T11:03:53Z</time>
      </trkpt>
      <trkpt lat="47.08677" lon="6.04692">
        <ele>406</ele>
        <time>2026-03-18T11:03:56Z</time>
      </trkpt>
      <trkpt lat="47.08614" lon="6.04752">
        <ele>405</ele>
        <time>2026-03-18T11:04:10Z</time>
      </trkpt>
      <trkpt lat="47.08576" lon="6.0478">
        <ele>407</ele>
        <time>2026-03-18T11:04:17Z</time>
      </trkpt>
      <trkpt lat="47.08528" lon="6.04813">
        <ele>409</ele>
        <time>2026-03-18T11:04:27Z</time>
      </trkpt>
      <trkpt lat="47.08493" lon="6.0483">
        <ele>410</ele>
        <time>2026-03-18T11:04:33Z</time>
      </trkpt>
      <trkpt lat="47.08467" lon="6.04832">
        <ele>409</ele>
        <time>2026-03-18T11:04:38Z</time>
      </trkpt>
      <trkpt lat="47.08436" lon="6.04818">
        <ele>412</ele>
        <time>2026-03-18T11:04:44Z</time>
      </trkpt>
      <trkpt lat="47.08388" lon="6.0479">
        <ele>416</ele>
        <time>2026-03-18T11:04:53Z</time>
      </trkpt>
      <trkpt lat="47.08276" lon="6.04675">
        <ele>426</ele>
        <time>2026-03-18T11:05:17Z</time>
      </trkpt>
      <trkpt lat="47.08222" lon="6.04624">
        <ele>432</ele>
        <time>2026-03-18T11:05:29Z</time>
      </trkpt>
      <trkpt lat="47.08193" lon="6.04604">
        <ele>433</ele>
        <time>2026-03-18T11:05:34Z</time>
      </trkpt>
      <trkpt lat="47.07979" lon="6.04441">
        <ele>459</ele>
        <time>2026-03-18T11:06:17Z</time>
      </trkpt>
      <trkpt lat="47.07974" lon="6.04437">
        <ele>459</ele>
        <time>2026-03-18T11:06:18Z</time>
      </trkpt>
      <trkpt lat="47.07909" lon="6.04399">
        <ele>461</ele>
        <time>2026-03-18T11:06:31Z</time>
      </trkpt>
      <trkpt lat="47.07715" lon="6.0423">
        <ele>468</ele>
        <time>2026-03-18T11:07:11Z</time>
      </trkpt>
      <trkpt lat="47.07646" lon="6.04187">
        <ele>476</ele>
        <time>2026-03-18T11:07:24Z</time>
      </trkpt>
      <trkpt lat="47.07594" lon="6.04179">
        <ele>479</ele>
        <time>2026-03-18T11:07:33Z</time>
      </trkpt>
      <trkpt lat="47.07556" lon="6.04191">
        <ele>477</ele>
        <time>2026-03-18T11:07:40Z</time>
      </trkpt>
      <trkpt lat="47.07453" lon="6.04219">
        <ele>478</ele>
        <time>2026-03-18T11:07:59Z</time>
      </trkpt>
      <trkpt lat="47.07383" lon="6.04238">
        <ele>479</ele>
        <time>2026-03-18T11:08:12Z</time>
      </trkpt>
      <trkpt lat="47.07336" lon="6.04222">
        <ele>483</ele>
        <time>2026-03-18T11:08:20Z</time>
      </trkpt>
      <trkpt lat="47.07323" lon="6.04219">
        <ele>484</ele>
        <time>2026-03-18T11:08:23Z</time>
      </trkpt>
      <trkpt lat="47.07303" lon="6.04224">
        <ele>484</ele>
        <time>2026-03-18T11:08:26Z</time>
      </trkpt>
      <trkpt lat="47.0724" lon="6.04263">
        <ele>485</ele>
        <time>2026-03-18T11:08:38Z</time>
      </trkpt>
      <trkpt lat="47.07221" lon="6.04273">
        <ele>486</ele>
        <time>2026-03-18T11:08:42Z</time>
      </trkpt>
      <trkpt lat="47.07206" lon="6.04274">
        <ele>487</ele>
        <time>2026-03-18T11:08:45Z</time>
      </trkpt>
      <trkpt lat="47.07198" lon="6.04274">
        <ele>488</ele>
        <time>2026-03-18T11:08:46Z</time>
      </trkpt>
      <trkpt lat="47.07182" lon="6.04266">
        <ele>489</ele>
        <time>2026-03-18T11:08:49Z</time>
      </trkpt>
      <trkpt lat="47.07137" lon="6.04239">
        <ele>492</ele>
        <time>2026-03-18T11:08:58Z</time>
      </trkpt>
      <trkpt lat="47.07019" lon="6.04169">
        <ele>498</ele>
        <time>2026-03-18T11:09:20Z</time>
      </trkpt>
      <trkpt lat="47.06995" lon="6.04162">
        <ele>499</ele>
        <time>2026-03-18T11:09:25Z</time>
      </trkpt>
      <trkpt lat="47.06973" lon="6.04156">
        <ele>499</ele>
        <time>2026-03-18T11:09:29Z</time>
      </trkpt>
      <trkpt lat="47.06916" lon="6.04145">
        <ele>500</ele>
        <time>2026-03-18T11:09:39Z</time>
      </trkpt>
      <trkpt lat="47.06907" lon="6.04142">
        <ele>500</ele>
        <time>2026-03-18T11:09:41Z</time>
      </trkpt>
      <trkpt lat="47.06902" lon="6.04139">
        <ele>500</ele>
        <time>2026-03-18T11:09:42Z</time>
      </trkpt>
      <trkpt lat="47.06898" lon="6.04133">
        <ele>499</ele>
        <time>2026-03-18T11:09:43Z</time>
      </trkpt>
      <trkpt lat="47.06896" lon="6.0413">
        <ele>499</ele>
        <time>2026-03-18T11:09:43Z</time>
      </trkpt>
      <trkpt lat="47.06895" lon="6.04115">
        <ele>498</ele>
        <time>2026-03-18T11:09:45Z</time>
      </trkpt>
      <trkpt lat="47.0689" lon="6.04109">
        <ele>498</ele>
        <time>2026-03-18T11:09:46Z</time>
      </trkpt>
      <trkpt lat="47.06885" lon="6.04106">
        <ele>498</ele>
        <time>2026-03-18T11:09:47Z</time>
      </trkpt>
      <trkpt lat="47.06881" lon="6.04104">
        <ele>497</ele>
        <time>2026-03-18T11:09:48Z</time>
      </trkpt>
      <trkpt lat="47.06873" lon="6.04104">
        <ele>497</ele>
        <time>2026-03-18T11:09:49Z</time>
      </trkpt>
      <trkpt lat="47.06849" lon="6.04117">
        <ele>497</ele>
        <time>2026-03-18T11:09:54Z</time>
      </trkpt>
      <trkpt lat="47.06834" lon="6.04126">
        <ele>497</ele>
        <time>2026-03-18T11:09:57Z</time>
      </trkpt>
      <trkpt lat="47.06824" lon="6.04129">
        <ele>495</ele>
        <time>2026-03-18T11:09:58Z</time>
      </trkpt>
      <trkpt lat="47.06812" lon="6.04133">
        <ele>493</ele>
        <time>2026-03-18T11:10:01Z</time>
      </trkpt>
      <trkpt lat="47.06802" lon="6.04138">
        <ele>491</ele>
        <time>2026-03-18T11:10:02Z</time>
      </trkpt>
      <trkpt lat="47.06792" lon="6.04145">
        <ele>489</ele>
        <time>2026-03-18T11:10:04Z</time>
      </trkpt>
      <trkpt lat="47.0678" lon="6.04163">
        <ele>488</ele>
        <time>2026-03-18T11:10:08Z</time>
      </trkpt>
      <trkpt lat="47.0675" lon="6.04214">
        <ele>488</ele>
        <time>2026-03-18T11:10:16Z</time>
      </trkpt>
      <trkpt lat="47.06731" lon="6.04253">
        <ele>488</ele>
        <time>2026-03-18T11:10:21Z</time>
      </trkpt>
      <trkpt lat="47.06702" lon="6.04292">
        <ele>487</ele>
        <time>2026-03-18T11:10:28Z</time>
      </trkpt>
      <trkpt lat="47.06636" lon="6.04359">
        <ele>487</ele>
        <time>2026-03-18T11:10:43Z</time>
      </trkpt>
      <trkpt lat="47.06605" lon="6.04375">
        <ele>485</ele>
        <time>2026-03-18T11:10:49Z</time>
      </trkpt>
      <trkpt lat="47.06566" lon="6.04385">
        <ele>486</ele>
        <time>2026-03-18T11:10:56Z</time>
      </trkpt>
      <trkpt lat="47.06546" lon="6.04386">
        <ele>489</ele>
        <time>2026-03-18T11:10:59Z</time>
      </trkpt>
      <trkpt lat="47.06541" lon="6.04383">
        <ele>490</ele>
        <time>2026-03-18T11:11:00Z</time>
      </trkpt>
      <trkpt lat="47.06536" lon="6.04376">
        <ele>491</ele>
        <time>2026-03-18T11:11:01Z</time>
      </trkpt>
      <trkpt lat="47.06535" lon="6.04366">
        <ele>491</ele>
        <time>2026-03-18T11:11:03Z</time>
      </trkpt>
      <trkpt lat="47.06537" lon="6.04354">
        <ele>490</ele>
        <time>2026-03-18T11:11:04Z</time>
      </trkpt>
      <trkpt lat="47.06563" lon="6.04278">
        <ele>480</ele>
        <time>2026-03-18T11:11:14Z</time>
      </trkpt>
      <trkpt lat="47.06574" lon="6.04193">
        <ele>470</ele>
        <time>2026-03-18T11:11:25Z</time>
      </trkpt>
      <trkpt lat="47.06577" lon="6.04164">
        <ele>467</ele>
        <time>2026-03-18T11:11:28Z</time>
      </trkpt>
      <trkpt lat="47.06586" lon="6.04144">
        <ele>462</ele>
        <time>2026-03-18T11:11:31Z</time>
      </trkpt>
      <trkpt lat="47.06601" lon="6.04135">
        <ele>461</ele>
        <time>2026-03-18T11:11:34Z</time>
      </trkpt>
      <trkpt lat="47.0666" lon="6.04134">
        <ele>457</ele>
        <time>2026-03-18T11:11:45Z</time>
      </trkpt>
      <trkpt lat="47.06668" lon="6.04128">
        <ele>456</ele>
        <time>2026-03-18T11:11:46Z</time>
      </trkpt>
      <trkpt lat="47.06674" lon="6.04119">
        <ele>457</ele>
        <time>2026-03-18T11:11:48Z</time>
      </trkpt>
      <trkpt lat="47.06681" lon="6.04098">
        <ele>456</ele>
        <time>2026-03-18T11:11:51Z</time>
      </trkpt>
      <trkpt lat="47.06683" lon="6.0408">
        <ele>455</ele>
        <time>2026-03-18T11:11:53Z</time>
      </trkpt>
      <trkpt lat="47.0668" lon="6.0404">
        <ele>452</ele>
        <time>2026-03-18T11:11:58Z</time>
      </trkpt>
      <trkpt lat="47.06667" lon="6.03922">
        <ele>444</ele>
        <time>2026-03-18T11:12:12Z</time>
      </trkpt>
      <trkpt lat="47.06659" lon="6.0386">
        <ele>444</ele>
        <time>2026-03-18T11:12:20Z</time>
      </trkpt>
      <trkpt lat="47.06648" lon="6.03816">
        <ele>442</ele>
        <time>2026-03-18T11:12:26Z</time>
      </trkpt>
      <trkpt lat="47.06627" lon="6.03738">
        <ele>438</ele>
        <time>2026-03-18T11:12:36Z</time>
      </trkpt>
      <trkpt lat="47.06607" lon="6.0365">
        <ele>431</ele>
        <time>2026-03-18T11:12:47Z</time>
      </trkpt>
      <trkpt lat="47.06555" lon="6.03476">
        <ele>420</ele>
        <time>2026-03-18T11:13:10Z</time>
      </trkpt>
      <trkpt lat="47.06524" lon="6.03358">
        <ele>416</ele>
        <time>2026-03-18T11:13:25Z</time>
      </trkpt>
      <trkpt lat="47.06481" lon="6.03231">
        <ele>413</ele>
        <time>2026-03-18T11:13:43Z</time>
      </trkpt>
      <trkpt lat="47.06464" lon="6.03184">
        <ele>413</ele>
        <time>2026-03-18T11:13:49Z</time>
      </trkpt>
      <trkpt lat="47.06437" lon="6.03127">
        <ele>412</ele>
        <time>2026-03-18T11:13:57Z</time>
      </trkpt>
      <trkpt lat="47.06422" lon="6.031">
        <ele>410</ele>
        <time>2026-03-18T11:14:02Z</time>
      </trkpt>
      <trkpt lat="47.06405" lon="6.03072">
        <ele>410</ele>
        <time>2026-03-18T11:14:06Z</time>
      </trkpt>
      <trkpt lat="47.06374" lon="6.03016">
        <ele>409</ele>
        <time>2026-03-18T11:14:15Z</time>
      </trkpt>
      <trkpt lat="47.06339" lon="6.02956">
        <ele>404</ele>
        <time>2026-03-18T11:14:25Z</time>
      </trkpt>
      <trkpt lat="47.06284" lon="6.02898">
        <ele>402</ele>
        <time>2026-03-18T11:14:37Z</time>
      </trkpt>
      <trkpt lat="47.06259" lon="6.0286">
        <ele>398</ele>
        <time>2026-03-18T11:14:43Z</time>
      </trkpt>
      <trkpt lat="47.06249" lon="6.02851">
        <ele>397</ele>
        <time>2026-03-18T11:14:45Z</time>
      </trkpt>
      <trkpt lat="47.06241" lon="6.02842">
        <ele>395</ele>
        <time>2026-03-18T11:14:47Z</time>
      </trkpt>
      <trkpt lat="47.06231" lon="6.02837">
        <ele>394</ele>
        <time>2026-03-18T11:14:49Z</time>
      </trkpt>
      <trkpt lat="47.06221" lon="6.02831">
        <ele>394</ele>
        <time>2026-03-18T11:14:51Z</time>
      </trkpt>
      <trkpt lat="47.0621" lon="6.02827">
        <ele>393</ele>
        <time>2026-03-18T11:14:53Z</time>
      </trkpt>
      <trkpt lat="47.06198" lon="6.02825">
        <ele>392</ele>
        <time>2026-03-18T11:14:55Z</time>
      </trkpt>
      <trkpt lat="47.06187" lon="6.02824">
        <ele>392</ele>
        <time>2026-03-18T11:14:57Z</time>
      </trkpt>
      <trkpt lat="47.06159" lon="6.02807">
        <ele>389</ele>
        <time>2026-03-18T11:15:02Z</time>
      </trkpt>
      <trkpt lat="47.06145" lon="6.02796">
        <ele>389</ele>
        <time>2026-03-18T11:15:05Z</time>
      </trkpt>
      <trkpt lat="47.06139" lon="6.0279">
        <ele>389</ele>
        <time>2026-03-18T11:15:06Z</time>
      </trkpt>
      <trkpt lat="47.06134" lon="6.02783">
        <ele>389</ele>
        <time>2026-03-18T11:15:08Z</time>
      </trkpt>
      <trkpt lat="47.06128" lon="6.02769">
        <ele>389</ele>
        <time>2026-03-18T11:15:10Z</time>
      </trkpt>
      <trkpt lat="47.06128" lon="6.0276">
        <ele>389</ele>
        <time>2026-03-18T11:15:11Z</time>
      </trkpt>
      <trkpt lat="47.06128" lon="6.02748">
        <ele>389</ele>
        <time>2026-03-18T11:15:12Z</time>
      </trkpt>
      <trkpt lat="47.06131" lon="6.02739">
        <ele>389</ele>
        <time>2026-03-18T11:15:13Z</time>
      </trkpt>
      <trkpt lat="47.06139" lon="6.02714">
        <ele>388</ele>
        <time>2026-03-18T11:15:17Z</time>
      </trkpt>
      <trkpt lat="47.0618" lon="6.02609">
        <ele>388</ele>
        <time>2026-03-18T11:15:31Z</time>
      </trkpt>
      <trkpt lat="47.06196" lon="6.02548">
        <ele>390</ele>
        <time>2026-03-18T11:15:39Z</time>
      </trkpt>
      <trkpt lat="47.06212" lon="6.02464">
        <ele>392</ele>
        <time>2026-03-18T11:15:50Z</time>
      </trkpt>
      <trkpt lat="47.06222" lon="6.02406">
        <ele>394</ele>
        <time>2026-03-18T11:15:57Z</time>
      </trkpt>
      <trkpt lat="47.06227" lon="6.02386">
        <ele>395</ele>
        <time>2026-03-18T11:16:00Z</time>
      </trkpt>
      <trkpt lat="47.06242" lon="6.02353">
        <ele>396</ele>
        <time>2026-03-18T11:16:04Z</time>
      </trkpt>
      <trkpt lat="47.06274" lon="6.023">
        <ele>398</ele>
        <time>2026-03-18T11:16:13Z</time>
      </trkpt>
      <trkpt lat="47.06285" lon="6.02279">
        <ele>399</ele>
        <time>2026-03-18T11:16:16Z</time>
      </trkpt>
      <trkpt lat="47.063" lon="6.0223">
        <ele>402</ele>
        <time>2026-03-18T11:16:23Z</time>
      </trkpt>
      <trkpt lat="47.0632" lon="6.02156">
        <ele>402</ele>
        <time>2026-03-18T11:16:32Z</time>
      </trkpt>
      <trkpt lat="47.06324" lon="6.02132">
        <ele>401</ele>
        <time>2026-03-18T11:16:35Z</time>
      </trkpt>
      <trkpt lat="47.06332" lon="6.02049">
        <ele>399</ele>
        <time>2026-03-18T11:16:46Z</time>
      </trkpt>
      <trkpt lat="47.06334" lon="6.02027">
        <ele>398</ele>
        <time>2026-03-18T11:16:48Z</time>
      </trkpt>
      <trkpt lat="47.06336" lon="6.02012">
        <ele>398</ele>
        <time>2026-03-18T11:16:50Z</time>
      </trkpt>
      <trkpt lat="47.0634" lon="6.01994">
        <ele>398</ele>
        <time>2026-03-18T11:16:52Z</time>
      </trkpt>
      <trkpt lat="47.06349" lon="6.01975">
        <ele>398</ele>
        <time>2026-03-18T11:16:55Z</time>
      </trkpt>
      <trkpt lat="47.06355" lon="6.01967">
        <ele>398</ele>
        <time>2026-03-18T11:16:57Z</time>
      </trkpt>
      <trkpt lat="47.06362" lon="6.01962">
        <ele>398</ele>
        <time>2026-03-18T11:16:58Z</time>
      </trkpt>
      <trkpt lat="47.06373" lon="6.01957">
        <ele>398</ele>
        <time>2026-03-18T11:17:00Z</time>
      </trkpt>
      <trkpt lat="47.06389" lon="6.01958">
        <ele>399</ele>
        <time>2026-03-18T11:17:03Z</time>
      </trkpt>
      <trkpt lat="47.06418" lon="6.01974">
        <ele>398</ele>
        <time>2026-03-18T11:17:08Z</time>
      </trkpt>
      <trkpt lat="47.06438" lon="6.0198">
        <ele>397</ele>
        <time>2026-03-18T11:17:12Z</time>
      </trkpt>
      <trkpt lat="47.06448" lon="6.01977">
        <ele>397</ele>
        <time>2026-03-18T11:17:14Z</time>
      </trkpt>
      <trkpt lat="47.06459" lon="6.01971">
        <ele>397</ele>
        <time>2026-03-18T11:17:16Z</time>
      </trkpt>
      <trkpt lat="47.06479" lon="6.0195">
        <ele>399</ele>
        <time>2026-03-18T11:17:20Z</time>
      </trkpt>
      <trkpt lat="47.06496" lon="6.01927">
        <ele>402</ele>
        <time>2026-03-18T11:17:24Z</time>
      </trkpt>
      <trkpt lat="47.06511" lon="6.01909">
        <ele>406</ele>
        <time>2026-03-18T11:17:28Z</time>
      </trkpt>
      <trkpt lat="47.06522" lon="6.01904">
        <ele>408</ele>
        <time>2026-03-18T11:17:30Z</time>
      </trkpt>
      <trkpt lat="47.06534" lon="6.01902">
        <ele>408</ele>
        <time>2026-03-18T11:17:32Z</time>
      </trkpt>
      <trkpt lat="47.06552" lon="6.01902">
        <ele>408</ele>
        <time>2026-03-18T11:17:35Z</time>
      </trkpt>
      <trkpt lat="47.06602" lon="6.01913">
        <ele>408</ele>
        <time>2026-03-18T11:17:44Z</time>
      </trkpt>
      <trkpt lat="47.06615" lon="6.01913">
        <ele>409</ele>
        <time>2026-03-18T11:17:47Z</time>
      </trkpt>
      <trkpt lat="47.06623" lon="6.01909">
        <ele>410</ele>
        <time>2026-03-18T11:17:48Z</time>
      </trkpt>
      <trkpt lat="47.06628" lon="6.01901">
        <ele>412</ele>
        <time>2026-03-18T11:17:49Z</time>
      </trkpt>
      <trkpt lat="47.06631" lon="6.01891">
        <ele>413</ele>
        <time>2026-03-18T11:17:51Z</time>
      </trkpt>
      <trkpt lat="47.0663" lon="6.01882">
        <ele>414</ele>
        <time>2026-03-18T11:17:52Z</time>
      </trkpt>
      <trkpt lat="47.06623" lon="6.01872">
        <ele>415</ele>
        <time>2026-03-18T11:17:54Z</time>
      </trkpt>
      <trkpt lat="47.06613" lon="6.01858">
        <ele>417</ele>
        <time>2026-03-18T11:17:56Z</time>
      </trkpt>
      <trkpt lat="47.06603" lon="6.01835">
        <ele>420</ele>
        <time>2026-03-18T11:17:59Z</time>
      </trkpt>
      <trkpt lat="47.06604" lon="6.01813">
        <ele>421</ele>
        <time>2026-03-18T11:18:02Z</time>
      </trkpt>
      <trkpt lat="47.06611" lon="6.018">
        <ele>422</ele>
        <time>2026-03-18T11:18:04Z</time>
      </trkpt>
      <trkpt lat="47.06632" lon="6.01784">
        <ele>424</ele>
        <time>2026-03-18T11:18:08Z</time>
      </trkpt>
      <trkpt lat="47.06686" lon="6.01763">
        <ele>428</ele>
        <time>2026-03-18T11:18:18Z</time>
      </trkpt>
      <trkpt lat="47.06734" lon="6.01757">
        <ele>430</ele>
        <time>2026-03-18T11:18:27Z</time>
      </trkpt>
      <trkpt lat="47.06774" lon="6.01761">
        <ele>428</ele>
        <time>2026-03-18T11:18:34Z</time>
      </trkpt>
      <trkpt lat="47.068" lon="6.01768">
        <ele>425</ele>
        <time>2026-03-18T11:18:39Z</time>
      </trkpt>
      <trkpt lat="47.06823" lon="6.01778">
        <ele>421</ele>
        <time>2026-03-18T11:18:43Z</time>
      </trkpt>
      <trkpt lat="47.0683" lon="6.01779">
        <ele>420</ele>
        <time>2026-03-18T11:18:44Z</time>
      </trkpt>
      <trkpt lat="47.06836" lon="6.01774">
        <ele>419</ele>
        <time>2026-03-18T11:18:45Z</time>
      </trkpt>
      <trkpt lat="47.06839" lon="6.01769">
        <ele>419</ele>
        <time>2026-03-18T11:18:46Z</time>
      </trkpt>
      <trkpt lat="47.06839" lon="6.01762">
        <ele>420</ele>
        <time>2026-03-18T11:18:47Z</time>
      </trkpt>
      <trkpt lat="47.0684" lon="6.01757">
        <ele>420</ele>
        <time>2026-03-18T11:18:48Z</time>
      </trkpt>
      <trkpt lat="47.06837" lon="6.01748">
        <ele>423</ele>
        <time>2026-03-18T11:18:49Z</time>
      </trkpt>
      <trkpt lat="47.06812" lon="6.01717">
        <ele>428</ele>
        <time>2026-03-18T11:18:55Z</time>
      </trkpt>
      <trkpt lat="47.06781" lon="6.01681">
        <ele>433</ele>
        <time>2026-03-18T11:19:02Z</time>
      </trkpt>
      <trkpt lat="47.06745" lon="6.01628">
        <ele>435</ele>
        <time>2026-03-18T11:19:11Z</time>
      </trkpt>
      <trkpt lat="47.06695" lon="6.01548">
        <ele>437</ele>
        <time>2026-03-18T11:19:24Z</time>
      </trkpt>
      <trkpt lat="47.06651" lon="6.01488">
        <ele>439</ele>
        <time>2026-03-18T11:19:35Z</time>
      </trkpt>
      <trkpt lat="47.06579" lon="6.01405">
        <ele>439</ele>
        <time>2026-03-18T11:19:51Z</time>
      </trkpt>
      <trkpt lat="47.06524" lon="6.01338">
        <ele>437</ele>
        <time>2026-03-18T11:20:04Z</time>
      </trkpt>
      <trkpt lat="47.06508" lon="6.01319">
        <ele>437</ele>
        <time>2026-03-18T11:20:07Z</time>
      </trkpt>
      <trkpt lat="47.06497" lon="6.01296">
        <ele>436</ele>
        <time>2026-03-18T11:20:11Z</time>
      </trkpt>
      <trkpt lat="47.06435" lon="6.01092">
        <ele>426</ele>
        <time>2026-03-18T11:20:38Z</time>
      </trkpt>
      <trkpt lat="47.06413" lon="6.01043">
        <ele>425</ele>
        <time>2026-03-18T11:20:45Z</time>
      </trkpt>
      <trkpt lat="47.06378" lon="6.00985">
        <ele>426</ele>
        <time>2026-03-18T11:20:54Z</time>
      </trkpt>
      <trkpt lat="47.06327" lon="6.00899">
        <ele>425</ele>
        <time>2026-03-18T11:21:08Z</time>
      </trkpt>
      <trkpt lat="47.06252" lon="6.00761">
        <ele>424</ele>
        <time>2026-03-18T11:21:30Z</time>
      </trkpt>
      <trkpt lat="47.06143" lon="6.00584">
        <ele>422</ele>
        <time>2026-03-18T11:21:58Z</time>
      </trkpt>
      <trkpt lat="47.06099" lon="6.00504">
        <ele>418</ele>
        <time>2026-03-18T11:22:11Z</time>
      </trkpt>
      <trkpt lat="47.05999" lon="6.00307">
        <ele>416</ele>
        <time>2026-03-18T11:22:41Z</time>
      </trkpt>
      <trkpt lat="47.05978" lon="6.00259">
        <ele>416</ele>
        <time>2026-03-18T11:22:48Z</time>
      </trkpt>
      <trkpt lat="47.05964" lon="6.00213">
        <ele>415</ele>
        <time>2026-03-18T11:22:54Z</time>
      </trkpt>
      <trkpt lat="47.05959" lon="6.00192">
        <ele>415</ele>
        <time>2026-03-18T11:22:56Z</time>
      </trkpt>
      <trkpt lat="47.05956" lon="6.00167">
        <ele>415</ele>
        <time>2026-03-18T11:22:59Z</time>
      </trkpt>
      <trkpt lat="47.05956" lon="6.00148">
        <ele>414</ele>
        <time>2026-03-18T11:23:02Z</time>
      </trkpt>
      <trkpt lat="47.05962" lon="6.00087">
        <ele>413</ele>
        <time>2026-03-18T11:23:09Z</time>
      </trkpt>
      <trkpt lat="47.05962" lon="6.00056">
        <ele>413</ele>
        <time>2026-03-18T11:23:13Z</time>
      </trkpt>
      <trkpt lat="47.05956" lon="6.00033">
        <ele>413</ele>
        <time>2026-03-18T11:23:16Z</time>
      </trkpt>
      <trkpt lat="47.05897" lon="5.99924">
        <ele>412</ele>
        <time>2026-03-18T11:23:33Z</time>
      </trkpt>
      <trkpt lat="47.05875" lon="5.99882">
        <ele>411</ele>
        <time>2026-03-18T11:23:39Z</time>
      </trkpt>
      <trkpt lat="47.05864" lon="5.99861">
        <ele>411</ele>
        <time>2026-03-18T11:23:42Z</time>
      </trkpt>
      <trkpt lat="47.05827" lon="5.99786">
        <ele>410</ele>
        <time>2026-03-18T11:23:54Z</time>
      </trkpt>
      <trkpt lat="47.05811" lon="5.99761">
        <ele>409</ele>
        <time>2026-03-18T11:23:58Z</time>
      </trkpt>
      <trkpt lat="47.05794" lon="5.99738">
        <ele>409</ele>
        <time>2026-03-18T11:24:02Z</time>
      </trkpt>
      <trkpt lat="47.05757" lon="5.99699">
        <ele>409</ele>
        <time>2026-03-18T11:24:10Z</time>
      </trkpt>
      <trkpt lat="47.05743" lon="5.99682">
        <ele>409</ele>
        <time>2026-03-18T11:24:13Z</time>
      </trkpt>
      <trkpt lat="47.05734" lon="5.99668">
        <ele>408</ele>
        <time>2026-03-18T11:24:16Z</time>
      </trkpt>
      <trkpt lat="47.05727" lon="5.9965">
        <ele>408</ele>
        <time>2026-03-18T11:24:18Z</time>
      </trkpt>
      <trkpt lat="47.05715" lon="5.99615">
        <ele>409</ele>
        <time>2026-03-18T11:24:23Z</time>
      </trkpt>
      <trkpt lat="47.05692" lon="5.99578">
        <ele>409</ele>
        <time>2026-03-18T11:24:29Z</time>
      </trkpt>
      <trkpt lat="47.05667" lon="5.99551">
        <ele>408</ele>
        <time>2026-03-18T11:24:35Z</time>
      </trkpt>
      <trkpt lat="47.0564" lon="5.99525">
        <ele>406</ele>
        <time>2026-03-18T11:24:40Z</time>
      </trkpt>
      <trkpt lat="47.05615" lon="5.9949">
        <ele>406</ele>
        <time>2026-03-18T11:24:46Z</time>
      </trkpt>
      <trkpt lat="47.05553" lon="5.994">
        <ele>405</ele>
        <time>2026-03-18T11:25:02Z</time>
      </trkpt>
      <trkpt lat="47.05544" lon="5.9939">
        <ele>404</ele>
        <time>2026-03-18T11:25:04Z</time>
      </trkpt>
      <trkpt lat="47.05535" lon="5.99386">
        <ele>404</ele>
        <time>2026-03-18T11:25:06Z</time>
      </trkpt>
      <trkpt lat="47.0553" lon="5.9938">
        <ele>404</ele>
        <time>2026-03-18T11:25:07Z</time>
      </trkpt>
      <trkpt lat="47.05518" lon="5.99364">
        <ele>404</ele>
        <time>2026-03-18T11:25:10Z</time>
      </trkpt>
      <trkpt lat="47.05412" lon="5.9924">
        <ele>399</ele>
        <time>2026-03-18T11:25:34Z</time>
      </trkpt>
      <trkpt lat="47.05391" lon="5.99218">
        <ele>398</ele>
        <time>2026-03-18T11:25:38Z</time>
      </trkpt>
      <trkpt lat="47.05373" lon="5.99208">
        <ele>398</ele>
        <time>2026-03-18T11:25:42Z</time>
      </trkpt>
      <trkpt lat="47.05329" lon="5.99196">
        <ele>398</ele>
        <time>2026-03-18T11:25:50Z</time>
      </trkpt>
      <trkpt lat="47.05306" lon="5.99185">
        <ele>398</ele>
        <time>2026-03-18T11:25:54Z</time>
      </trkpt>
      <trkpt lat="47.05298" lon="5.99178">
        <ele>397</ele>
        <time>2026-03-18T11:25:56Z</time>
      </trkpt>
      <trkpt lat="47.0529" lon="5.9917">
        <ele>397</ele>
        <time>2026-03-18T11:25:57Z</time>
      </trkpt>
      <trkpt lat="47.05217" lon="5.99071">
        <ele>396</ele>
        <time>2026-03-18T11:26:15Z</time>
      </trkpt>
      <trkpt lat="47.05202" lon="5.99058">
        <ele>396</ele>
        <time>2026-03-18T11:26:18Z</time>
      </trkpt>
      <trkpt lat="47.05183" lon="5.99048">
        <ele>396</ele>
        <time>2026-03-18T11:26:22Z</time>
      </trkpt>
      <trkpt lat="47.05168" lon="5.99046">
        <ele>396</ele>
        <time>2026-03-18T11:26:24Z</time>
      </trkpt>
      <trkpt lat="47.05155" lon="5.99048">
        <ele>396</ele>
        <time>2026-03-18T11:26:27Z</time>
      </trkpt>
      <trkpt lat="47.05137" lon="5.99058">
        <ele>397</ele>
        <time>2026-03-18T11:26:30Z</time>
      </trkpt>
      <trkpt lat="47.05115" lon="5.99075">
        <ele>398</ele>
        <time>2026-03-18T11:26:35Z</time>
      </trkpt>
      <trkpt lat="47.0509" lon="5.99087">
        <ele>400</ele>
        <time>2026-03-18T11:26:39Z</time>
      </trkpt>
      <trkpt lat="47.05068" lon="5.99091">
        <ele>402</ele>
        <time>2026-03-18T11:26:43Z</time>
      </trkpt>
      <trkpt lat="47.05051" lon="5.99089">
        <ele>404</ele>
        <time>2026-03-18T11:26:46Z</time>
      </trkpt>
      <trkpt lat="47.05034" lon="5.99085">
        <ele>405</ele>
        <time>2026-03-18T11:26:49Z</time>
      </trkpt>
      <trkpt lat="47.05017" lon="5.99077">
        <ele>407</ele>
        <time>2026-03-18T11:26:53Z</time>
      </trkpt>
      <trkpt lat="47.05004" lon="5.99067">
        <ele>408</ele>
        <time>2026-03-18T11:26:55Z</time>
      </trkpt>
      <trkpt lat="47.0499" lon="5.99053">
        <ele>409</ele>
        <time>2026-03-18T11:26:58Z</time>
      </trkpt>
      <trkpt lat="47.04942" lon="5.9898">
        <ele>414</ele>
        <time>2026-03-18T11:27:10Z</time>
      </trkpt>
      <trkpt lat="47.04893" lon="5.989">
        <ele>415</ele>
        <time>2026-03-18T11:27:24Z</time>
      </trkpt>
      <trkpt lat="47.04835" lon="5.9876">
        <ele>418</ele>
        <time>2026-03-18T11:27:43Z</time>
      </trkpt>
      <trkpt lat="47.04815" lon="5.987">
        <ele>422</ele>
        <time>2026-03-18T11:27:51Z</time>
      </trkpt>
      <trkpt lat="47.04808" lon="5.98649">
        <ele>426</ele>
        <time>2026-03-18T11:27:58Z</time>
      </trkpt>
      <trkpt lat="47.04822" lon="5.98568">
        <ele>429</ele>
        <time>2026-03-18T11:28:08Z</time>
      </trkpt>
      <trkpt lat="47.04822" lon="5.98543">
        <ele>431</ele>
        <time>2026-03-18T11:28:11Z</time>
      </trkpt>
      <trkpt lat="47.04816" lon="5.98489">
        <ele>437</ele>
        <time>2026-03-18T11:28:18Z</time>
      </trkpt>
      <trkpt lat="47.04806" lon="5.98447">
        <ele>441</ele>
        <time>2026-03-18T11:28:23Z</time>
      </trkpt>
      <trkpt lat="47.0479" lon="5.98398">
        <ele>444</ele>
        <time>2026-03-18T11:28:30Z</time>
      </trkpt>
      <trkpt lat="47.04785" lon="5.98389">
        <ele>445</ele>
        <time>2026-03-18T11:28:31Z</time>
      </trkpt>
      <trkpt lat="47.04775" lon="5.98379">
        <ele>446</ele>
        <time>2026-03-18T11:28:33Z</time>
      </trkpt>
      <trkpt lat="47.04767" lon="5.98376">
        <ele>446</ele>
        <time>2026-03-18T11:28:35Z</time>
      </trkpt>
      <trkpt lat="47.04757" lon="5.98376">
        <ele>447</ele>
        <time>2026-03-18T11:28:36Z</time>
      </trkpt>
      <trkpt lat="47.04737" lon="5.98388">
        <ele>448</ele>
        <time>2026-03-18T11:28:40Z</time>
      </trkpt>
      <trkpt lat="47.04729" lon="5.98395">
        <ele>448</ele>
        <time>2026-03-18T11:28:42Z</time>
      </trkpt>
      <trkpt lat="47.04724" lon="5.98405">
        <ele>448</ele>
        <time>2026-03-18T11:28:43Z</time>
      </trkpt>
      <trkpt lat="47.04721" lon="5.98417">
        <ele>448</ele>
        <time>2026-03-18T11:28:45Z</time>
      </trkpt>
      <trkpt lat="47.04717" lon="5.98468">
        <ele>448</ele>
        <time>2026-03-18T11:28:51Z</time>
      </trkpt>
      <trkpt lat="47.04714" lon="5.98488">
        <ele>448</ele>
        <time>2026-03-18T11:28:54Z</time>
      </trkpt>
      <trkpt lat="47.04707" lon="5.98505">
        <ele>448</ele>
        <time>2026-03-18T11:28:56Z</time>
      </trkpt>
      <trkpt lat="47.04699" lon="5.98518">
        <ele>449</ele>
        <time>2026-03-18T11:28:58Z</time>
      </trkpt>
      <trkpt lat="47.04691" lon="5.98526">
        <ele>449</ele>
        <time>2026-03-18T11:29:00Z</time>
      </trkpt>
      <trkpt lat="47.04685" lon="5.9853">
        <ele>450</ele>
        <time>2026-03-18T11:29:01Z</time>
      </trkpt>
      <trkpt lat="47.04674" lon="5.98535">
        <ele>451</ele>
        <time>2026-03-18T11:29:03Z</time>
      </trkpt>
      <trkpt lat="47.04652" lon="5.98538">
        <ele>453</ele>
        <time>2026-03-18T11:29:07Z</time>
      </trkpt>
      <trkpt lat="47.04638" lon="5.98534">
        <ele>454</ele>
        <time>2026-03-18T11:29:10Z</time>
      </trkpt>
      <trkpt lat="47.04631" lon="5.98531">
        <ele>454</ele>
        <time>2026-03-18T11:29:11Z</time>
      </trkpt>
      <trkpt lat="47.04605" lon="5.98512">
        <ele>456</ele>
        <time>2026-03-18T11:29:16Z</time>
      </trkpt>
      <trkpt lat="47.04592" lon="5.98505">
        <ele>457</ele>
        <time>2026-03-18T11:29:18Z</time>
      </trkpt>
      <trkpt lat="47.04524" lon="5.98486">
        <ele>459</ele>
        <time>2026-03-18T11:29:31Z</time>
      </trkpt>
      <trkpt lat="47.04515" lon="5.98483">
        <ele>459</ele>
        <time>2026-03-18T11:29:32Z</time>
      </trkpt>
      <trkpt lat="47.04505" lon="5.98477">
        <ele>460</ele>
        <time>2026-03-18T11:29:34Z</time>
      </trkpt>
      <trkpt lat="47.04497" lon="5.9847">
        <ele>460</ele>
        <time>2026-03-18T11:29:36Z</time>
      </trkpt>
      <trkpt lat="47.04397" lon="5.98358">
        <ele>462</ele>
        <time>2026-03-18T11:29:58Z</time>
      </trkpt>
      <trkpt lat="47.0436" lon="5.98319">
        <ele>460</ele>
        <time>2026-03-18T11:30:07Z</time>
      </trkpt>
      <trkpt lat="47.0434" lon="5.98295">
        <ele>460</ele>
        <time>2026-03-18T11:30:11Z</time>
      </trkpt>
      <trkpt lat="47.04314" lon="5.98215">
        <ele>460</ele>
        <time>2026-03-18T11:30:22Z</time>
      </trkpt>
      <trkpt lat="47.04257" lon="5.97988">
        <ele>444</ele>
        <time>2026-03-18T11:30:51Z</time>
      </trkpt>
      <trkpt lat="47.04235" lon="5.97831">
        <ele>442</ele>
        <time>2026-03-18T11:31:11Z</time>
      </trkpt>
      <trkpt lat="47.04222" lon="5.97761">
        <ele>439</ele>
        <time>2026-03-18T11:31:19Z</time>
      </trkpt>
      <trkpt lat="47.04217" lon="5.97737">
        <ele>439</ele>
        <time>2026-03-18T11:31:22Z</time>
      </trkpt>
      <trkpt lat="47.04213" lon="5.97728">
        <ele>439</ele>
        <time>2026-03-18T11:31:24Z</time>
      </trkpt>
      <trkpt lat="47.04209" lon="5.97726">
        <ele>438</ele>
        <time>2026-03-18T11:31:25Z</time>
      </trkpt>
      <trkpt lat="47.04204" lon="5.97726">
        <ele>437</ele>
        <time>2026-03-18T11:31:25Z</time>
      </trkpt>
      <trkpt lat="47.042" lon="5.97729">
        <ele>435</ele>
        <time>2026-03-18T11:31:26Z</time>
      </trkpt>
      <trkpt lat="47.04199" lon="5.97736">
        <ele>434</ele>
        <time>2026-03-18T11:31:27Z</time>
      </trkpt>
      <trkpt lat="47.04199" lon="5.97753">
        <ele>433</ele>
        <time>2026-03-18T11:31:29Z</time>
      </trkpt>
      <trkpt lat="47.04202" lon="5.97778">
        <ele>433</ele>
        <time>2026-03-18T11:31:32Z</time>
      </trkpt>
      <trkpt lat="47.042" lon="5.97811">
        <ele>432</ele>
        <time>2026-03-18T11:31:36Z</time>
      </trkpt>
      <trkpt lat="47.04194" lon="5.97847">
        <ele>429</ele>
        <time>2026-03-18T11:31:41Z</time>
      </trkpt>
      <trkpt lat="47.04186" lon="5.97921">
        <ele>426</ele>
        <time>2026-03-18T11:31:50Z</time>
      </trkpt>
      <trkpt lat="47.04185" lon="5.97959">
        <ele>426</ele>
        <time>2026-03-18T11:31:54Z</time>
      </trkpt>
      <trkpt lat="47.04181" lon="5.97993">
        <ele>426</ele>
        <time>2026-03-18T11:31:59Z</time>
      </trkpt>
      <trkpt lat="47.04177" lon="5.98005">
        <ele>425</ele>
        <time>2026-03-18T11:32:00Z</time>
      </trkpt>
      <trkpt lat="47.04171" lon="5.98018">
        <ele>424</ele>
        <time>2026-03-18T11:32:02Z</time>
      </trkpt>
      <trkpt lat="47.04162" lon="5.98028">
        <ele>423</ele>
        <time>2026-03-18T11:32:04Z</time>
      </trkpt>
      <trkpt lat="47.04148" lon="5.98038">
        <ele>421</ele>
        <time>2026-03-18T11:32:07Z</time>
      </trkpt>
      <trkpt lat="47.04119" lon="5.98045">
        <ele>416</ele>
        <time>2026-03-18T11:32:12Z</time>
      </trkpt>
      <trkpt lat="47.04094" lon="5.98048">
        <ele>412</ele>
        <time>2026-03-18T11:32:17Z</time>
      </trkpt>
      <trkpt lat="47.04068" lon="5.98044">
        <ele>408</ele>
        <time>2026-03-18T11:32:21Z</time>
      </trkpt>
      <trkpt lat="47.04036" lon="5.98032">
        <ele>405</ele>
        <time>2026-03-18T11:32:27Z</time>
      </trkpt>
      <trkpt lat="47.04008" lon="5.98028">
        <ele>403</ele>
        <time>2026-03-18T11:32:32Z</time>
      </trkpt>
      <trkpt lat="47.03984" lon="5.98034">
        <ele>402</ele>
        <time>2026-03-18T11:32:36Z</time>
      </trkpt>
      <trkpt lat="47.03926" lon="5.98069">
        <ele>400</ele>
        <time>2026-03-18T11:32:48Z</time>
      </trkpt>
      <trkpt lat="47.03902" lon="5.98077">
        <ele>399</ele>
        <time>2026-03-18T11:32:52Z</time>
      </trkpt>
      <trkpt lat="47.03876" lon="5.98083">
        <ele>398</ele>
        <time>2026-03-18T11:32:57Z</time>
      </trkpt>
      <trkpt lat="47.03825" lon="5.98083">
        <ele>395</ele>
        <time>2026-03-18T11:33:06Z</time>
      </trkpt>
      <trkpt lat="47.03821" lon="5.98082">
        <ele>395</ele>
        <time>2026-03-18T11:33:06Z</time>
      </trkpt>
      <trkpt lat="47.03771" lon="5.98024">
        <ele>392</ele>
        <time>2026-03-18T11:33:18Z</time>
      </trkpt>
      <trkpt lat="47.0373" lon="5.9797">
        <ele>392</ele>
        <time>2026-03-18T11:33:28Z</time>
      </trkpt>
      <trkpt lat="47.03725" lon="5.97962">
        <ele>392</ele>
        <time>2026-03-18T11:33:29Z</time>
      </trkpt>
      <trkpt lat="47.03712" lon="5.97942">
        <ele>392</ele>
        <time>2026-03-18T11:33:32Z</time>
      </trkpt>
      <trkpt lat="47.03695" lon="5.9791">
        <ele>392</ele>
        <time>2026-03-18T11:33:37Z</time>
      </trkpt>
      <trkpt lat="47.0369" lon="5.97898">
        <ele>392</ele>
        <time>2026-03-18T11:33:39Z</time>
      </trkpt>
      <trkpt lat="47.03682" lon="5.97881">
        <ele>392</ele>
        <time>2026-03-18T11:33:41Z</time>
      </trkpt>
      <trkpt lat="47.03675" lon="5.97855">
        <ele>392</ele>
        <time>2026-03-18T11:33:45Z</time>
      </trkpt>
      <trkpt lat="47.03667" lon="5.97818">
        <ele>392</ele>
        <time>2026-03-18T11:33:50Z</time>
      </trkpt>
      <trkpt lat="47.03663" lon="5.97783">
        <ele>392</ele>
        <time>2026-03-18T11:33:54Z</time>
      </trkpt>
      <trkpt lat="47.0365" lon="5.97734">
        <ele>393</ele>
        <time>2026-03-18T11:34:00Z</time>
      </trkpt>
      <trkpt lat="47.03644" lon="5.97708">
        <ele>394</ele>
        <time>2026-03-18T11:34:04Z</time>
      </trkpt>
      <trkpt lat="47.03638" lon="5.97674">
        <ele>395</ele>
        <time>2026-03-18T11:34:08Z</time>
      </trkpt>
      <trkpt lat="47.03632" lon="5.97628">
        <ele>396</ele>
        <time>2026-03-18T11:34:13Z</time>
      </trkpt>
      <trkpt lat="47.03622" lon="5.9759">
        <ele>396</ele>
        <time>2026-03-18T11:34:18Z</time>
      </trkpt>
      <trkpt lat="47.03608" lon="5.97555">
        <ele>396</ele>
        <time>2026-03-18T11:34:23Z</time>
      </trkpt>
      <trkpt lat="47.03592" lon="5.9753">
        <ele>395</ele>
        <time>2026-03-18T11:34:27Z</time>
      </trkpt>
      <trkpt lat="47.03568" lon="5.97496">
        <ele>394</ele>
        <time>2026-03-18T11:34:33Z</time>
      </trkpt>
      <trkpt lat="47.03542" lon="5.97469">
        <ele>394</ele>
        <time>2026-03-18T11:34:39Z</time>
      </trkpt>
      <trkpt lat="47.03519" lon="5.97444">
        <ele>393</ele>
        <time>2026-03-18T11:34:44Z</time>
      </trkpt>
      <trkpt lat="47.03497" lon="5.9741">
        <ele>392</ele>
        <time>2026-03-18T11:34:50Z</time>
      </trkpt>
      <trkpt lat="47.03471" lon="5.97366">
        <ele>391</ele>
        <time>2026-03-18T11:34:57Z</time>
      </trkpt>
      <trkpt lat="47.03433" lon="5.97313">
        <ele>391</ele>
        <time>2026-03-18T11:35:06Z</time>
      </trkpt>
      <trkpt lat="47.03413" lon="5.9728">
        <ele>390</ele>
        <time>2026-03-18T11:35:12Z</time>
      </trkpt>
      <trkpt lat="47.03389" lon="5.97225">
        <ele>390</ele>
        <time>2026-03-18T11:35:20Z</time>
      </trkpt>
      <trkpt lat="47.0338" lon="5.972">
        <ele>390</ele>
        <time>2026-03-18T11:35:23Z</time>
      </trkpt>
      <trkpt lat="47.03363" lon="5.97168">
        <ele>389</ele>
        <time>2026-03-18T11:35:28Z</time>
      </trkpt>
      <trkpt lat="47.03318" lon="5.971">
        <ele>389</ele>
        <time>2026-03-18T11:35:39Z</time>
      </trkpt>
      <trkpt lat="47.03258" lon="5.97025">
        <ele>383</ele>
        <time>2026-03-18T11:35:53Z</time>
      </trkpt>
      <trkpt lat="47.0319" lon="5.9696">
        <ele>373</ele>
        <time>2026-03-18T11:36:08Z</time>
      </trkpt>
      <trkpt lat="47.03169" lon="5.96932">
        <ele>371</ele>
        <time>2026-03-18T11:36:13Z</time>
      </trkpt>
      <trkpt lat="47.03142" lon="5.96888">
        <ele>363</ele>
        <time>2026-03-18T11:36:20Z</time>
      </trkpt>
      <trkpt lat="47.03124" lon="5.96851">
        <ele>358</ele>
        <time>2026-03-18T11:36:26Z</time>
      </trkpt>
      <trkpt lat="47.03117" lon="5.9683">
        <ele>355</ele>
        <time>2026-03-18T11:36:28Z</time>
      </trkpt>
      <trkpt lat="47.03111" lon="5.96805">
        <ele>352</ele>
        <time>2026-03-18T11:36:32Z</time>
      </trkpt>
      <trkpt lat="47.03109" lon="5.96777">
        <ele>351</ele>
        <time>2026-03-18T11:36:35Z</time>
      </trkpt>
      <trkpt lat="47.03114" lon="5.96752">
        <ele>352</ele>
        <time>2026-03-18T11:36:38Z</time>
      </trkpt>
      <trkpt lat="47.0312" lon="5.96737">
        <ele>352</ele>
        <time>2026-03-18T11:36:40Z</time>
      </trkpt>
      <trkpt lat="47.03132" lon="5.96724">
        <ele>353</ele>
        <time>2026-03-18T11:36:43Z</time>
      </trkpt>
      <trkpt lat="47.03173" lon="5.96695">
        <ele>355</ele>
        <time>2026-03-18T11:36:51Z</time>
      </trkpt>
      <trkpt lat="47.03184" lon="5.96685">
        <ele>354</ele>
        <time>2026-03-18T11:36:53Z</time>
      </trkpt>
      <trkpt lat="47.03214" lon="5.96662">
        <ele>352</ele>
        <time>2026-03-18T11:36:59Z</time>
      </trkpt>
      <trkpt lat="47.0325" lon="5.96624">
        <ele>347</ele>
        <time>2026-03-18T11:37:07Z</time>
      </trkpt>
      <trkpt lat="47.03271" lon="5.96595">
        <ele>344</ele>
        <time>2026-03-18T11:37:12Z</time>
      </trkpt>
      <trkpt lat="47.03289" lon="5.96565">
        <ele>343</ele>
        <time>2026-03-18T11:37:17Z</time>
      </trkpt>
      <trkpt lat="47.03305" lon="5.9654">
        <ele>342</ele>
        <time>2026-03-18T11:37:21Z</time>
      </trkpt>
      <trkpt lat="47.03326" lon="5.96509">
        <ele>341</ele>
        <time>2026-03-18T11:37:27Z</time>
      </trkpt>
      <trkpt lat="47.03341" lon="5.96492">
        <ele>340</ele>
        <time>2026-03-18T11:37:30Z</time>
      </trkpt>
      <trkpt lat="47.03358" lon="5.96478">
        <ele>340</ele>
        <time>2026-03-18T11:37:34Z</time>
      </trkpt>
      <trkpt lat="47.03384" lon="5.96463">
        <ele>340</ele>
        <time>2026-03-18T11:37:39Z</time>
      </trkpt>
      <trkpt lat="47.03398" lon="5.9645">
        <ele>340</ele>
        <time>2026-03-18T11:37:41Z</time>
      </trkpt>
      <trkpt lat="47.03408" lon="5.96437">
        <ele>339</ele>
        <time>2026-03-18T11:37:44Z</time>
      </trkpt>
      <trkpt lat="47.03418" lon="5.96417">
        <ele>338</ele>
        <time>2026-03-18T11:37:47Z</time>
      </trkpt>
      <trkpt lat="47.03429" lon="5.96384">
        <ele>340</ele>
        <time>2026-03-18T11:37:51Z</time>
      </trkpt>
      <trkpt lat="47.03436" lon="5.96353">
        <ele>342</ele>
        <time>2026-03-18T11:37:55Z</time>
      </trkpt>
      <trkpt lat="47.0344" lon="5.96325">
        <ele>344</ele>
        <time>2026-03-18T11:37:59Z</time>
      </trkpt>
      <trkpt lat="47.03441" lon="5.96292">
        <ele>347</ele>
        <time>2026-03-18T11:38:03Z</time>
      </trkpt>
      <trkpt lat="47.0344" lon="5.96263">
        <ele>348</ele>
        <time>2026-03-18T11:38:06Z</time>
      </trkpt>
      <trkpt lat="47.03438" lon="5.96244">
        <ele>349</ele>
        <time>2026-03-18T11:38:09Z</time>
      </trkpt>
      <trkpt lat="47.03433" lon="5.96225">
        <ele>349</ele>
        <time>2026-03-18T11:38:11Z</time>
      </trkpt>
      <trkpt lat="47.03423" lon="5.96201">
        <ele>346</ele>
        <time>2026-03-18T11:38:15Z</time>
      </trkpt>
      <trkpt lat="47.03412" lon="5.96178">
        <ele>344</ele>
        <time>2026-03-18T11:38:18Z</time>
      </trkpt>
      <trkpt lat="47.03344" lon="5.96061">
        <ele>336</ele>
        <time>2026-03-18T11:38:37Z</time>
      </trkpt>
      <trkpt lat="47.03326" lon="5.96025">
        <ele>335</ele>
        <time>2026-03-18T11:38:42Z</time>
      </trkpt>
      <trkpt lat="47.03296" lon="5.9595">
        <ele>337</ele>
        <time>2026-03-18T11:38:53Z</time>
      </trkpt>
      <trkpt lat="47.03283" lon="5.95921">
        <ele>335</ele>
        <time>2026-03-18T11:38:57Z</time>
      </trkpt>
      <trkpt lat="47.03252" lon="5.95839">
        <ele>329</ele>
        <time>2026-03-18T11:39:08Z</time>
      </trkpt>
      <trkpt lat="47.03232" lon="5.95782">
        <ele>335</ele>
        <time>2026-03-18T11:39:16Z</time>
      </trkpt>
      <trkpt lat="47.03211" lon="5.95713">
        <ele>340</ele>
        <time>2026-03-18T11:39:25Z</time>
      </trkpt>
      <trkpt lat="47.03203" lon="5.9569">
        <ele>340</ele>
        <time>2026-03-18T11:39:28Z</time>
      </trkpt>
      <trkpt lat="47.03194" lon="5.95677">
        <ele>338</ele>
        <time>2026-03-18T11:39:30Z</time>
      </trkpt>
      <trkpt lat="47.03188" lon="5.95673">
        <ele>336</ele>
        <time>2026-03-18T11:39:32Z</time>
      </trkpt>
      <trkpt lat="47.0318" lon="5.9567">
        <ele>334</ele>
        <time>2026-03-18T11:39:33Z</time>
      </trkpt>
      <trkpt lat="47.0317" lon="5.95669">
        <ele>330</ele>
        <time>2026-03-18T11:39:35Z</time>
      </trkpt>
      <trkpt lat="47.03162" lon="5.95674">
        <ele>330</ele>
        <time>2026-03-18T11:39:36Z</time>
      </trkpt>
      <trkpt lat="47.03137" lon="5.95689">
        <ele>334</ele>
        <time>2026-03-18T11:39:41Z</time>
      </trkpt>
      <trkpt lat="47.03129" lon="5.95689">
        <ele>335</ele>
        <time>2026-03-18T11:39:43Z</time>
      </trkpt>
      <trkpt lat="47.03118" lon="5.9568">
        <ele>335</ele>
        <time>2026-03-18T11:39:45Z</time>
      </trkpt>
      <trkpt lat="47.03089" lon="5.95647">
        <ele>334</ele>
        <time>2026-03-18T11:39:51Z</time>
      </trkpt>
      <trkpt lat="47.03069" lon="5.95627">
        <ele>334</ele>
        <time>2026-03-18T11:39:56Z</time>
      </trkpt>
      <trkpt lat="47.03017" lon="5.95581">
        <ele>335</ele>
        <time>2026-03-18T11:40:06Z</time>
      </trkpt>
      <trkpt lat="47.02977" lon="5.95544">
        <ele>337</ele>
        <time>2026-03-18T11:40:15Z</time>
      </trkpt>
      <trkpt lat="47.02947" lon="5.95512">
        <ele>335</ele>
        <time>2026-03-18T11:40:22Z</time>
      </trkpt>
      <trkpt lat="47.02919" lon="5.95479">
        <ele>334</ele>
        <time>2026-03-18T11:40:28Z</time>
      </trkpt>
      <trkpt lat="47.02875" lon="5.95418">
        <ele>335</ele>
        <time>2026-03-18T11:40:39Z</time>
      </trkpt>
      <trkpt lat="47.02858" lon="5.95393">
        <ele>336</ele>
        <time>2026-03-18T11:40:43Z</time>
      </trkpt>
      <trkpt lat="47.02843" lon="5.95365">
        <ele>335</ele>
        <time>2026-03-18T11:40:47Z</time>
      </trkpt>
      <trkpt lat="47.02794" lon="5.95244">
        <ele>332</ele>
        <time>2026-03-18T11:41:04Z</time>
      </trkpt>
      <trkpt lat="47.02759" lon="5.95177">
        <ele>330</ele>
        <time>2026-03-18T11:41:15Z</time>
      </trkpt>
      <trkpt lat="47.02749" lon="5.95152">
        <ele>329</ele>
        <time>2026-03-18T11:41:18Z</time>
      </trkpt>
      <trkpt lat="47.02739" lon="5.95111">
        <ele>329</ele>
        <time>2026-03-18T11:41:23Z</time>
      </trkpt>
      <trkpt lat="47.02727" lon="5.95018">
        <ele>326</ele>
        <time>2026-03-18T11:41:35Z</time>
      </trkpt>
      <trkpt lat="47.0271" lon="5.9494">
        <ele>323</ele>
        <time>2026-03-18T11:41:45Z</time>
      </trkpt>
      <trkpt lat="47.02702" lon="5.94919">
        <ele>322</ele>
        <time>2026-03-18T11:41:48Z</time>
      </trkpt>
      <trkpt lat="47.0269" lon="5.94898">
        <ele>321</ele>
        <time>2026-03-18T11:41:51Z</time>
      </trkpt>
      <trkpt lat="47.02681" lon="5.94878">
        <ele>321</ele>
        <time>2026-03-18T11:41:54Z</time>
      </trkpt>
      <trkpt lat="47.02679" lon="5.94867">
        <ele>320</ele>
        <time>2026-03-18T11:41:55Z</time>
      </trkpt>
      <trkpt lat="47.02675" lon="5.94851">
        <ele>319</ele>
        <time>2026-03-18T11:41:57Z</time>
      </trkpt>
      <trkpt lat="47.02667" lon="5.9482">
        <ele>318</ele>
        <time>2026-03-18T11:42:01Z</time>
      </trkpt>
      <trkpt lat="47.02618" lon="5.94586">
        <ele>326</ele>
        <time>2026-03-18T11:42:31Z</time>
      </trkpt>
      <trkpt lat="47.02602" lon="5.94516">
        <ele>329</ele>
        <time>2026-03-18T11:42:40Z</time>
      </trkpt>
      <trkpt lat="47.02598" lon="5.94488">
        <ele>331</ele>
        <time>2026-03-18T11:42:44Z</time>
      </trkpt>
      <trkpt lat="47.02586" lon="5.94437">
        <ele>334</ele>
        <time>2026-03-18T11:42:50Z</time>
      </trkpt>
      <trkpt lat="47.02566" lon="5.94344">
        <ele>338</ele>
        <time>2026-03-18T11:43:02Z</time>
      </trkpt>
      <trkpt lat="47.02566" lon="5.94338">
        <ele>338</ele>
        <time>2026-03-18T11:43:03Z</time>
      </trkpt>
      <trkpt lat="47.02568" lon="5.9433">
        <ele>339</ele>
        <time>2026-03-18T11:43:04Z</time>
      </trkpt>
      <trkpt lat="47.0263" lon="5.94374">
        <ele>340</ele>
        <time>2026-03-18T11:43:16Z</time>
      </trkpt>
      <trkpt lat="47.02635" lon="5.94376">
        <ele>340</ele>
        <time>2026-03-18T11:43:17Z</time>
      </trkpt>
      <trkpt lat="47.02677" lon="5.94385">
        <ele>341</ele>
        <time>2026-03-18T11:43:24Z</time>
      </trkpt>
      <trkpt lat="47.02715" lon="5.94399">
        <ele>339</ele>
        <time>2026-03-18T11:43:31Z</time>
      </trkpt>
      <trkpt lat="47.02757" lon="5.94426">
        <ele>337</ele>
        <time>2026-03-18T11:43:40Z</time>
      </trkpt>
      <trkpt lat="47.02797" lon="5.9446">
        <ele>336</ele>
        <time>2026-03-18T11:43:48Z</time>
      </trkpt>
      <trkpt lat="47.02806" lon="5.94471">
        <ele>336</ele>
        <time>2026-03-18T11:43:50Z</time>
      </trkpt>
      <trkpt lat="47.02814" lon="5.94486">
        <ele>336</ele>
        <time>2026-03-18T11:43:52Z</time>
      </trkpt>
      <trkpt lat="47.02849" lon="5.94558">
        <ele>339</ele>
        <time>2026-03-18T11:44:03Z</time>
      </trkpt>
      <trkpt lat="47.02855" lon="5.94571">
        <ele>340</ele>
        <time>2026-03-18T11:44:05Z</time>
      </trkpt>
      <trkpt lat="47.02864" lon="5.94599">
        <ele>341</ele>
        <time>2026-03-18T11:44:09Z</time>
      </trkpt>
      <trkpt lat="47.0288" lon="5.94682">
        <ele>341</ele>
        <time>2026-03-18T11:44:19Z</time>
      </trkpt>
      <trkpt lat="47.02921" lon="5.94767">
        <ele>338</ele>
        <time>2026-03-18T11:44:32Z</time>
      </trkpt>
      <trkpt lat="47.02933" lon="5.9478">
        <ele>336</ele>
        <time>2026-03-18T11:44:34Z</time>
      </trkpt>
      <trkpt lat="47.02941" lon="5.94786">
        <ele>335</ele>
        <time>2026-03-18T11:44:36Z</time>
      </trkpt>
      <trkpt lat="47.0295" lon="5.94788">
        <ele>335</ele>
        <time>2026-03-18T11:44:37Z</time>
      </trkpt>
      <trkpt lat="47.02966" lon="5.94783">
        <ele>337</ele>
        <time>2026-03-18T11:44:40Z</time>
      </trkpt>
      <trkpt lat="47.03048" lon="5.9475">
        <ele>344</ele>
        <time>2026-03-18T11:44:56Z</time>
      </trkpt>
      <trkpt lat="47.03157" lon="5.94721">
        <ele>336</ele>
        <time>2026-03-18T11:45:15Z</time>
      </trkpt>
      <trkpt lat="47.0317" lon="5.94716">
        <ele>335</ele>
        <time>2026-03-18T11:45:18Z</time>
      </trkpt>
      <trkpt lat="47.03184" lon="5.94708">
        <ele>334</ele>
        <time>2026-03-18T11:45:20Z</time>
      </trkpt>
      <trkpt lat="47.03197" lon="5.94698">
        <ele>334</ele>
        <time>2026-03-18T11:45:23Z</time>
      </trkpt>
      <trkpt lat="47.03244" lon="5.94643">
        <ele>333</ele>
        <time>2026-03-18T11:45:34Z</time>
      </trkpt>
      <trkpt lat="47.03309" lon="5.94584">
        <ele>327</ele>
        <time>2026-03-18T11:45:47Z</time>
      </trkpt>
      <trkpt lat="47.03332" lon="5.94556">
        <ele>327</ele>
        <time>2026-03-18T11:45:53Z</time>
      </trkpt>
      <trkpt lat="47.03369" lon="5.94507">
        <ele>330</ele>
        <time>2026-03-18T11:46:01Z</time>
      </trkpt>
      <trkpt lat="47.03397" lon="5.94474">
        <ele>334</ele>
        <time>2026-03-18T11:46:08Z</time>
      </trkpt>
      <trkpt lat="47.03414" lon="5.94457">
        <ele>336</ele>
        <time>2026-03-18T11:46:11Z</time>
      </trkpt>
      <trkpt lat="47.03427" lon="5.94446">
        <ele>337</ele>
        <time>2026-03-18T11:46:14Z</time>
      </trkpt>
      <trkpt lat="47.03442" lon="5.94438">
        <ele>338</ele>
        <time>2026-03-18T11:46:17Z</time>
      </trkpt>
      <trkpt lat="47.0346" lon="5.94434">
        <ele>336</ele>
        <time>2026-03-18T11:46:20Z</time>
      </trkpt>
      <trkpt lat="47.03477" lon="5.94432">
        <ele>335</ele>
        <time>2026-03-18T11:46:23Z</time>
      </trkpt>
      <trkpt lat="47.03637" lon="5.94468">
        <ele>333</ele>
        <time>2026-03-18T11:46:52Z</time>
      </trkpt>
      <trkpt lat="47.03846" lon="5.94553">
        <ele>329</ele>
        <time>2026-03-18T11:47:31Z</time>
      </trkpt>
      <trkpt lat="47.03883" lon="5.9456">
        <ele>327</ele>
        <time>2026-03-18T11:47:37Z</time>
      </trkpt>
      <trkpt lat="47.03944" lon="5.94557">
        <ele>326</ele>
        <time>2026-03-18T11:47:48Z</time>
      </trkpt>
      <trkpt lat="47.04107" lon="5.94513">
        <ele>327</ele>
        <time>2026-03-18T11:48:18Z</time>
      </trkpt>
      <trkpt lat="47.04132" lon="5.94511">
        <ele>327</ele>
        <time>2026-03-18T11:48:22Z</time>
      </trkpt>
      <trkpt lat="47.04249" lon="5.94531">
        <ele>327</ele>
        <time>2026-03-18T11:48:43Z</time>
      </trkpt>
      <trkpt lat="47.0427" lon="5.9453">
        <ele>327</ele>
        <time>2026-03-18T11:48:47Z</time>
      </trkpt>
      <trkpt lat="47.04286" lon="5.94525">
        <ele>328</ele>
        <time>2026-03-18T11:48:50Z</time>
      </trkpt>
      <trkpt lat="47.04344" lon="5.94491">
        <ele>331</ele>
        <time>2026-03-18T11:49:01Z</time>
      </trkpt>
      <trkpt lat="47.04355" lon="5.94486">
        <ele>332</ele>
        <time>2026-03-18T11:49:03Z</time>
      </trkpt>
      <trkpt lat="47.04371" lon="5.94486">
        <ele>333</ele>
        <time>2026-03-18T11:49:06Z</time>
      </trkpt>
      <trkpt lat="47.04381" lon="5.9449">
        <ele>333</ele>
        <time>2026-03-18T11:49:08Z</time>
      </trkpt>
      <trkpt lat="47.04387" lon="5.94493">
        <ele>334</ele>
        <time>2026-03-18T11:49:09Z</time>
      </trkpt>
      <trkpt lat="47.04397" lon="5.94509">
        <ele>333</ele>
        <time>2026-03-18T11:49:11Z</time>
      </trkpt>
      <trkpt lat="47.0443" lon="5.94577">
        <ele>334</ele>
        <time>2026-03-18T11:49:21Z</time>
      </trkpt>
      <trkpt lat="47.04433" lon="5.94589">
        <ele>334</ele>
        <time>2026-03-18T11:49:23Z</time>
      </trkpt>
      <trkpt lat="47.04435" lon="5.94603">
        <ele>334</ele>
        <time>2026-03-18T11:49:25Z</time>
      </trkpt>
      <trkpt lat="47.04436" lon="5.94625">
        <ele>334</ele>
        <time>2026-03-18T11:49:27Z</time>
      </trkpt>
      <trkpt lat="47.04434" lon="5.94672">
        <ele>334</ele>
        <time>2026-03-18T11:49:33Z</time>
      </trkpt>
      <trkpt lat="47.04435" lon="5.94679">
        <ele>334</ele>
        <time>2026-03-18T11:49:34Z</time>
      </trkpt>
      <trkpt lat="47.04438" lon="5.94685">
        <ele>335</ele>
        <time>2026-03-18T11:49:35Z</time>
      </trkpt>
      <trkpt lat="47.0444" lon="5.94689">
        <ele>335</ele>
        <time>2026-03-18T11:49:35Z</time>
      </trkpt>
      <trkpt lat="47.04464" lon="5.94709">
        <ele>338</ele>
        <time>2026-03-18T11:49:40Z</time>
      </trkpt>
      <trkpt lat="47.04502" lon="5.94748">
        <ele>344</ele>
        <time>2026-03-18T11:49:49Z</time>
      </trkpt>
      <trkpt lat="47.04529" lon="5.94756">
        <ele>345</ele>
        <time>2026-03-18T11:49:54Z</time>
      </trkpt>
      <trkpt lat="47.04533" lon="5.94759">
        <ele>346</ele>
        <time>2026-03-18T11:49:54Z</time>
      </trkpt>
      <trkpt lat="47.0454" lon="5.94774">
        <ele>346</ele>
        <time>2026-03-18T11:49:57Z</time>
      </trkpt>
      <trkpt lat="47.04553" lon="5.94817">
        <ele>347</ele>
        <time>2026-03-18T11:50:02Z</time>
      </trkpt>
      <trkpt lat="47.04563" lon="5.94879">
        <ele>348</ele>
        <time>2026-03-18T11:50:10Z</time>
      </trkpt>
      <trkpt lat="47.04569" lon="5.94896">
        <ele>349</ele>
        <time>2026-03-18T11:50:12Z</time>
      </trkpt>
      <trkpt lat="47.04568" lon="5.9491">
        <ele>349</ele>
        <time>2026-03-18T11:50:14Z</time>
      </trkpt>
      <trkpt lat="47.04569" lon="5.94923">
        <ele>349</ele>
        <time>2026-03-18T11:50:16Z</time>
      </trkpt>
      <trkpt lat="47.04601" lon="5.95061">
        <ele>349</ele>
        <time>2026-03-18T11:50:33Z</time>
      </trkpt>
      <trkpt lat="47.0461" lon="5.95091">
        <ele>350</ele>
        <time>2026-03-18T11:50:37Z</time>
      </trkpt>
      <trkpt lat="47.04618" lon="5.95112">
        <ele>352</ele>
        <time>2026-03-18T11:50:40Z</time>
      </trkpt>
      <trkpt lat="47.04627" lon="5.95135">
        <ele>353</ele>
        <time>2026-03-18T11:50:43Z</time>
      </trkpt>
      <trkpt lat="47.04632" lon="5.95159">
        <ele>354</ele>
        <time>2026-03-18T11:50:46Z</time>
      </trkpt>
      <trkpt lat="47.04634" lon="5.95183">
        <ele>355</ele>
        <time>2026-03-18T11:50:49Z</time>
      </trkpt>
      <trkpt lat="47.04639" lon="5.95207">
        <ele>355</ele>
        <time>2026-03-18T11:50:52Z</time>
      </trkpt>
      <trkpt lat="47.04645" lon="5.95228">
        <ele>356</ele>
        <time>2026-03-18T11:50:55Z</time>
      </trkpt>
      <trkpt lat="47.04667" lon="5.95285">
        <ele>357</ele>
        <time>2026-03-18T11:51:03Z</time>
      </trkpt>
      <trkpt lat="47.047" lon="5.95389">
        <ele>362</ele>
        <time>2026-03-18T11:51:17Z</time>
      </trkpt>
      <trkpt lat="47.0475" lon="5.95495">
        <ele>364</ele>
        <time>2026-03-18T11:51:33Z</time>
      </trkpt>
      <trkpt lat="47.04761" lon="5.95535">
        <ele>365</ele>
        <time>2026-03-18T11:51:38Z</time>
      </trkpt>
      <trkpt lat="47.04779" lon="5.95609">
        <ele>366</ele>
        <time>2026-03-18T11:51:47Z</time>
      </trkpt>
      <trkpt lat="47.04787" lon="5.95638">
        <ele>366</ele>
        <time>2026-03-18T11:51:51Z</time>
      </trkpt>
      <trkpt lat="47.04797" lon="5.9566">
        <ele>366</ele>
        <time>2026-03-18T11:51:54Z</time>
      </trkpt>
      <trkpt lat="47.04821" lon="5.95713">
        <ele>366</ele>
        <time>2026-03-18T11:52:02Z</time>
      </trkpt>
      <trkpt lat="47.04872" lon="5.95804">
        <ele>367</ele>
        <time>2026-03-18T11:52:16Z</time>
      </trkpt>
      <trkpt lat="47.04899" lon="5.95845">
        <ele>367</ele>
        <time>2026-03-18T11:52:23Z</time>
      </trkpt>
      <trkpt lat="47.04932" lon="5.95878">
        <ele>368</ele>
        <time>2026-03-18T11:52:30Z</time>
      </trkpt>
      <trkpt lat="47.0497" lon="5.95909">
        <ele>368</ele>
        <time>2026-03-18T11:52:38Z</time>
      </trkpt>
      <trkpt lat="47.05031" lon="5.95962">
        <ele>370</ele>
        <time>2026-03-18T11:52:51Z</time>
      </trkpt>
      <trkpt lat="47.05073" lon="5.96019">
        <ele>370</ele>
        <time>2026-03-18T11:53:01Z</time>
      </trkpt>
      <trkpt lat="47.05098" lon="5.96055">
        <ele>370</ele>
        <time>2026-03-18T11:53:07Z</time>
      </trkpt>
      <trkpt lat="47.05203" lon="5.96162">
        <ele>368</ele>
        <time>2026-03-18T11:53:30Z</time>
      </trkpt>
      <trkpt lat="47.0526" lon="5.96191">
        <ele>368</ele>
        <time>2026-03-18T11:53:41Z</time>
      </trkpt>
      <trkpt lat="47.05378" lon="5.96222">
        <ele>362</ele>
        <time>2026-03-18T11:54:02Z</time>
      </trkpt>
      <trkpt lat="47.05413" lon="5.96228">
        <ele>360</ele>
        <time>2026-03-18T11:54:08Z</time>
      </trkpt>
      <trkpt lat="47.05432" lon="5.96225">
        <ele>358</ele>
        <time>2026-03-18T11:54:12Z</time>
      </trkpt>
      <trkpt lat="47.0547" lon="5.96218">
        <ele>356</ele>
        <time>2026-03-18T11:54:18Z</time>
      </trkpt>
      <trkpt lat="47.05496" lon="5.96205">
        <ele>355</ele>
        <time>2026-03-18T11:54:23Z</time>
      </trkpt>
      <trkpt lat="47.05563" lon="5.96166">
        <ele>351</ele>
        <time>2026-03-18T11:54:36Z</time>
      </trkpt>
      <trkpt lat="47.05584" lon="5.96148">
        <ele>350</ele>
        <time>2026-03-18T11:54:40Z</time>
      </trkpt>
      <trkpt lat="47.0562" lon="5.96106">
        <ele>348</ele>
        <time>2026-03-18T11:54:49Z</time>
      </trkpt>
      <trkpt lat="47.05633" lon="5.96095">
        <ele>347</ele>
        <time>2026-03-18T11:54:51Z</time>
      </trkpt>
      <trkpt lat="47.05657" lon="5.96079">
        <ele>345</ele>
        <time>2026-03-18T11:54:56Z</time>
      </trkpt>
      <trkpt lat="47.05691" lon="5.96054">
        <ele>341</ele>
        <time>2026-03-18T11:55:03Z</time>
      </trkpt>
      <trkpt lat="47.05705" lon="5.96035">
        <ele>340</ele>
        <time>2026-03-18T11:55:06Z</time>
      </trkpt>
      <trkpt lat="47.05725" lon="5.95999">
        <ele>340</ele>
        <time>2026-03-18T11:55:12Z</time>
      </trkpt>
      <trkpt lat="47.05744" lon="5.95953">
        <ele>337</ele>
        <time>2026-03-18T11:55:18Z</time>
      </trkpt>
      <trkpt lat="47.05866" lon="5.95533">
        <ele>324</ele>
        <time>2026-03-18T11:56:14Z</time>
      </trkpt>
      <trkpt lat="47.05879" lon="5.95491">
        <ele>324</ele>
        <time>2026-03-18T11:56:19Z</time>
      </trkpt>
      <trkpt lat="47.05885" lon="5.95481">
        <ele>323</ele>
        <time>2026-03-18T11:56:21Z</time>
      </trkpt>
      <trkpt lat="47.05892" lon="5.95477">
        <ele>322</ele>
        <time>2026-03-18T11:56:22Z</time>
      </trkpt>
      <trkpt lat="47.05901" lon="5.95476">
        <ele>321</ele>
        <time>2026-03-18T11:56:24Z</time>
      </trkpt>
      <trkpt lat="47.05911" lon="5.95478">
        <ele>320</ele>
        <time>2026-03-18T11:56:26Z</time>
      </trkpt>
      <trkpt lat="47.05922" lon="5.95485">
        <ele>319</ele>
        <time>2026-03-18T11:56:28Z</time>
      </trkpt>
      <trkpt lat="47.05942" lon="5.95498">
        <ele>320</ele>
        <time>2026-03-18T11:56:32Z</time>
      </trkpt>
      <trkpt lat="47.05946" lon="5.955">
        <ele>320</ele>
        <time>2026-03-18T11:56:32Z</time>
      </trkpt>
      <trkpt lat="47.0596" lon="5.95503">
        <ele>321</ele>
        <time>2026-03-18T11:56:35Z</time>
      </trkpt>
      <trkpt lat="47.05965" lon="5.95505">
        <ele>321</ele>
        <time>2026-03-18T11:56:36Z</time>
      </trkpt>
      <trkpt lat="47.05972" lon="5.95507">
        <ele>321</ele>
        <time>2026-03-18T11:56:37Z</time>
      </trkpt>
      <trkpt lat="47.05995" lon="5.95512">
        <ele>322</ele>
        <time>2026-03-18T11:56:41Z</time>
      </trkpt>
      <trkpt lat="47.06" lon="5.95517">
        <ele>322</ele>
        <time>2026-03-18T11:56:42Z</time>
      </trkpt>
      <trkpt lat="47.06002" lon="5.95525">
        <ele>322</ele>
        <time>2026-03-18T11:56:43Z</time>
      </trkpt>
      <trkpt lat="47.06005" lon="5.95592">
        <ele>322</ele>
        <time>2026-03-18T11:56:51Z</time>
      </trkpt>
      <trkpt lat="47.06006" lon="5.95615">
        <ele>322</ele>
        <time>2026-03-18T11:56:54Z</time>
      </trkpt>
      <trkpt lat="47.06004" lon="5.95628">
        <ele>322</ele>
        <time>2026-03-18T11:56:56Z</time>
      </trkpt>
      <trkpt lat="47.05988" lon="5.95699">
        <ele>320</ele>
        <time>2026-03-18T11:57:05Z</time>
      </trkpt>
      <trkpt lat="47.05983" lon="5.9573">
        <ele>319</ele>
        <time>2026-03-18T11:57:09Z</time>
      </trkpt>
      <trkpt lat="47.05976" lon="5.9583">
        <ele>318</ele>
        <time>2026-03-18T11:57:21Z</time>
      </trkpt>
      <trkpt lat="47.05969" lon="5.95928">
        <ele>321</ele>
        <time>2026-03-18T11:57:33Z</time>
      </trkpt>
      <trkpt lat="47.05972" lon="5.95986">
        <ele>323</ele>
        <time>2026-03-18T11:57:40Z</time>
      </trkpt>
      <trkpt lat="47.05983" lon="5.96051">
        <ele>327</ele>
        <time>2026-03-18T11:57:48Z</time>
      </trkpt>
      <trkpt lat="47.05985" lon="5.96072">
        <ele>328</ele>
        <time>2026-03-18T11:57:51Z</time>
      </trkpt>
      <trkpt lat="47.05984" lon="5.96094">
        <ele>329</ele>
        <time>2026-03-18T11:57:53Z</time>
      </trkpt>
      <trkpt lat="47.0598" lon="5.96114">
        <ele>329</ele>
        <time>2026-03-18T11:57:56Z</time>
      </trkpt>
      <trkpt lat="47.05962" lon="5.96185">
        <ele>331</ele>
        <time>2026-03-18T11:58:05Z</time>
      </trkpt>
      <trkpt lat="47.05949" lon="5.96273">
        <ele>335</ele>
        <time>2026-03-18T11:58:16Z</time>
      </trkpt>
      <trkpt lat="47.05925" lon="5.96404">
        <ele>340</ele>
        <time>2026-03-18T11:58:32Z</time>
      </trkpt>
      <trkpt lat="47.05917" lon="5.96465">
        <ele>343</ele>
        <time>2026-03-18T11:58:40Z</time>
      </trkpt>
      <trkpt lat="47.05915" lon="5.96514">
        <ele>345</ele>
        <time>2026-03-18T11:58:46Z</time>
      </trkpt>
      <trkpt lat="47.05914" lon="5.96539">
        <ele>346</ele>
        <time>2026-03-18T11:58:49Z</time>
      </trkpt>
      <trkpt lat="47.05914" lon="5.9658">
        <ele>347</ele>
        <time>2026-03-18T11:58:54Z</time>
      </trkpt>
      <trkpt lat="47.05919" lon="5.96616">
        <ele>348</ele>
        <time>2026-03-18T11:58:58Z</time>
      </trkpt>
      <trkpt lat="47.0593" lon="5.96649">
        <ele>348</ele>
        <time>2026-03-18T11:59:03Z</time>
      </trkpt>
      <trkpt lat="47.0594" lon="5.96667">
        <ele>349</ele>
        <time>2026-03-18T11:59:06Z</time>
      </trkpt>
      <trkpt lat="47.05971" lon="5.96718">
        <ele>352</ele>
        <time>2026-03-18T11:59:14Z</time>
      </trkpt>
      <trkpt lat="47.05976" lon="5.96735">
        <ele>353</ele>
        <time>2026-03-18T11:59:16Z</time>
      </trkpt>
      <trkpt lat="47.05977" lon="5.96753">
        <ele>353</ele>
        <time>2026-03-18T11:59:18Z</time>
      </trkpt>
      <trkpt lat="47.05975" lon="5.96909">
        <ele>360</ele>
        <time>2026-03-18T11:59:37Z</time>
      </trkpt>
      <trkpt lat="47.05972" lon="5.96983">
        <ele>364</ele>
        <time>2026-03-18T11:59:46Z</time>
      </trkpt>
      <trkpt lat="47.05976" lon="5.97028">
        <ele>365</ele>
        <time>2026-03-18T11:59:52Z</time>
      </trkpt>
      <trkpt lat="47.05987" lon="5.97079">
        <ele>366</ele>
        <time>2026-03-18T11:59:58Z</time>
      </trkpt>
      <trkpt lat="47.06004" lon="5.97139">
        <ele>367</ele>
        <time>2026-03-18T12:00:06Z</time>
      </trkpt>
      <trkpt lat="47.06036" lon="5.97236">
        <ele>371</ele>
        <time>2026-03-18T12:00:19Z</time>
      </trkpt>
      <trkpt lat="47.06073" lon="5.97316">
        <ele>373</ele>
        <time>2026-03-18T12:00:31Z</time>
      </trkpt>
      <trkpt lat="47.06076" lon="5.97323">
        <ele>373</ele>
        <time>2026-03-18T12:00:32Z</time>
      </trkpt>
      <trkpt lat="47.06101" lon="5.97409">
        <ele>374</ele>
        <time>2026-03-18T12:00:43Z</time>
      </trkpt>
      <trkpt lat="47.0612" lon="5.97457">
        <ele>376</ele>
        <time>2026-03-18T12:00:50Z</time>
      </trkpt>
      <trkpt lat="47.06144" lon="5.97502">
        <ele>377</ele>
        <time>2026-03-18T12:00:57Z</time>
      </trkpt>
      <trkpt lat="47.06184" lon="5.97555">
        <ele>379</ele>
        <time>2026-03-18T12:01:06Z</time>
      </trkpt>
      <trkpt lat="47.06226" lon="5.97599">
        <ele>380</ele>
        <time>2026-03-18T12:01:16Z</time>
      </trkpt>
      <trkpt lat="47.06328" lon="5.97686">
        <ele>380</ele>
        <time>2026-03-18T12:01:37Z</time>
      </trkpt>
      <trkpt lat="47.06428" lon="5.97773">
        <ele>380</ele>
        <time>2026-03-18T12:01:57Z</time>
      </trkpt>
      <trkpt lat="47.06434" lon="5.97778">
        <ele>380</ele>
        <time>2026-03-18T12:01:59Z</time>
      </trkpt>
      <trkpt lat="47.06462" lon="5.97802">
        <ele>381</ele>
        <time>2026-03-18T12:02:04Z</time>
      </trkpt>
      <trkpt lat="47.06539" lon="5.97869">
        <ele>378</ele>
        <time>2026-03-18T12:02:20Z</time>
      </trkpt>
      <trkpt lat="47.0655" lon="5.97877">
        <ele>377</ele>
        <time>2026-03-18T12:02:22Z</time>
      </trkpt>
      <trkpt lat="47.0671" lon="5.97955">
        <ele>373</ele>
        <time>2026-03-18T12:02:52Z</time>
      </trkpt>
      <trkpt lat="47.06729" lon="5.97962">
        <ele>372</ele>
        <time>2026-03-18T12:02:56Z</time>
      </trkpt>
      <trkpt lat="47.06745" lon="5.97962">
        <ele>372</ele>
        <time>2026-03-18T12:02:59Z</time>
      </trkpt>
      <trkpt lat="47.0676" lon="5.97961">
        <ele>372</ele>
        <time>2026-03-18T12:03:01Z</time>
      </trkpt>
      <trkpt lat="47.06775" lon="5.97956">
        <ele>372</ele>
        <time>2026-03-18T12:03:04Z</time>
      </trkpt>
      <trkpt lat="47.06922" lon="5.97904">
        <ele>370</ele>
        <time>2026-03-18T12:03:31Z</time>
      </trkpt>
      <trkpt lat="47.06953" lon="5.97889">
        <ele>369</ele>
        <time>2026-03-18T12:03:37Z</time>
      </trkpt>
      <trkpt lat="47.07222" lon="5.97744">
        <ele>365</ele>
        <time>2026-03-18T12:04:28Z</time>
      </trkpt>
      <trkpt lat="47.07406" lon="5.97682">
        <ele>369</ele>
        <time>2026-03-18T12:05:01Z</time>
      </trkpt>
      <trkpt lat="47.07413" lon="5.97682">
        <ele>369</ele>
        <time>2026-03-18T12:05:03Z</time>
      </trkpt>
      <trkpt lat="47.07422" lon="5.97684">
        <ele>369</ele>
        <time>2026-03-18T12:05:04Z</time>
      </trkpt>
      <trkpt lat="47.07468" lon="5.97712">
        <ele>367</ele>
        <time>2026-03-18T12:05:13Z</time>
      </trkpt>
      <trkpt lat="47.07488" lon="5.97722">
        <ele>366</ele>
        <time>2026-03-18T12:05:17Z</time>
      </trkpt>
      <trkpt lat="47.07537" lon="5.9774">
        <ele>364</ele>
        <time>2026-03-18T12:05:26Z</time>
      </trkpt>
      <trkpt lat="47.07588" lon="5.97767">
        <ele>361</ele>
        <time>2026-03-18T12:05:36Z</time>
      </trkpt>
      <trkpt lat="47.07603" lon="5.97777">
        <ele>360</ele>
        <time>2026-03-18T12:05:38Z</time>
      </trkpt>
      <trkpt lat="47.07625" lon="5.9779">
        <ele>359</ele>
        <time>2026-03-18T12:05:43Z</time>
      </trkpt>
      <trkpt lat="47.07661" lon="5.9782">
        <ele>357</ele>
        <time>2026-03-18T12:05:50Z</time>
      </trkpt>
      <trkpt lat="47.07698" lon="5.97864">
        <ele>351</ele>
        <time>2026-03-18T12:05:59Z</time>
      </trkpt>
      <trkpt lat="47.07742" lon="5.97905">
        <ele>349</ele>
        <time>2026-03-18T12:06:08Z</time>
      </trkpt>
      <trkpt lat="47.07773" lon="5.9794">
        <ele>345</ele>
        <time>2026-03-18T12:06:15Z</time>
      </trkpt>
      <trkpt lat="47.07795" lon="5.97971">
        <ele>341</ele>
        <time>2026-03-18T12:06:20Z</time>
      </trkpt>
      <trkpt lat="47.07821" lon="5.98003">
        <ele>342</ele>
        <time>2026-03-18T12:06:26Z</time>
      </trkpt>
      <trkpt lat="47.07838" lon="5.98022">
        <ele>340</ele>
        <time>2026-03-18T12:06:30Z</time>
      </trkpt>
      <trkpt lat="47.07891" lon="5.9806">
        <ele>340</ele>
        <time>2026-03-18T12:06:41Z</time>
      </trkpt>
      <trkpt lat="47.0794" lon="5.98122">
        <ele>334</ele>
        <time>2026-03-18T12:06:52Z</time>
      </trkpt>
      <trkpt lat="47.07971" lon="5.98143">
        <ele>333</ele>
        <time>2026-03-18T12:06:58Z</time>
      </trkpt>
      <trkpt lat="47.08024" lon="5.98175">
        <ele>331</ele>
        <time>2026-03-18T12:07:08Z</time>
      </trkpt>
      <trkpt lat="47.08043" lon="5.98191">
        <ele>330</ele>
        <time>2026-03-18T12:07:12Z</time>
      </trkpt>
      <trkpt lat="47.08087" lon="5.98237">
        <ele>326</ele>
        <time>2026-03-18T12:07:22Z</time>
      </trkpt>
      <trkpt lat="47.08131" lon="5.98275">
        <ele>324</ele>
        <time>2026-03-18T12:07:31Z</time>
      </trkpt>
      <trkpt lat="47.08225" lon="5.98334">
        <ele>319</ele>
        <time>2026-03-18T12:07:49Z</time>
      </trkpt>
      <trkpt lat="47.08307" lon="5.98377">
        <ele>318</ele>
        <time>2026-03-18T12:08:05Z</time>
      </trkpt>
      <trkpt lat="47.08339" lon="5.98387">
        <ele>318</ele>
        <time>2026-03-18T12:08:10Z</time>
      </trkpt>
      <trkpt lat="47.0841" lon="5.98403">
        <ele>319</ele>
        <time>2026-03-18T12:08:23Z</time>
      </trkpt>
      <trkpt lat="47.08438" lon="5.98409">
        <ele>320</ele>
        <time>2026-03-18T12:08:28Z</time>
      </trkpt>
      <trkpt lat="47.0862" lon="5.98458">
        <ele>315</ele>
        <time>2026-03-18T12:09:01Z</time>
      </trkpt>
      <trkpt lat="47.08624" lon="5.98464">
        <ele>312</ele>
        <time>2026-03-18T12:09:02Z</time>
      </trkpt>
      <trkpt lat="47.08624" lon="5.98467">
        <ele>311</ele>
        <time>2026-03-18T12:09:03Z</time>
      </trkpt>
      <trkpt lat="47.08653" lon="5.98474">
        <ele>308</ele>
        <time>2026-03-18T12:09:08Z</time>
      </trkpt>
      <trkpt lat="47.08701" lon="5.98486">
        <ele>304</ele>
        <time>2026-03-18T12:09:16Z</time>
      </trkpt>
      <trkpt lat="47.08747" lon="5.98499">
        <ele>301</ele>
        <time>2026-03-18T12:09:25Z</time>
      </trkpt>
      <trkpt lat="47.0878" lon="5.98499">
        <ele>299</ele>
        <time>2026-03-18T12:09:31Z</time>
      </trkpt>
      <trkpt lat="47.08828" lon="5.98481">
        <ele>298</ele>
        <time>2026-03-18T12:09:39Z</time>
      </trkpt>
      <trkpt lat="47.08854" lon="5.98477">
        <ele>298</ele>
        <time>2026-03-18T12:09:44Z</time>
      </trkpt>
      <trkpt lat="47.08869" lon="5.98473">
        <ele>298</ele>
        <time>2026-03-18T12:09:47Z</time>
      </trkpt>
      <trkpt lat="47.08889" lon="5.9846">
        <ele>298</ele>
        <time>2026-03-18T12:09:51Z</time>
      </trkpt>
      <trkpt lat="47.08907" lon="5.98443">
        <ele>299</ele>
        <time>2026-03-18T12:09:54Z</time>
      </trkpt>
      <trkpt lat="47.08914" lon="5.98435">
        <ele>298</ele>
        <time>2026-03-18T12:09:56Z</time>
      </trkpt>
      <trkpt lat="47.0892" lon="5.98425">
        <ele>298</ele>
        <time>2026-03-18T12:09:58Z</time>
      </trkpt>
      <trkpt lat="47.08922" lon="5.98418">
        <ele>299</ele>
        <time>2026-03-18T12:09:59Z</time>
      </trkpt>
      <trkpt lat="47.08923" lon="5.98407">
        <ele>298</ele>
        <time>2026-03-18T12:10:00Z</time>
      </trkpt>
      <trkpt lat="47.08921" lon="5.98392">
        <ele>298</ele>
        <time>2026-03-18T12:10:02Z</time>
      </trkpt>
      <trkpt lat="47.08907" lon="5.98327">
        <ele>300</ele>
        <time>2026-03-18T12:10:10Z</time>
      </trkpt>
      <trkpt lat="47.089" lon="5.98311">
        <ele>301</ele>
        <time>2026-03-18T12:10:12Z</time>
      </trkpt>
      <trkpt lat="47.08894" lon="5.983">
        <ele>302</ele>
        <time>2026-03-18T12:10:14Z</time>
      </trkpt>
      <trkpt lat="47.08883" lon="5.98291">
        <ele>304</ele>
        <time>2026-03-18T12:10:16Z</time>
      </trkpt>
      <trkpt lat="47.0885" lon="5.98278">
        <ele>309</ele>
        <time>2026-03-18T12:10:22Z</time>
      </trkpt>
      <trkpt lat="47.0884" lon="5.98271">
        <ele>311</ele>
        <time>2026-03-18T12:10:24Z</time>
      </trkpt>
      <trkpt lat="47.08834" lon="5.98263">
        <ele>312</ele>
        <time>2026-03-18T12:10:26Z</time>
      </trkpt>
      <trkpt lat="47.08829" lon="5.98254">
        <ele>313</ele>
        <time>2026-03-18T12:10:27Z</time>
      </trkpt>
      <trkpt lat="47.08823" lon="5.98236">
        <ele>314</ele>
        <time>2026-03-18T12:10:30Z</time>
      </trkpt>
      <trkpt lat="47.08821" lon="5.9822">
        <ele>316</ele>
        <time>2026-03-18T12:10:32Z</time>
      </trkpt>
      <trkpt lat="47.08822" lon="5.98202">
        <ele>316</ele>
        <time>2026-03-18T12:10:34Z</time>
      </trkpt>
      <trkpt lat="47.08845" lon="5.97991">
        <ele>322</ele>
        <time>2026-03-18T12:11:00Z</time>
      </trkpt>
      <trkpt lat="47.08862" lon="5.97919">
        <ele>322</ele>
        <time>2026-03-18T12:11:09Z</time>
      </trkpt>
      <trkpt lat="47.08863" lon="5.97899">
        <ele>323</ele>
        <time>2026-03-18T12:11:11Z</time>
      </trkpt>
      <trkpt lat="47.08842" lon="5.97626">
        <ele>337</ele>
        <time>2026-03-18T12:11:45Z</time>
      </trkpt>
      <trkpt lat="47.08839" lon="5.97574">
        <ele>340</ele>
        <time>2026-03-18T12:11:51Z</time>
      </trkpt>
      <trkpt lat="47.08845" lon="5.97414">
        <ele>349</ele>
        <time>2026-03-18T12:12:10Z</time>
      </trkpt>
      <trkpt lat="47.08861" lon="5.97281">
        <ele>346</ele>
        <time>2026-03-18T12:12:27Z</time>
      </trkpt>
      <trkpt lat="47.08867" lon="5.97237">
        <ele>345</ele>
        <time>2026-03-18T12:12:32Z</time>
      </trkpt>
      <trkpt lat="47.08888" lon="5.97126">
        <ele>343</ele>
        <time>2026-03-18T12:12:46Z</time>
      </trkpt>
      <trkpt lat="47.08888" lon="5.97089">
        <ele>347</ele>
        <time>2026-03-18T12:12:51Z</time>
      </trkpt>
      <trkpt lat="47.08878" lon="5.97007">
        <ele>355</ele>
        <time>2026-03-18T12:13:01Z</time>
      </trkpt>
      <trkpt lat="47.08871" lon="5.96962">
        <ele>359</ele>
        <time>2026-03-18T12:13:06Z</time>
      </trkpt>
      <trkpt lat="47.08858" lon="5.96901">
        <ele>363</ele>
        <time>2026-03-18T12:13:14Z</time>
      </trkpt>
      <trkpt lat="47.08856" lon="5.96866">
        <ele>362</ele>
        <time>2026-03-18T12:13:18Z</time>
      </trkpt>
      <trkpt lat="47.08859" lon="5.96834">
        <ele>362</ele>
        <time>2026-03-18T12:13:22Z</time>
      </trkpt>
      <trkpt lat="47.0887" lon="5.96781">
        <ele>362</ele>
        <time>2026-03-18T12:13:29Z</time>
      </trkpt>
      <trkpt lat="47.08878" lon="5.96746">
        <ele>362</ele>
        <time>2026-03-18T12:13:33Z</time>
      </trkpt>
      <trkpt lat="47.08893" lon="5.96691">
        <ele>362</ele>
        <time>2026-03-18T12:13:41Z</time>
      </trkpt>
      <trkpt lat="47.08956" lon="5.9658">
        <ele>366</ele>
        <time>2026-03-18T12:13:58Z</time>
      </trkpt>
      <trkpt lat="47.08977" lon="5.96523">
        <ele>368</ele>
        <time>2026-03-18T12:14:06Z</time>
      </trkpt>
      <trkpt lat="47.08994" lon="5.96497">
        <ele>368</ele>
        <time>2026-03-18T12:14:10Z</time>
      </trkpt>
      <trkpt lat="47.09004" lon="5.96487">
        <ele>368</ele>
        <time>2026-03-18T12:14:12Z</time>
      </trkpt>
      <trkpt lat="47.09017" lon="5.96475">
        <ele>368</ele>
        <time>2026-03-18T12:14:15Z</time>
      </trkpt>
      <trkpt lat="47.09026" lon="5.96468">
        <ele>369</ele>
        <time>2026-03-18T12:14:17Z</time>
      </trkpt>
      <trkpt lat="47.0904" lon="5.9646">
        <ele>369</ele>
        <time>2026-03-18T12:14:20Z</time>
      </trkpt>
      <trkpt lat="47.09078" lon="5.96444">
        <ele>369</ele>
        <time>2026-03-18T12:14:27Z</time>
      </trkpt>
      <trkpt lat="47.09101" lon="5.96436">
        <ele>369</ele>
        <time>2026-03-18T12:14:31Z</time>
      </trkpt>
      <trkpt lat="47.09139" lon="5.96421">
        <ele>369</ele>
        <time>2026-03-18T12:14:38Z</time>
      </trkpt>
      <trkpt lat="47.09157" lon="5.96409">
        <ele>368</ele>
        <time>2026-03-18T12:14:41Z</time>
      </trkpt>
      <trkpt lat="47.09171" lon="5.96396">
        <ele>368</ele>
        <time>2026-03-18T12:14:44Z</time>
      </trkpt>
      <trkpt lat="47.09181" lon="5.96383">
        <ele>368</ele>
        <time>2026-03-18T12:14:47Z</time>
      </trkpt>
      <trkpt lat="47.09191" lon="5.96367">
        <ele>368</ele>
        <time>2026-03-18T12:14:49Z</time>
      </trkpt>
      <trkpt lat="47.09204" lon="5.96324">
        <ele>367</ele>
        <time>2026-03-18T12:14:55Z</time>
      </trkpt>
      <trkpt lat="47.0922" lon="5.96257">
        <ele>367</ele>
        <time>2026-03-18T12:15:04Z</time>
      </trkpt>
      <trkpt lat="47.09268" lon="5.96052">
        <ele>362</ele>
        <time>2026-03-18T12:15:30Z</time>
      </trkpt>
      <trkpt lat="47.09327" lon="5.95793">
        <ele>360</ele>
        <time>2026-03-18T12:16:03Z</time>
      </trkpt>
      <trkpt lat="47.09336" lon="5.95753">
        <ele>359</ele>
        <time>2026-03-18T12:16:08Z</time>
      </trkpt>
      <trkpt lat="47.09339" lon="5.95716">
        <ele>359</ele>
        <time>2026-03-18T12:16:13Z</time>
      </trkpt>
      <trkpt lat="47.09343" lon="5.95698">
        <ele>360</ele>
        <time>2026-03-18T12:16:15Z</time>
      </trkpt>
      <trkpt lat="47.0935" lon="5.95683">
        <ele>360</ele>
        <time>2026-03-18T12:16:17Z</time>
      </trkpt>
      <trkpt lat="47.09361" lon="5.95667">
        <ele>360</ele>
        <time>2026-03-18T12:16:20Z</time>
      </trkpt>
      <trkpt lat="47.09374" lon="5.95654">
        <ele>360</ele>
        <time>2026-03-18T12:16:23Z</time>
      </trkpt>
      <trkpt lat="47.09402" lon="5.95635">
        <ele>360</ele>
        <time>2026-03-18T12:16:28Z</time>
      </trkpt>
      <trkpt lat="47.09418" lon="5.95621">
        <ele>360</ele>
        <time>2026-03-18T12:16:31Z</time>
      </trkpt>
      <trkpt lat="47.09429" lon="5.95599">
        <ele>360</ele>
        <time>2026-03-18T12:16:35Z</time>
      </trkpt>
      <trkpt lat="47.09458" lon="5.95528">
        <ele>361</ele>
        <time>2026-03-18T12:16:45Z</time>
      </trkpt>
      <trkpt lat="47.09471" lon="5.95511">
        <ele>361</ele>
        <time>2026-03-18T12:16:48Z</time>
      </trkpt>
      <trkpt lat="47.09479" lon="5.95504">
        <ele>361</ele>
        <time>2026-03-18T12:16:50Z</time>
      </trkpt>
      <trkpt lat="47.09498" lon="5.95501">
        <ele>361</ele>
        <time>2026-03-18T12:16:53Z</time>
      </trkpt>
      <trkpt lat="47.09539" lon="5.95486">
        <ele>361</ele>
        <time>2026-03-18T12:17:00Z</time>
      </trkpt>
      <trkpt lat="47.09585" lon="5.95468">
        <ele>361</ele>
        <time>2026-03-18T12:17:09Z</time>
      </trkpt>
      <trkpt lat="47.09633" lon="5.95456">
        <ele>361</ele>
        <time>2026-03-18T12:17:18Z</time>
      </trkpt>
      <trkpt lat="47.09655" lon="5.95456">
        <ele>361</ele>
        <time>2026-03-18T12:17:22Z</time>
      </trkpt>
      <trkpt lat="47.09676" lon="5.95462">
        <ele>361</ele>
        <time>2026-03-18T12:17:25Z</time>
      </trkpt>
      <trkpt lat="47.09827" lon="5.95541">
        <ele>365</ele>
        <time>2026-03-18T12:17:54Z</time>
      </trkpt>
      <trkpt lat="47.0985" lon="5.95547">
        <ele>364</ele>
        <time>2026-03-18T12:17:58Z</time>
      </trkpt>
      <trkpt lat="47.09865" lon="5.95551">
        <ele>364</ele>
        <time>2026-03-18T12:18:01Z</time>
      </trkpt>
      <trkpt lat="47.10044" lon="5.95564">
        <ele>364</ele>
        <time>2026-03-18T12:18:33Z</time>
      </trkpt>
      <trkpt lat="47.10078" lon="5.95561">
        <ele>365</ele>
        <time>2026-03-18T12:18:39Z</time>
      </trkpt>
      <trkpt lat="47.10383" lon="5.95463">
        <ele>366</ele>
        <time>2026-03-18T12:19:34Z</time>
      </trkpt>
      <trkpt lat="47.10418" lon="5.95455">
        <ele>366</ele>
        <time>2026-03-18T12:19:41Z</time>
      </trkpt>
      <trkpt lat="47.10444" lon="5.95451">
        <ele>365</ele>
        <time>2026-03-18T12:19:45Z</time>
      </trkpt>
      <trkpt lat="47.10494" lon="5.95449">
        <ele>364</ele>
        <time>2026-03-18T12:19:54Z</time>
      </trkpt>
      <trkpt lat="47.10561" lon="5.9545">
        <ele>363</ele>
        <time>2026-03-18T12:20:06Z</time>
      </trkpt>
      <trkpt lat="47.10605" lon="5.9546">
        <ele>363</ele>
        <time>2026-03-18T12:20:14Z</time>
      </trkpt>
      <trkpt lat="47.10779" lon="5.95506">
        <ele>360</ele>
        <time>2026-03-18T12:20:45Z</time>
      </trkpt>
      <trkpt lat="47.10822" lon="5.95517">
        <ele>359</ele>
        <time>2026-03-18T12:20:53Z</time>
      </trkpt>
      <trkpt lat="47.10874" lon="5.95542">
        <ele>357</ele>
        <time>2026-03-18T12:21:03Z</time>
      </trkpt>
      <trkpt lat="47.11027" lon="5.95642">
        <ele>350</ele>
        <time>2026-03-18T12:21:33Z</time>
      </trkpt>
      <trkpt lat="47.11103" lon="5.9567">
        <ele>348</ele>
        <time>2026-03-18T12:21:47Z</time>
      </trkpt>
      <trkpt lat="47.11202" lon="5.95685">
        <ele>352</ele>
        <time>2026-03-18T12:22:04Z</time>
      </trkpt>
      <trkpt lat="47.11298" lon="5.95704">
        <ele>354</ele>
        <time>2026-03-18T12:22:22Z</time>
      </trkpt>
      <trkpt lat="47.11346" lon="5.95708">
        <ele>353</ele>
        <time>2026-03-18T12:22:30Z</time>
      </trkpt>
      <trkpt lat="47.11443" lon="5.95693">
        <ele>354</ele>
        <time>2026-03-18T12:22:47Z</time>
      </trkpt>
      <trkpt lat="47.11448" lon="5.95691">
        <ele>354</ele>
        <time>2026-03-18T12:22:48Z</time>
      </trkpt>
      <trkpt lat="47.11463" lon="5.95685">
        <ele>355</ele>
        <time>2026-03-18T12:22:51Z</time>
      </trkpt>
      <trkpt lat="47.11476" lon="5.95677">
        <ele>356</ele>
        <time>2026-03-18T12:22:54Z</time>
      </trkpt>
      <trkpt lat="47.11507" lon="5.95648">
        <ele>358</ele>
        <time>2026-03-18T12:23:00Z</time>
      </trkpt>
      <trkpt lat="47.11519" lon="5.95637">
        <ele>358</ele>
        <time>2026-03-18T12:23:03Z</time>
      </trkpt>
      <trkpt lat="47.11542" lon="5.95626">
        <ele>358</ele>
        <time>2026-03-18T12:23:07Z</time>
      </trkpt>
      <trkpt lat="47.11602" lon="5.95608">
        <ele>358</ele>
        <time>2026-03-18T12:23:18Z</time>
      </trkpt>
      <trkpt lat="47.11619" lon="5.95606">
        <ele>358</ele>
        <time>2026-03-18T12:23:21Z</time>
      </trkpt>
      <trkpt lat="47.11633" lon="5.95607">
        <ele>359</ele>
        <time>2026-03-18T12:23:23Z</time>
      </trkpt>
      <trkpt lat="47.11673" lon="5.95617">
        <ele>361</ele>
        <time>2026-03-18T12:23:31Z</time>
      </trkpt>
      <trkpt lat="47.11797" lon="5.9565">
        <ele>368</ele>
        <time>2026-03-18T12:23:53Z</time>
      </trkpt>
      <trkpt lat="47.11843" lon="5.95665">
        <ele>369</ele>
        <time>2026-03-18T12:24:01Z</time>
      </trkpt>
      <trkpt lat="47.11897" lon="5.95687">
        <ele>371</ele>
        <time>2026-03-18T12:24:11Z</time>
      </trkpt>
      <trkpt lat="47.11994" lon="5.95727">
        <ele>374</ele>
        <time>2026-03-18T12:24:29Z</time>
      </trkpt>
      <trkpt lat="47.1201" lon="5.95732">
        <ele>374</ele>
        <time>2026-03-18T12:24:32Z</time>
      </trkpt>
      <trkpt lat="47.12041" lon="5.95739">
        <ele>373</ele>
        <time>2026-03-18T12:24:38Z</time>
      </trkpt>
      <trkpt lat="47.12078" lon="5.95738">
        <ele>371</ele>
        <time>2026-03-18T12:24:44Z</time>
      </trkpt>
      <trkpt lat="47.12149" lon="5.95714">
        <ele>372</ele>
        <time>2026-03-18T12:24:57Z</time>
      </trkpt>
      <trkpt lat="47.12183" lon="5.95699">
        <ele>371</ele>
        <time>2026-03-18T12:25:04Z</time>
      </trkpt>
      <trkpt lat="47.122" lon="5.95687">
        <ele>370</ele>
        <time>2026-03-18T12:25:07Z</time>
      </trkpt>
      <trkpt lat="47.12215" lon="5.95672">
        <ele>369</ele>
        <time>2026-03-18T12:25:10Z</time>
      </trkpt>
      <trkpt lat="47.12227" lon="5.9566">
        <ele>368</ele>
        <time>2026-03-18T12:25:13Z</time>
      </trkpt>
      <trkpt lat="47.12296" lon="5.95592">
        <ele>369</ele>
        <time>2026-03-18T12:25:28Z</time>
      </trkpt>
      <trkpt lat="47.12416" lon="5.9549">
        <ele>366</ele>
        <time>2026-03-18T12:25:52Z</time>
      </trkpt>
      <trkpt lat="47.12431" lon="5.95482">
        <ele>366</ele>
        <time>2026-03-18T12:25:55Z</time>
      </trkpt>
      <trkpt lat="47.12444" lon="5.95478">
        <ele>367</ele>
        <time>2026-03-18T12:25:58Z</time>
      </trkpt>
      <trkpt lat="47.12459" lon="5.95477">
        <ele>367</ele>
        <time>2026-03-18T12:26:00Z</time>
      </trkpt>
      <trkpt lat="47.12473" lon="5.9548">
        <ele>367</ele>
        <time>2026-03-18T12:26:03Z</time>
      </trkpt>
      <trkpt lat="47.12486" lon="5.95485">
        <ele>367</ele>
        <time>2026-03-18T12:26:05Z</time>
      </trkpt>
      <trkpt lat="47.125" lon="5.95494">
        <ele>366</ele>
        <time>2026-03-18T12:26:08Z</time>
      </trkpt>
      <trkpt lat="47.12525" lon="5.95513">
        <ele>366</ele>
        <time>2026-03-18T12:26:13Z</time>
      </trkpt>
      <trkpt lat="47.12542" lon="5.9552">
        <ele>366</ele>
        <time>2026-03-18T12:26:16Z</time>
      </trkpt>
      <trkpt lat="47.12567" lon="5.95525">
        <ele>366</ele>
        <time>2026-03-18T12:26:20Z</time>
      </trkpt>
      <trkpt lat="47.12596" lon="5.9553">
        <ele>365</ele>
        <time>2026-03-18T12:26:26Z</time>
      </trkpt>
      <trkpt lat="47.12609" lon="5.95536">
        <ele>365</ele>
        <time>2026-03-18T12:26:28Z</time>
      </trkpt>
      <trkpt lat="47.12644" lon="5.95567">
        <ele>363</ele>
        <time>2026-03-18T12:26:35Z</time>
      </trkpt>
      <trkpt lat="47.1265" lon="5.95571">
        <ele>363</ele>
        <time>2026-03-18T12:26:37Z</time>
      </trkpt>
      <trkpt lat="47.12653" lon="5.95572">
        <ele>363</ele>
        <time>2026-03-18T12:26:37Z</time>
      </trkpt>
      <trkpt lat="47.12661" lon="5.95572">
        <ele>362</ele>
        <time>2026-03-18T12:26:39Z</time>
      </trkpt>
      <trkpt lat="47.12668" lon="5.95569">
        <ele>362</ele>
        <time>2026-03-18T12:26:40Z</time>
      </trkpt>
      <trkpt lat="47.12688" lon="5.95555">
        <ele>362</ele>
        <time>2026-03-18T12:26:44Z</time>
      </trkpt>
      <trkpt lat="47.12713" lon="5.95536">
        <ele>361</ele>
        <time>2026-03-18T12:26:49Z</time>
      </trkpt>
      <trkpt lat="47.12728" lon="5.95527">
        <ele>361</ele>
        <time>2026-03-18T12:26:52Z</time>
      </trkpt>
      <trkpt lat="47.12756" lon="5.95502">
        <ele>361</ele>
        <time>2026-03-18T12:26:57Z</time>
      </trkpt>
      <trkpt lat="47.12769" lon="5.95496">
        <ele>360</ele>
        <time>2026-03-18T12:27:00Z</time>
      </trkpt>
      <trkpt lat="47.12781" lon="5.95496">
        <ele>360</ele>
        <time>2026-03-18T12:27:02Z</time>
      </trkpt>
      <trkpt lat="47.12816" lon="5.95499">
        <ele>359</ele>
        <time>2026-03-18T12:27:08Z</time>
      </trkpt>
      <trkpt lat="47.12829" lon="5.95499">
        <ele>358</ele>
        <time>2026-03-18T12:27:11Z</time>
      </trkpt>
      <trkpt lat="47.1291" lon="5.95494">
        <ele>356</ele>
        <time>2026-03-18T12:27:25Z</time>
      </trkpt>
      <trkpt lat="47.12925" lon="5.95497">
        <ele>355</ele>
        <time>2026-03-18T12:27:28Z</time>
      </trkpt>
      <trkpt lat="47.12939" lon="5.95503">
        <ele>355</ele>
        <time>2026-03-18T12:27:30Z</time>
      </trkpt>
      <trkpt lat="47.12982" lon="5.95533">
        <ele>353</ele>
        <time>2026-03-18T12:27:39Z</time>
      </trkpt>
      <trkpt lat="47.13017" lon="5.95554">
        <ele>352</ele>
        <time>2026-03-18T12:27:45Z</time>
      </trkpt>
      <trkpt lat="47.13037" lon="5.95563">
        <ele>352</ele>
        <time>2026-03-18T12:27:49Z</time>
      </trkpt>
      <trkpt lat="47.13086" lon="5.95583">
        <ele>350</ele>
        <time>2026-03-18T12:27:58Z</time>
      </trkpt>
      <trkpt lat="47.13175" lon="5.95616">
        <ele>345</ele>
        <time>2026-03-18T12:28:15Z</time>
      </trkpt>
      <trkpt lat="47.13194" lon="5.95621">
        <ele>344</ele>
        <time>2026-03-18T12:28:18Z</time>
      </trkpt>
      <trkpt lat="47.13264" lon="5.95633">
        <ele>339</ele>
        <time>2026-03-18T12:28:31Z</time>
      </trkpt>
      <trkpt lat="47.13321" lon="5.95643">
        <ele>337</ele>
        <time>2026-03-18T12:28:41Z</time>
      </trkpt>
      <trkpt lat="47.13384" lon="5.95654">
        <ele>335</ele>
        <time>2026-03-18T12:28:52Z</time>
      </trkpt>
      <trkpt lat="47.13455" lon="5.95664">
        <ele>334</ele>
        <time>2026-03-18T12:29:05Z</time>
      </trkpt>
      <trkpt lat="47.13474" lon="5.95671">
        <ele>334</ele>
        <time>2026-03-18T12:29:08Z</time>
      </trkpt>
      <trkpt lat="47.13485" lon="5.9568">
        <ele>334</ele>
        <time>2026-03-18T12:29:10Z</time>
      </trkpt>
      <trkpt lat="47.13494" lon="5.95691">
        <ele>334</ele>
        <time>2026-03-18T12:29:13Z</time>
      </trkpt>
      <trkpt lat="47.13502" lon="5.95705">
        <ele>334</ele>
        <time>2026-03-18T12:29:15Z</time>
      </trkpt>
      <trkpt lat="47.13508" lon="5.95721">
        <ele>334</ele>
        <time>2026-03-18T12:29:17Z</time>
      </trkpt>
      <trkpt lat="47.1351" lon="5.95742">
        <ele>334</ele>
        <time>2026-03-18T12:29:20Z</time>
      </trkpt>
      <trkpt lat="47.13508" lon="5.95766">
        <ele>333</ele>
        <time>2026-03-18T12:29:22Z</time>
      </trkpt>
      <trkpt lat="47.13502" lon="5.95789">
        <ele>331</ele>
        <time>2026-03-18T12:29:25Z</time>
      </trkpt>
      <trkpt lat="47.13459" lon="5.95883">
        <ele>326</ele>
        <time>2026-03-18T12:29:39Z</time>
      </trkpt>
      <trkpt lat="47.13401" lon="5.95983">
        <ele>322</ele>
        <time>2026-03-18T12:29:55Z</time>
      </trkpt>
      <trkpt lat="47.13369" lon="5.96032">
        <ele>320</ele>
        <time>2026-03-18T12:30:03Z</time>
      </trkpt>
      <trkpt lat="47.13346" lon="5.9606">
        <ele>321</ele>
        <time>2026-03-18T12:30:09Z</time>
      </trkpt>
      <trkpt lat="47.13327" lon="5.9608">
        <ele>323</ele>
        <time>2026-03-18T12:30:13Z</time>
      </trkpt>
      <trkpt lat="47.13321" lon="5.96092">
        <ele>323</ele>
        <time>2026-03-18T12:30:15Z</time>
      </trkpt>
      <trkpt lat="47.13319" lon="5.96104">
        <ele>322</ele>
        <time>2026-03-18T12:30:16Z</time>
      </trkpt>
      <trkpt lat="47.13323" lon="5.96118">
        <ele>320</ele>
        <time>2026-03-18T12:30:18Z</time>
      </trkpt>
      <trkpt lat="47.13326" lon="5.96122">
        <ele>318</ele>
        <time>2026-03-18T12:30:19Z</time>
      </trkpt>
      <trkpt lat="47.13337" lon="5.96126">
        <ele>315</ele>
        <time>2026-03-18T12:30:21Z</time>
      </trkpt>
      <trkpt lat="47.13342" lon="5.96124">
        <ele>315</ele>
        <time>2026-03-18T12:30:22Z</time>
      </trkpt>
      <trkpt lat="47.13347" lon="5.96119">
        <ele>314</ele>
        <time>2026-03-18T12:30:23Z</time>
      </trkpt>
      <trkpt lat="47.13357" lon="5.96104">
        <ele>314</ele>
        <time>2026-03-18T12:30:25Z</time>
      </trkpt>
      <trkpt lat="47.13369" lon="5.9608">
        <ele>314</ele>
        <time>2026-03-18T12:30:29Z</time>
      </trkpt>
      <trkpt lat="47.13383" lon="5.96058">
        <ele>314</ele>
        <time>2026-03-18T12:30:32Z</time>
      </trkpt>
      <trkpt lat="47.13414" lon="5.96019">
        <ele>314</ele>
        <time>2026-03-18T12:30:40Z</time>
      </trkpt>
      <trkpt lat="47.13452" lon="5.95978">
        <ele>313</ele>
        <time>2026-03-18T12:30:48Z</time>
      </trkpt>
      <trkpt lat="47.13494" lon="5.95939">
        <ele>311</ele>
        <time>2026-03-18T12:30:57Z</time>
      </trkpt>
      <trkpt lat="47.13517" lon="5.95919">
        <ele>310</ele>
        <time>2026-03-18T12:31:02Z</time>
      </trkpt>
      <trkpt lat="47.13542" lon="5.95902">
        <ele>308</ele>
        <time>2026-03-18T12:31:07Z</time>
      </trkpt>
      <trkpt lat="47.13573" lon="5.95884">
        <ele>306</ele>
        <time>2026-03-18T12:31:13Z</time>
      </trkpt>
      <trkpt lat="47.13595" lon="5.95874">
        <ele>304</ele>
        <time>2026-03-18T12:31:17Z</time>
      </trkpt>
      <trkpt lat="47.13661" lon="5.95849">
        <ele>298</ele>
        <time>2026-03-18T12:31:29Z</time>
      </trkpt>
      <trkpt lat="47.13691" lon="5.95836">
        <ele>294</ele>
        <time>2026-03-18T12:31:34Z</time>
      </trkpt>
      <trkpt lat="47.1371" lon="5.95823">
        <ele>294</ele>
        <time>2026-03-18T12:31:38Z</time>
      </trkpt>
      <trkpt lat="47.13729" lon="5.95801">
        <ele>297</ele>
        <time>2026-03-18T12:31:42Z</time>
      </trkpt>
      <trkpt lat="47.13748" lon="5.95781">
        <ele>299</ele>
        <time>2026-03-18T12:31:47Z</time>
      </trkpt>
      <trkpt lat="47.1378" lon="5.95759">
        <ele>299</ele>
        <time>2026-03-18T12:31:53Z</time>
      </trkpt>
      <trkpt lat="47.13811" lon="5.95738">
        <ele>297</ele>
        <time>2026-03-18T12:31:59Z</time>
      </trkpt>
      <trkpt lat="47.13841" lon="5.95715">
        <ele>297</ele>
        <time>2026-03-18T12:32:05Z</time>
      </trkpt>
      <trkpt lat="47.13872" lon="5.95689">
        <ele>297</ele>
        <time>2026-03-18T12:32:11Z</time>
      </trkpt>
      <trkpt lat="47.13888" lon="5.95673">
        <ele>297</ele>
        <time>2026-03-18T12:32:15Z</time>
      </trkpt>
      <trkpt lat="47.13898" lon="5.95662">
        <ele>297</ele>
        <time>2026-03-18T12:32:17Z</time>
      </trkpt>
      <trkpt lat="47.13909" lon="5.9566">
        <ele>294</ele>
        <time>2026-03-18T12:32:19Z</time>
      </trkpt>
      <trkpt lat="47.13917" lon="5.95661">
        <ele>292</ele>
        <time>2026-03-18T12:32:20Z</time>
      </trkpt>
      <trkpt lat="47.13922" lon="5.95664">
        <ele>290</ele>
        <time>2026-03-18T12:32:21Z</time>
      </trkpt>
      <trkpt lat="47.13928" lon="5.9568">
        <ele>287</ele>
        <time>2026-03-18T12:32:23Z</time>
      </trkpt>
      <trkpt lat="47.13952" lon="5.95753">
        <ele>277</ele>
        <time>2026-03-18T12:32:33Z</time>
      </trkpt>
      <trkpt lat="47.1396" lon="5.95776">
        <ele>278</ele>
        <time>2026-03-18T12:32:36Z</time>
      </trkpt>
      <trkpt lat="47.1397" lon="5.95806">
        <ele>279</ele>
        <time>2026-03-18T12:32:40Z</time>
      </trkpt>
      <trkpt lat="47.13985" lon="5.9586">
        <ele>280</ele>
        <time>2026-03-18T12:32:48Z</time>
      </trkpt>
      <trkpt lat="47.14008" lon="5.95943">
        <ele>282</ele>
        <time>2026-03-18T12:32:58Z</time>
      </trkpt>
      <trkpt lat="47.14012" lon="5.95958">
        <ele>283</ele>
        <time>2026-03-18T12:33:00Z</time>
      </trkpt>
      <trkpt lat="47.14021" lon="5.95955">
        <ele>283</ele>
        <time>2026-03-18T12:33:02Z</time>
      </trkpt>
      <trkpt lat="47.14032" lon="5.95953">
        <ele>284</ele>
        <time>2026-03-18T12:33:04Z</time>
      </trkpt>
      <trkpt lat="47.14047" lon="5.95948">
        <ele>284</ele>
        <time>2026-03-18T12:33:07Z</time>
      </trkpt>
      <trkpt lat="47.14093" lon="5.95927">
        <ele>284</ele>
        <time>2026-03-18T12:33:15Z</time>
      </trkpt>
      <trkpt lat="47.14104" lon="5.95923">
        <ele>284</ele>
        <time>2026-03-18T12:33:17Z</time>
      </trkpt>
      <trkpt lat="47.14117" lon="5.95921">
        <ele>283</ele>
        <time>2026-03-18T12:33:20Z</time>
      </trkpt>
      <trkpt lat="47.14134" lon="5.95924">
        <ele>284</ele>
        <time>2026-03-18T12:33:23Z</time>
      </trkpt>
      <trkpt lat="47.14147" lon="5.95928">
        <ele>284</ele>
        <time>2026-03-18T12:33:25Z</time>
      </trkpt>
      <trkpt lat="47.14158" lon="5.95936">
        <ele>285</ele>
        <time>2026-03-18T12:33:27Z</time>
      </trkpt>
      <trkpt lat="47.14177" lon="5.95952">
        <ele>286</ele>
        <time>2026-03-18T12:33:31Z</time>
      </trkpt>
      <trkpt lat="47.14267" lon="5.96036">
        <ele>294</ele>
        <time>2026-03-18T12:33:50Z</time>
      </trkpt>
      <trkpt lat="47.14303" lon="5.96067">
        <ele>293</ele>
        <time>2026-03-18T12:33:57Z</time>
      </trkpt>
      <trkpt lat="47.14316" lon="5.96082">
        <ele>293</ele>
        <time>2026-03-18T12:34:00Z</time>
      </trkpt>
      <trkpt lat="47.14344" lon="5.96127">
        <ele>297</ele>
        <time>2026-03-18T12:34:08Z</time>
      </trkpt>
      <trkpt lat="47.14424" lon="5.96273">
        <ele>303</ele>
        <time>2026-03-18T12:34:30Z</time>
      </trkpt>
      <trkpt lat="47.14513" lon="5.96417">
        <ele>311</ele>
        <time>2026-03-18T12:34:54Z</time>
      </trkpt>
      <trkpt lat="47.14683" lon="5.96656">
        <ele>324</ele>
        <time>2026-03-18T12:35:36Z</time>
      </trkpt>
      <trkpt lat="47.14711" lon="5.96686">
        <ele>326</ele>
        <time>2026-03-18T12:35:42Z</time>
      </trkpt>
      <trkpt lat="47.1475" lon="5.96721">
        <ele>329</ele>
        <time>2026-03-18T12:35:50Z</time>
      </trkpt>
      <trkpt lat="47.14804" lon="5.96754">
        <ele>334</ele>
        <time>2026-03-18T12:36:01Z</time>
      </trkpt>
      <trkpt lat="47.14828" lon="5.96765">
        <ele>336</ele>
        <time>2026-03-18T12:36:05Z</time>
      </trkpt>
      <trkpt lat="47.14851" lon="5.96772">
        <ele>339</ele>
        <time>2026-03-18T12:36:09Z</time>
      </trkpt>
      <trkpt lat="47.14876" lon="5.96775">
        <ele>339</ele>
        <time>2026-03-18T12:36:14Z</time>
      </trkpt>
      <trkpt lat="47.14883" lon="5.96775">
        <ele>339</ele>
        <time>2026-03-18T12:36:15Z</time>
      </trkpt>
      <trkpt lat="47.149" lon="5.96774">
        <ele>338</ele>
        <time>2026-03-18T12:36:18Z</time>
      </trkpt>
      <trkpt lat="47.14955" lon="5.96758">
        <ele>336</ele>
        <time>2026-03-18T12:36:28Z</time>
      </trkpt>
      <trkpt lat="47.15021" lon="5.96726">
        <ele>337</ele>
        <time>2026-03-18T12:36:40Z</time>
      </trkpt>
      <trkpt lat="47.1505" lon="5.96703">
        <ele>337</ele>
        <time>2026-03-18T12:36:46Z</time>
      </trkpt>
      <trkpt lat="47.15079" lon="5.96674">
        <ele>337</ele>
        <time>2026-03-18T12:36:52Z</time>
      </trkpt>
      <trkpt lat="47.15134" lon="5.96608">
        <ele>339</ele>
        <time>2026-03-18T12:37:05Z</time>
      </trkpt>
      <trkpt lat="47.15211" lon="5.96485">
        <ele>339</ele>
        <time>2026-03-18T12:37:25Z</time>
      </trkpt>
      <trkpt lat="47.15228" lon="5.96465">
        <ele>342</ele>
        <time>2026-03-18T12:37:29Z</time>
      </trkpt>
      <trkpt lat="47.15254" lon="5.96436">
        <ele>345</ele>
        <time>2026-03-18T12:37:35Z</time>
      </trkpt>
      <trkpt lat="47.15274" lon="5.96399">
        <ele>347</ele>
        <time>2026-03-18T12:37:41Z</time>
      </trkpt>
      <trkpt lat="47.15282" lon="5.9637">
        <ele>347</ele>
        <time>2026-03-18T12:37:44Z</time>
      </trkpt>
      <trkpt lat="47.15289" lon="5.96328">
        <ele>345</ele>
        <time>2026-03-18T12:37:50Z</time>
      </trkpt>
      <trkpt lat="47.15301" lon="5.96258">
        <ele>342</ele>
        <time>2026-03-18T12:37:58Z</time>
      </trkpt>
      <trkpt lat="47.15312" lon="5.96216">
        <ele>341</ele>
        <time>2026-03-18T12:38:04Z</time>
      </trkpt>
      <trkpt lat="47.15324" lon="5.96187">
        <ele>341</ele>
        <time>2026-03-18T12:38:08Z</time>
      </trkpt>
      <trkpt lat="47.15334" lon="5.96167">
        <ele>341</ele>
        <time>2026-03-18T12:38:11Z</time>
      </trkpt>
      <trkpt lat="47.15379" lon="5.96103">
        <ele>349</ele>
        <time>2026-03-18T12:38:22Z</time>
      </trkpt>
      <trkpt lat="47.15395" lon="5.96075">
        <ele>352</ele>
        <time>2026-03-18T12:38:27Z</time>
      </trkpt>
      <trkpt lat="47.15402" lon="5.96049">
        <ele>352</ele>
        <time>2026-03-18T12:38:30Z</time>
      </trkpt>
      <trkpt lat="47.15407" lon="5.96013">
        <ele>350</ele>
        <time>2026-03-18T12:38:34Z</time>
      </trkpt>
      <trkpt lat="47.15412" lon="5.95955">
        <ele>351</ele>
        <time>2026-03-18T12:38:41Z</time>
      </trkpt>
      <trkpt lat="47.15411" lon="5.95925">
        <ele>350</ele>
        <time>2026-03-18T12:38:45Z</time>
      </trkpt>
      <trkpt lat="47.15399" lon="5.95863">
        <ele>346</ele>
        <time>2026-03-18T12:38:53Z</time>
      </trkpt>
      <trkpt lat="47.15394" lon="5.95827">
        <ele>344</ele>
        <time>2026-03-18T12:38:57Z</time>
      </trkpt>
      <trkpt lat="47.15396" lon="5.95809">
        <ele>343</ele>
        <time>2026-03-18T12:39:00Z</time>
      </trkpt>
      <trkpt lat="47.15402" lon="5.95784">
        <ele>342</ele>
        <time>2026-03-18T12:39:03Z</time>
      </trkpt>
      <trkpt lat="47.15411" lon="5.95765">
        <ele>344</ele>
        <time>2026-03-18T12:39:06Z</time>
      </trkpt>
      <trkpt lat="47.15462" lon="5.95703">
        <ele>349</ele>
        <time>2026-03-18T12:39:17Z</time>
      </trkpt>
      <trkpt lat="47.15464" lon="5.95701">
        <ele>349</ele>
        <time>2026-03-18T12:39:18Z</time>
      </trkpt>
      <trkpt lat="47.15477" lon="5.95693">
        <ele>352</ele>
        <time>2026-03-18T12:39:20Z</time>
      </trkpt>
      <trkpt lat="47.15499" lon="5.95684">
        <ele>358</ele>
        <time>2026-03-18T12:39:24Z</time>
      </trkpt>
      <trkpt lat="47.15513" lon="5.95673">
        <ele>358</ele>
        <time>2026-03-18T12:39:27Z</time>
      </trkpt>
      <trkpt lat="47.15539" lon="5.95634">
        <ele>353</ele>
        <time>2026-03-18T12:39:34Z</time>
      </trkpt>
      <trkpt lat="47.15555" lon="5.95618">
        <ele>352</ele>
        <time>2026-03-18T12:39:37Z</time>
      </trkpt>
      <trkpt lat="47.15728" lon="5.95523">
        <ele>363</ele>
        <time>2026-03-18T12:40:10Z</time>
      </trkpt>
      <trkpt lat="47.15768" lon="5.95496">
        <ele>363</ele>
        <time>2026-03-18T12:40:18Z</time>
      </trkpt>
      <trkpt lat="47.15803" lon="5.95466">
        <ele>362</ele>
        <time>2026-03-18T12:40:25Z</time>
      </trkpt>
      <trkpt lat="47.15839" lon="5.95426">
        <ele>361</ele>
        <time>2026-03-18T12:40:33Z</time>
      </trkpt>
      <trkpt lat="47.15851" lon="5.95401">
        <ele>360</ele>
        <time>2026-03-18T12:40:37Z</time>
      </trkpt>
      <trkpt lat="47.15864" lon="5.95346">
        <ele>358</ele>
        <time>2026-03-18T12:40:44Z</time>
      </trkpt>
      <trkpt lat="47.15873" lon="5.95317">
        <ele>359</ele>
        <time>2026-03-18T12:40:48Z</time>
      </trkpt>
      <trkpt lat="47.15878" lon="5.95303">
        <ele>359</ele>
        <time>2026-03-18T12:40:50Z</time>
      </trkpt>
      <trkpt lat="47.15896" lon="5.95279">
        <ele>359</ele>
        <time>2026-03-18T12:40:54Z</time>
      </trkpt>
      <trkpt lat="47.15933" lon="5.95255">
        <ele>359</ele>
        <time>2026-03-18T12:41:01Z</time>
      </trkpt>
      <trkpt lat="47.15955" lon="5.9525">
        <ele>360</ele>
        <time>2026-03-18T12:41:05Z</time>
      </trkpt>
      <trkpt lat="47.15977" lon="5.95247">
        <ele>361</ele>
        <time>2026-03-18T12:41:09Z</time>
      </trkpt>
      <trkpt lat="47.1599" lon="5.95246">
        <ele>362</ele>
        <time>2026-03-18T12:41:11Z</time>
      </trkpt>
      <trkpt lat="47.16013" lon="5.95241">
        <ele>364</ele>
        <time>2026-03-18T12:41:15Z</time>
      </trkpt>
      <trkpt lat="47.16021" lon="5.95241">
        <ele>365</ele>
        <time>2026-03-18T12:41:17Z</time>
      </trkpt>
      <trkpt lat="47.16027" lon="5.95239">
        <ele>365</ele>
        <time>2026-03-18T12:41:18Z</time>
      </trkpt>
      <trkpt lat="47.16032" lon="5.95236">
        <ele>366</ele>
        <time>2026-03-18T12:41:19Z</time>
      </trkpt>
      <trkpt lat="47.16042" lon="5.95222">
        <ele>368</ele>
        <time>2026-03-18T12:41:21Z</time>
      </trkpt>
      <trkpt lat="47.16045" lon="5.95217">
        <ele>369</ele>
        <time>2026-03-18T12:41:22Z</time>
      </trkpt>
      <trkpt lat="47.16053" lon="5.9521">
        <ele>371</ele>
        <time>2026-03-18T12:41:24Z</time>
      </trkpt>
      <trkpt lat="47.1606" lon="5.95211">
        <ele>371</ele>
        <time>2026-03-18T12:41:25Z</time>
      </trkpt>
      <trkpt lat="47.16064" lon="5.95212">
        <ele>372</ele>
        <time>2026-03-18T12:41:26Z</time>
      </trkpt>
      <trkpt lat="47.16074" lon="5.95221">
        <ele>372</ele>
        <time>2026-03-18T12:41:28Z</time>
      </trkpt>
      <trkpt lat="47.16081" lon="5.95217">
        <ele>373</ele>
        <time>2026-03-18T12:41:29Z</time>
      </trkpt>
      <trkpt lat="47.16145" lon="5.95272">
        <ele>374</ele>
        <time>2026-03-18T12:41:42Z</time>
      </trkpt>
      <trkpt lat="47.16232" lon="5.95354">
        <ele>375</ele>
        <time>2026-03-18T12:42:01Z</time>
      </trkpt>
      <trkpt lat="47.16302" lon="5.95432">
        <ele>376</ele>
        <time>2026-03-18T12:42:16Z</time>
      </trkpt>
      <trkpt lat="47.16313" lon="5.95442">
        <ele>376</ele>
        <time>2026-03-18T12:42:19Z</time>
      </trkpt>
      <trkpt lat="47.16329" lon="5.95456">
        <ele>376</ele>
        <time>2026-03-18T12:42:22Z</time>
      </trkpt>
      <trkpt lat="47.1636" lon="5.95479">
        <ele>375</ele>
        <time>2026-03-18T12:42:28Z</time>
      </trkpt>
      <trkpt lat="47.16386" lon="5.95496">
        <ele>375</ele>
        <time>2026-03-18T12:42:33Z</time>
      </trkpt>
      <trkpt lat="47.1641" lon="5.95508">
        <ele>375</ele>
        <time>2026-03-18T12:42:38Z</time>
      </trkpt>
      <trkpt lat="47.16447" lon="5.95522">
        <ele>373</ele>
        <time>2026-03-18T12:42:45Z</time>
      </trkpt>
      <trkpt lat="47.16481" lon="5.95538">
        <ele>372</ele>
        <time>2026-03-18T12:42:51Z</time>
      </trkpt>
      <trkpt lat="47.16496" lon="5.95548">
        <ele>372</ele>
        <time>2026-03-18T12:42:54Z</time>
      </trkpt>
      <trkpt lat="47.16526" lon="5.95569">
        <ele>372</ele>
        <time>2026-03-18T12:43:00Z</time>
      </trkpt>
      <trkpt lat="47.16538" lon="5.9558">
        <ele>372</ele>
        <time>2026-03-18T12:43:02Z</time>
      </trkpt>
      <trkpt lat="47.16557" lon="5.95597">
        <ele>372</ele>
        <time>2026-03-18T12:43:06Z</time>
      </trkpt>
      <trkpt lat="47.16604" lon="5.95644">
        <ele>371</ele>
        <time>2026-03-18T12:43:16Z</time>
      </trkpt>
      <trkpt lat="47.16641" lon="5.95684">
        <ele>371</ele>
        <time>2026-03-18T12:43:25Z</time>
      </trkpt>
      <trkpt lat="47.16681" lon="5.95728">
        <ele>369</ele>
        <time>2026-03-18T12:43:33Z</time>
      </trkpt>
      <trkpt lat="47.16688" lon="5.95703">
        <ele>369</ele>
        <time>2026-03-18T12:43:37Z</time>
      </trkpt>
      <trkpt lat="47.16691" lon="5.9569">
        <ele>368</ele>
        <time>2026-03-18T12:43:38Z</time>
      </trkpt>
      <trkpt lat="47.1669" lon="5.95682">
        <ele>369</ele>
        <time>2026-03-18T12:43:39Z</time>
      </trkpt>
      <trkpt lat="47.16686" lon="5.9567">
        <ele>370</ele>
        <time>2026-03-18T12:43:41Z</time>
      </trkpt>
      <trkpt lat="47.16649" lon="5.95632">
        <ele>374</ele>
        <time>2026-03-18T12:43:49Z</time>
      </trkpt>
      <trkpt lat="47.16641" lon="5.9561">
        <ele>375</ele>
        <time>2026-03-18T12:43:52Z</time>
      </trkpt>
      <trkpt lat="47.16636" lon="5.95566">
        <ele>374</ele>
        <time>2026-03-18T12:43:57Z</time>
      </trkpt>
      <trkpt lat="47.16632" lon="5.95527">
        <ele>371</ele>
        <time>2026-03-18T12:44:02Z</time>
      </trkpt>
      <trkpt lat="47.16608" lon="5.95438">
        <ele>367</ele>
        <time>2026-03-18T12:44:14Z</time>
      </trkpt>
      <trkpt lat="47.16584" lon="5.95388">
        <ele>368</ele>
        <time>2026-03-18T12:44:21Z</time>
      </trkpt>
      <trkpt lat="47.16559" lon="5.95338">
        <ele>368</ele>
        <time>2026-03-18T12:44:29Z</time>
      </trkpt>
      <trkpt lat="47.16546" lon="5.9529">
        <ele>362</ele>
        <time>2026-03-18T12:44:35Z</time>
      </trkpt>
      <trkpt lat="47.1654" lon="5.95246">
        <ele>354</ele>
        <time>2026-03-18T12:44:40Z</time>
      </trkpt>
      <trkpt lat="47.16543" lon="5.95221">
        <ele>347</ele>
        <time>2026-03-18T12:44:43Z</time>
      </trkpt>
      <trkpt lat="47.16545" lon="5.95204">
        <ele>343</ele>
        <time>2026-03-18T12:44:46Z</time>
      </trkpt>
      <trkpt lat="47.16568" lon="5.95161">
        <ele>330</ele>
        <time>2026-03-18T12:44:52Z</time>
      </trkpt>
      <trkpt lat="47.16612" lon="5.95101">
        <ele>319</ele>
        <time>2026-03-18T12:45:03Z</time>
      </trkpt>
      <trkpt lat="47.16625" lon="5.95077">
        <ele>316</ele>
        <time>2026-03-18T12:45:07Z</time>
      </trkpt>
      <trkpt lat="47.16712" lon="5.94921">
        <ele>300</ele>
        <time>2026-03-18T12:45:31Z</time>
      </trkpt>
      <trkpt lat="47.16753" lon="5.94865">
        <ele>299</ele>
        <time>2026-03-18T12:45:41Z</time>
      </trkpt>
      <trkpt lat="47.16764" lon="5.9488">
        <ele>299</ele>
        <time>2026-03-18T12:45:44Z</time>
      </trkpt>
      <trkpt lat="47.16769" lon="5.94882">
        <ele>299</ele>
        <time>2026-03-18T12:45:45Z</time>
      </trkpt>
      <trkpt lat="47.16811" lon="5.94858">
        <ele>302</ele>
        <time>2026-03-18T12:45:53Z</time>
      </trkpt>
      <trkpt lat="47.16826" lon="5.94846">
        <ele>303</ele>
        <time>2026-03-18T12:45:56Z</time>
      </trkpt>
      <trkpt lat="47.16838" lon="5.94837">
        <ele>304</ele>
        <time>2026-03-18T12:45:58Z</time>
      </trkpt>
      <trkpt lat="47.16852" lon="5.94818">
        <ele>304</ele>
        <time>2026-03-18T12:46:01Z</time>
      </trkpt>
      <trkpt lat="47.16886" lon="5.9485">
        <ele>303</ele>
        <time>2026-03-18T12:46:09Z</time>
      </trkpt>
      <trkpt lat="47.16949" lon="5.94907">
        <ele>303</ele>
        <time>2026-03-18T12:46:22Z</time>
      </trkpt>
      <trkpt lat="47.16996" lon="5.94949">
        <ele>307</ele>
        <time>2026-03-18T12:46:31Z</time>
      </trkpt>
      <trkpt lat="47.17005" lon="5.94956">
        <ele>307</ele>
        <time>2026-03-18T12:46:33Z</time>
      </trkpt>
      <trkpt lat="47.17008" lon="5.94954">
        <ele>307</ele>
        <time>2026-03-18T12:46:34Z</time>
      </trkpt>
      <trkpt lat="47.17011" lon="5.94954">
        <ele>307</ele>
        <time>2026-03-18T12:46:34Z</time>
      </trkpt>
      <trkpt lat="47.17037" lon="5.94964">
        <ele>305</ele>
        <time>2026-03-18T12:46:39Z</time>
      </trkpt>
      <trkpt lat="47.17088" lon="5.94988">
        <ele>303</ele>
        <time>2026-03-18T12:46:49Z</time>
      </trkpt>
      <trkpt lat="47.17151" lon="5.95029">
        <ele>296</ele>
        <time>2026-03-18T12:47:01Z</time>
      </trkpt>
      <trkpt lat="47.17193" lon="5.95046">
        <ele>291</ele>
        <time>2026-03-18T12:47:09Z</time>
      </trkpt>
      <trkpt lat="47.17218" lon="5.95061">
        <ele>289</ele>
        <time>2026-03-18T12:47:14Z</time>
      </trkpt>
      <trkpt lat="47.17229" lon="5.9507">
        <ele>288</ele>
        <time>2026-03-18T12:47:16Z</time>
      </trkpt>
      <trkpt lat="47.17275" lon="5.95117">
        <ele>285</ele>
        <time>2026-03-18T12:47:26Z</time>
      </trkpt>
      <trkpt lat="47.17286" lon="5.9513">
        <ele>285</ele>
        <time>2026-03-18T12:47:28Z</time>
      </trkpt>
      <trkpt lat="47.17291" lon="5.9513">
        <ele>284</ele>
        <time>2026-03-18T12:47:29Z</time>
      </trkpt>
      <trkpt lat="47.17322" lon="5.95148">
        <ele>282</ele>
        <time>2026-03-18T12:47:35Z</time>
      </trkpt>
      <trkpt lat="47.17329" lon="5.95148">
        <ele>281</ele>
        <time>2026-03-18T12:47:36Z</time>
      </trkpt>
      <trkpt lat="47.17409" lon="5.95125">
        <ele>278</ele>
        <time>2026-03-18T12:47:51Z</time>
      </trkpt>
      <trkpt lat="47.17429" lon="5.95124">
        <ele>277</ele>
        <time>2026-03-18T12:47:54Z</time>
      </trkpt>
      <trkpt lat="47.17456" lon="5.95128">
        <ele>276</ele>
        <time>2026-03-18T12:47:59Z</time>
      </trkpt>
      <trkpt lat="47.17483" lon="5.95133">
        <ele>276</ele>
        <time>2026-03-18T12:48:04Z</time>
      </trkpt>
      <trkpt lat="47.17488" lon="5.95133">
        <ele>275</ele>
        <time>2026-03-18T12:48:05Z</time>
      </trkpt>
      <trkpt lat="47.1751" lon="5.95126">
        <ele>274</ele>
        <time>2026-03-18T12:48:09Z</time>
      </trkpt>
      <trkpt lat="47.17522" lon="5.95116">
        <ele>273</ele>
        <time>2026-03-18T12:48:11Z</time>
      </trkpt>
      <trkpt lat="47.1753" lon="5.95105">
        <ele>273</ele>
        <time>2026-03-18T12:48:13Z</time>
      </trkpt>
      <trkpt lat="47.17547" lon="5.95081">
        <ele>272</ele>
        <time>2026-03-18T12:48:18Z</time>
      </trkpt>
      <trkpt lat="47.17554" lon="5.95059">
        <ele>272</ele>
        <time>2026-03-18T12:48:20Z</time>
      </trkpt>
      <trkpt lat="47.17554" lon="5.95019">
        <ele>271</ele>
        <time>2026-03-18T12:48:25Z</time>
      </trkpt>
      <trkpt lat="47.17546" lon="5.94981">
        <ele>270</ele>
        <time>2026-03-18T12:48:30Z</time>
      </trkpt>
      <trkpt lat="47.17539" lon="5.94962">
        <ele>270</ele>
        <time>2026-03-18T12:48:33Z</time>
      </trkpt>
      <trkpt lat="47.17533" lon="5.94945">
        <ele>270</ele>
        <time>2026-03-18T12:48:35Z</time>
      </trkpt>
      <trkpt lat="47.1752" lon="5.94923">
        <ele>268</ele>
        <time>2026-03-18T12:48:39Z</time>
      </trkpt>
      <trkpt lat="47.17496" lon="5.94882">
        <ele>262</ele>
        <time>2026-03-18T12:48:45Z</time>
      </trkpt>
      <trkpt lat="47.17483" lon="5.94868">
        <ele>260</ele>
        <time>2026-03-18T12:48:48Z</time>
      </trkpt>
      <trkpt lat="47.17421" lon="5.9482">
        <ele>255</ele>
        <time>2026-03-18T12:49:00Z</time>
      </trkpt>
      <trkpt lat="47.17406" lon="5.94803">
        <ele>255</ele>
        <time>2026-03-18T12:49:04Z</time>
      </trkpt>
      <trkpt lat="47.17399" lon="5.94786">
        <ele>254</ele>
        <time>2026-03-18T12:49:06Z</time>
      </trkpt>
      <trkpt lat="47.17398" lon="5.94773">
        <ele>254</ele>
        <time>2026-03-18T12:49:08Z</time>
      </trkpt>
      <trkpt lat="47.17398" lon="5.9476">
        <ele>254</ele>
        <time>2026-03-18T12:49:09Z</time>
      </trkpt>
      <trkpt lat="47.17402" lon="5.94751">
        <ele>254</ele>
        <time>2026-03-18T12:49:11Z</time>
      </trkpt>
      <trkpt lat="47.17405" lon="5.94746">
        <ele>254</ele>
        <time>2026-03-18T12:49:11Z</time>
      </trkpt>
      <trkpt lat="47.17407" lon="5.94741">
        <ele>254</ele>
        <time>2026-03-18T12:49:12Z</time>
      </trkpt>
      <trkpt lat="47.17415" lon="5.94737">
        <ele>254</ele>
        <time>2026-03-18T12:49:14Z</time>
      </trkpt>
      <trkpt lat="47.1743" lon="5.94737">
        <ele>255</ele>
        <time>2026-03-18T12:49:16Z</time>
      </trkpt>
      <trkpt lat="47.17446" lon="5.94751">
        <ele>255</ele>
        <time>2026-03-18T12:49:20Z</time>
      </trkpt>
      <trkpt lat="47.17465" lon="5.94774">
        <ele>257</ele>
        <time>2026-03-18T12:49:24Z</time>
      </trkpt>
      <trkpt lat="47.17476" lon="5.94781">
        <ele>257</ele>
        <time>2026-03-18T12:49:26Z</time>
      </trkpt>
      <trkpt lat="47.17489" lon="5.94779">
        <ele>258</ele>
        <time>2026-03-18T12:49:29Z</time>
      </trkpt>
      <trkpt lat="47.1755" lon="5.94732">
        <ele>261</ele>
        <time>2026-03-18T12:49:41Z</time>
      </trkpt>
      <trkpt lat="47.17577" lon="5.94712">
        <ele>264</ele>
        <time>2026-03-18T12:49:46Z</time>
      </trkpt>
      <trkpt lat="47.17608" lon="5.94685">
        <ele>261</ele>
        <time>2026-03-18T12:49:53Z</time>
      </trkpt>
      <trkpt lat="47.1766" lon="5.94632">
        <ele>253</ele>
        <time>2026-03-18T12:50:04Z</time>
      </trkpt>
      <trkpt lat="47.1767" lon="5.94621">
        <ele>251</ele>
        <time>2026-03-18T12:50:06Z</time>
      </trkpt>
      <trkpt lat="47.17679" lon="5.94612">
        <ele>250</ele>
        <time>2026-03-18T12:50:08Z</time>
      </trkpt>
      <trkpt lat="47.17684" lon="5.94604">
        <ele>250</ele>
        <time>2026-03-18T12:50:09Z</time>
      </trkpt>
      <trkpt lat="47.17688" lon="5.94591">
        <ele>250</ele>
        <time>2026-03-18T12:50:11Z</time>
      </trkpt>
      <trkpt lat="47.17688" lon="5.94581">
        <ele>250</ele>
        <time>2026-03-18T12:50:12Z</time>
      </trkpt>
      <trkpt lat="47.17686" lon="5.9457">
        <ele>250</ele>
        <time>2026-03-18T12:50:14Z</time>
      </trkpt>
      <trkpt lat="47.17674" lon="5.94538">
        <ele>250</ele>
        <time>2026-03-18T12:50:18Z</time>
      </trkpt>
      <trkpt lat="47.17619" lon="5.94413">
        <ele>251</ele>
        <time>2026-03-18T12:50:36Z</time>
      </trkpt>
      <trkpt lat="47.17554" lon="5.9426">
        <ele>246</ele>
        <time>2026-03-18T12:50:58Z</time>
      </trkpt>
      <trkpt lat="47.17548" lon="5.94243">
        <ele>246</ele>
        <time>2026-03-18T12:51:00Z</time>
      </trkpt>
      <trkpt lat="47.17549" lon="5.94228">
        <ele>244</ele>
        <time>2026-03-18T12:51:02Z</time>
      </trkpt>
      <trkpt lat="47.17553" lon="5.94212">
        <ele>242</ele>
        <time>2026-03-18T12:51:04Z</time>
      </trkpt>
      <trkpt lat="47.17599" lon="5.94255">
        <ele>232</ele>
        <time>2026-03-18T12:51:14Z</time>
      </trkpt>
      <trkpt lat="47.17638" lon="5.94283">
        <ele>231</ele>
        <time>2026-03-18T12:51:21Z</time>
      </trkpt>
      <trkpt lat="47.17722" lon="5.94342">
        <ele>226</ele>
        <time>2026-03-18T12:51:38Z</time>
      </trkpt>
      <trkpt lat="47.17762" lon="5.94366">
        <ele>227</ele>
        <time>2026-03-18T12:51:46Z</time>
      </trkpt>
      <trkpt lat="47.17807" lon="5.94405">
        <ele>229</ele>
        <time>2026-03-18T12:51:55Z</time>
      </trkpt>
      <trkpt lat="47.17816" lon="5.94414">
        <ele>229</ele>
        <time>2026-03-18T12:51:57Z</time>
      </trkpt>
      <trkpt lat="47.17855" lon="5.9445">
        <ele>230</ele>
        <time>2026-03-18T12:52:05Z</time>
      </trkpt>
      <trkpt lat="47.17879" lon="5.94477">
        <ele>231</ele>
        <time>2026-03-18T12:52:11Z</time>
      </trkpt>
      <trkpt lat="47.17929" lon="5.94551">
        <ele>229</ele>
        <time>2026-03-18T12:52:23Z</time>
      </trkpt>
      <trkpt lat="47.17961" lon="5.94594">
        <ele>228</ele>
        <time>2026-03-18T12:52:31Z</time>
      </trkpt>
      <trkpt lat="47.18001" lon="5.94641">
        <ele>228</ele>
        <time>2026-03-18T12:52:40Z</time>
      </trkpt>
      <trkpt lat="47.18024" lon="5.94675">
        <ele>229</ele>
        <time>2026-03-18T12:52:46Z</time>
      </trkpt>
      <trkpt lat="47.18037" lon="5.94705">
        <ele>229</ele>
        <time>2026-03-18T12:52:50Z</time>
      </trkpt>
      <trkpt lat="47.18047" lon="5.94742">
        <ele>230</ele>
        <time>2026-03-18T12:52:55Z</time>
      </trkpt>
      <trkpt lat="47.18057" lon="5.94773">
        <ele>230</ele>
        <time>2026-03-18T12:52:59Z</time>
      </trkpt>
      <trkpt lat="47.18118" lon="5.95027">
        <ele>233</ele>
        <time>2026-03-18T12:53:32Z</time>
      </trkpt>
      <trkpt lat="47.18254" lon="5.95581">
        <ele>234</ele>
        <time>2026-03-18T12:54:43Z</time>
      </trkpt>
      <trkpt lat="47.18269" lon="5.95623">
        <ele>238</ele>
        <time>2026-03-18T12:54:49Z</time>
      </trkpt>
      <trkpt lat="47.18291" lon="5.95663">
        <ele>239</ele>
        <time>2026-03-18T12:54:55Z</time>
      </trkpt>
      <trkpt lat="47.18606" lon="5.96215">
        <ele>260</ele>
        <time>2026-03-18T12:56:22Z</time>
      </trkpt>
      <trkpt lat="47.18635" lon="5.96256">
        <ele>259</ele>
        <time>2026-03-18T12:56:29Z</time>
      </trkpt>
      <trkpt lat="47.18656" lon="5.96286">
        <ele>259</ele>
        <time>2026-03-18T12:56:34Z</time>
      </trkpt>
      <trkpt lat="47.18697" lon="5.96328">
        <ele>260</ele>
        <time>2026-03-18T12:56:43Z</time>
      </trkpt>
      <trkpt lat="47.18758" lon="5.96372">
        <ele>263</ele>
        <time>2026-03-18T12:56:55Z</time>
      </trkpt>
      <trkpt lat="47.18796" lon="5.96397">
        <ele>263</ele>
        <time>2026-03-18T12:57:03Z</time>
      </trkpt>
      <trkpt lat="47.18822" lon="5.9641">
        <ele>259</ele>
        <time>2026-03-18T12:57:08Z</time>
      </trkpt>
      <trkpt lat="47.18849" lon="5.9642">
        <ele>256</ele>
        <time>2026-03-18T12:57:13Z</time>
      </trkpt>
      <trkpt lat="47.18882" lon="5.96428">
        <ele>253</ele>
        <time>2026-03-18T12:57:18Z</time>
      </trkpt>
      <trkpt lat="47.18926" lon="5.96435">
        <ele>249</ele>
        <time>2026-03-18T12:57:26Z</time>
      </trkpt>
      <trkpt lat="47.18979" lon="5.96439">
        <ele>245</ele>
        <time>2026-03-18T12:57:36Z</time>
      </trkpt>
      <trkpt lat="47.19006" lon="5.96437">
        <ele>243</ele>
        <time>2026-03-18T12:57:41Z</time>
      </trkpt>
      <trkpt lat="47.19036" lon="5.9643">
        <ele>242</ele>
        <time>2026-03-18T12:57:46Z</time>
      </trkpt>
      <trkpt lat="47.19072" lon="5.96414">
        <ele>240</ele>
        <time>2026-03-18T12:57:53Z</time>
      </trkpt>
      <trkpt lat="47.19105" lon="5.96386">
        <ele>239</ele>
        <time>2026-03-18T12:57:59Z</time>
      </trkpt>
      <trkpt lat="47.19135" lon="5.96353">
        <ele>237</ele>
        <time>2026-03-18T12:58:06Z</time>
      </trkpt>
      <trkpt lat="47.19159" lon="5.96319">
        <ele>235</ele>
        <time>2026-03-18T12:58:12Z</time>
      </trkpt>
      <trkpt lat="47.19254" lon="5.96166">
        <ele>233</ele>
        <time>2026-03-18T12:58:37Z</time>
      </trkpt>
      <trkpt lat="47.19302" lon="5.96092">
        <ele>234</ele>
        <time>2026-03-18T12:58:50Z</time>
      </trkpt>
      <trkpt lat="47.19337" lon="5.96036">
        <ele>234</ele>
        <time>2026-03-18T12:58:59Z</time>
      </trkpt>
      <trkpt lat="47.19361" lon="5.95999">
        <ele>235</ele>
        <time>2026-03-18T12:59:05Z</time>
      </trkpt>
      <trkpt lat="47.19374" lon="5.95981">
        <ele>236</ele>
        <time>2026-03-18T12:59:08Z</time>
      </trkpt>
      <trkpt lat="47.19391" lon="5.95963">
        <ele>236</ele>
        <time>2026-03-18T12:59:12Z</time>
      </trkpt>
      <trkpt lat="47.19414" lon="5.95947">
        <ele>236</ele>
        <time>2026-03-18T12:59:16Z</time>
      </trkpt>
      <trkpt lat="47.19437" lon="5.95934">
        <ele>236</ele>
        <time>2026-03-18T12:59:21Z</time>
      </trkpt>
      <trkpt lat="47.19455" lon="5.95929">
        <ele>236</ele>
        <time>2026-03-18T12:59:24Z</time>
      </trkpt>
      <trkpt lat="47.1948" lon="5.95925">
        <ele>236</ele>
        <time>2026-03-18T12:59:28Z</time>
      </trkpt>
      <trkpt lat="47.19592" lon="5.95932">
        <ele>235</ele>
        <time>2026-03-18T12:59:48Z</time>
      </trkpt>
      <trkpt lat="47.1975" lon="5.95941">
        <ele>232</ele>
        <time>2026-03-18T13:00:17Z</time>
      </trkpt>
      <trkpt lat="47.19776" lon="5.95945">
        <ele>232</ele>
        <time>2026-03-18T13:00:21Z</time>
      </trkpt>
      <trkpt lat="47.19784" lon="5.95948">
        <ele>233</ele>
        <time>2026-03-18T13:00:23Z</time>
      </trkpt>
      <trkpt lat="47.19792" lon="5.95951">
        <ele>233</ele>
        <time>2026-03-18T13:00:24Z</time>
      </trkpt>
      <trkpt lat="47.1981" lon="5.95963">
        <ele>233</ele>
        <time>2026-03-18T13:00:28Z</time>
      </trkpt>
      <trkpt lat="47.19822" lon="5.95977">
        <ele>233</ele>
        <time>2026-03-18T13:00:30Z</time>
      </trkpt>
      <trkpt lat="47.19885" lon="5.96094">
        <ele>233</ele>
        <time>2026-03-18T13:00:48Z</time>
      </trkpt>
      <trkpt lat="47.19891" lon="5.96107">
        <ele>233</ele>
        <time>2026-03-18T13:00:50Z</time>
      </trkpt>
      <trkpt lat="47.19897" lon="5.96132">
        <ele>233</ele>
        <time>2026-03-18T13:00:54Z</time>
      </trkpt>
      <trkpt lat="47.19902" lon="5.96168">
        <ele>233</ele>
        <time>2026-03-18T13:00:58Z</time>
      </trkpt>
      <trkpt lat="47.19904" lon="5.9623">
        <ele>235</ele>
        <time>2026-03-18T13:01:05Z</time>
      </trkpt>
      <trkpt lat="47.19899" lon="5.96398">
        <ele>241</ele>
        <time>2026-03-18T13:01:26Z</time>
      </trkpt>
      <trkpt lat="47.19899" lon="5.96439">
        <ele>241</ele>
        <time>2026-03-18T13:01:31Z</time>
      </trkpt>
      <trkpt lat="47.19903" lon="5.9646">
        <ele>241</ele>
        <time>2026-03-18T13:01:33Z</time>
      </trkpt>
      <trkpt lat="47.19905" lon="5.9648">
        <ele>240</ele>
        <time>2026-03-18T13:01:36Z</time>
      </trkpt>
      <trkpt lat="47.19905" lon="5.966">
        <ele>238</ele>
        <time>2026-03-18T13:01:50Z</time>
      </trkpt>
      <trkpt lat="47.19898" lon="5.96642">
        <ele>237</ele>
        <time>2026-03-18T13:01:56Z</time>
      </trkpt>
      <trkpt lat="47.19897" lon="5.96677">
        <ele>236</ele>
        <time>2026-03-18T13:02:00Z</time>
      </trkpt>
      <trkpt lat="47.19897" lon="5.96726">
        <ele>236</ele>
        <time>2026-03-18T13:02:06Z</time>
      </trkpt>
      <trkpt lat="47.19903" lon="5.96771">
        <ele>235</ele>
        <time>2026-03-18T13:02:11Z</time>
      </trkpt>
      <trkpt lat="47.19919" lon="5.96837">
        <ele>235</ele>
        <time>2026-03-18T13:02:20Z</time>
      </trkpt>
      <trkpt lat="47.19927" lon="5.96874">
        <ele>234</ele>
        <time>2026-03-18T13:02:24Z</time>
      </trkpt>
      <trkpt lat="47.1993" lon="5.96929">
        <ele>234</ele>
        <time>2026-03-18T13:02:31Z</time>
      </trkpt>
      <trkpt lat="47.19928" lon="5.97119">
        <ele>239</ele>
        <time>2026-03-18T13:02:54Z</time>
      </trkpt>
      <trkpt lat="47.19913" lon="5.97378">
        <ele>242</ele>
        <time>2026-03-18T13:03:25Z</time>
      </trkpt>
      <trkpt lat="47.19911" lon="5.97415">
        <ele>243</ele>
        <time>2026-03-18T13:03:30Z</time>
      </trkpt>
      <trkpt lat="47.19895" lon="5.97809">
        <ele>246</ele>
        <time>2026-03-18T13:04:18Z</time>
      </trkpt>
      <trkpt lat="47.19884" lon="5.98013">
        <ele>251</ele>
        <time>2026-03-18T13:04:42Z</time>
      </trkpt>
      <trkpt lat="47.19871" lon="5.98093">
        <ele>258</ele>
        <time>2026-03-18T13:04:52Z</time>
      </trkpt>
      <trkpt lat="47.19864" lon="5.9813">
        <ele>258</ele>
        <time>2026-03-18T13:04:57Z</time>
      </trkpt>
      <trkpt lat="47.19861" lon="5.9817">
        <ele>257</ele>
        <time>2026-03-18T13:05:02Z</time>
      </trkpt>
      <trkpt lat="47.19859" lon="5.98187">
        <ele>255</ele>
        <time>2026-03-18T13:05:04Z</time>
      </trkpt>
      <trkpt lat="47.19852" lon="5.98212">
        <ele>253</ele>
        <time>2026-03-18T13:05:07Z</time>
      </trkpt>
      <trkpt lat="47.19844" lon="5.98232">
        <ele>252</ele>
        <time>2026-03-18T13:05:10Z</time>
      </trkpt>
      <trkpt lat="47.19829" lon="5.98261">
        <ele>250</ele>
        <time>2026-03-18T13:05:14Z</time>
      </trkpt>
      <trkpt lat="47.19823" lon="5.98268">
        <ele>251</ele>
        <time>2026-03-18T13:05:16Z</time>
      </trkpt>
      <trkpt lat="47.19823" lon="5.98282">
        <ele>248</ele>
        <time>2026-03-18T13:05:18Z</time>
      </trkpt>
      <trkpt lat="47.19812" lon="5.98321">
        <ele>246</ele>
        <time>2026-03-18T13:05:23Z</time>
      </trkpt>
      <trkpt lat="47.19806" lon="5.98355">
        <ele>247</ele>
        <time>2026-03-18T13:05:27Z</time>
      </trkpt>
      <trkpt lat="47.19803" lon="5.98385">
        <ele>250</ele>
        <time>2026-03-18T13:05:31Z</time>
      </trkpt>
      <trkpt lat="47.19804" lon="5.98444">
        <ele>251</ele>
        <time>2026-03-18T13:05:38Z</time>
      </trkpt>
      <trkpt lat="47.19819" lon="5.98506">
        <ele>243</ele>
        <time>2026-03-18T13:05:46Z</time>
      </trkpt>
      <trkpt lat="47.19833" lon="5.98547">
        <ele>238</ele>
        <time>2026-03-18T13:05:51Z</time>
      </trkpt>
      <trkpt lat="47.1984" lon="5.98564">
        <ele>238</ele>
        <time>2026-03-18T13:05:54Z</time>
      </trkpt>
      <trkpt lat="47.1985" lon="5.98591">
        <ele>239</ele>
        <time>2026-03-18T13:05:57Z</time>
      </trkpt>
      <trkpt lat="47.19895" lon="5.98706">
        <ele>237</ele>
        <time>2026-03-18T13:06:13Z</time>
      </trkpt>
      <trkpt lat="47.19961" lon="5.98879">
        <ele>236</ele>
        <time>2026-03-18T13:06:37Z</time>
      </trkpt>
      <trkpt lat="47.19969" lon="5.98908">
        <ele>237</ele>
        <time>2026-03-18T13:06:41Z</time>
      </trkpt>
      <trkpt lat="47.2" lon="5.98988">
        <ele>235</ele>
        <time>2026-03-18T13:06:52Z</time>
      </trkpt>
      <trkpt lat="47.20028" lon="5.99052">
        <ele>238</ele>
        <time>2026-03-18T13:07:01Z</time>
      </trkpt>
      <trkpt lat="47.20031" lon="5.99066">
        <ele>239</ele>
        <time>2026-03-18T13:07:03Z</time>
      </trkpt>
      <trkpt lat="47.2003" lon="5.99098">
        <ele>243</ele>
        <time>2026-03-18T13:07:07Z</time>
      </trkpt>
      <trkpt lat="47.20029" lon="5.99111">
        <ele>246</ele>
        <time>2026-03-18T13:07:09Z</time>
      </trkpt>
      <trkpt lat="47.20031" lon="5.99123">
        <ele>247</ele>
        <time>2026-03-18T13:07:10Z</time>
      </trkpt>
      <trkpt lat="47.20042" lon="5.99154">
        <ele>250</ele>
        <time>2026-03-18T13:07:14Z</time>
      </trkpt>
      <trkpt lat="47.20064" lon="5.992">
        <ele>249</ele>
        <time>2026-03-18T13:07:21Z</time>
      </trkpt>
      <trkpt lat="47.20099" lon="5.9926">
        <ele>246</ele>
        <time>2026-03-18T13:07:31Z</time>
      </trkpt>
      <trkpt lat="47.20111" lon="5.99273">
        <ele>246</ele>
        <time>2026-03-18T13:07:33Z</time>
      </trkpt>
      <trkpt lat="47.20125" lon="5.99296">
        <ele>247</ele>
        <time>2026-03-18T13:07:37Z</time>
      </trkpt>
      <trkpt lat="47.20144" lon="5.99307">
        <ele>244</ele>
        <time>2026-03-18T13:07:41Z</time>
      </trkpt>
      <trkpt lat="47.20185" lon="5.99346">
        <ele>239</ele>
        <time>2026-03-18T13:07:49Z</time>
      </trkpt>
      <trkpt lat="47.20233" lon="5.99386">
        <ele>236</ele>
        <time>2026-03-18T13:07:59Z</time>
      </trkpt>
      <trkpt lat="47.20277" lon="5.99413">
        <ele>235</ele>
        <time>2026-03-18T13:08:08Z</time>
      </trkpt>
      <trkpt lat="47.20314" lon="5.9943">
        <ele>236</ele>
        <time>2026-03-18T13:08:15Z</time>
      </trkpt>
      <trkpt lat="47.20343" lon="5.99443">
        <ele>236</ele>
        <time>2026-03-18T13:08:20Z</time>
      </trkpt>
      <trkpt lat="47.20413" lon="5.99469">
        <ele>232</ele>
        <time>2026-03-18T13:08:33Z</time>
      </trkpt>
      <trkpt lat="47.20436" lon="5.99476">
        <ele>233</ele>
        <time>2026-03-18T13:08:37Z</time>
      </trkpt>
      <trkpt lat="47.20446" lon="5.99481">
        <ele>233</ele>
        <time>2026-03-18T13:08:39Z</time>
      </trkpt>
      <trkpt lat="47.20452" lon="5.99486">
        <ele>233</ele>
        <time>2026-03-18T13:08:40Z</time>
      </trkpt>
      <trkpt lat="47.20474" lon="5.99499">
        <ele>234</ele>
        <time>2026-03-18T13:08:44Z</time>
      </trkpt>
      <trkpt lat="47.20494" lon="5.99508">
        <ele>235</ele>
        <time>2026-03-18T13:08:48Z</time>
      </trkpt>
      <trkpt lat="47.20585" lon="5.99543">
        <ele>236</ele>
        <time>2026-03-18T13:09:05Z</time>
      </trkpt>
      <trkpt lat="47.20623" lon="5.99559">
        <ele>235</ele>
        <time>2026-03-18T13:09:12Z</time>
      </trkpt>
      <trkpt lat="47.20657" lon="5.99583">
        <ele>234</ele>
        <time>2026-03-18T13:09:19Z</time>
      </trkpt>
      <trkpt lat="47.20662" lon="5.99567">
        <ele>234</ele>
        <time>2026-03-18T13:09:21Z</time>
      </trkpt>
      <trkpt lat="47.20662" lon="5.99567">
        <ele>234</ele>
        <time>2026-03-18T13:09:21Z</time>
      </trkpt>
      <trkpt lat="47.20666" lon="5.9955">
        <ele>234</ele>
        <time>2026-03-18T13:09:23Z</time>
      </trkpt>
      <trkpt lat="47.20671" lon="5.99527">
        <ele>235</ele>
        <time>2026-03-18T13:09:26Z</time>
      </trkpt>
      <trkpt lat="47.20672" lon="5.99512">
        <ele>235</ele>
        <time>2026-03-18T13:09:28Z</time>
      </trkpt>
      <trkpt lat="47.20675" lon="5.99509">
        <ele>235</ele>
        <time>2026-03-18T13:09:28Z</time>
      </trkpt>
      <trkpt lat="47.20712" lon="5.99523">
        <ele>234</ele>
        <time>2026-03-18T13:09:35Z</time>
      </trkpt>
      <trkpt lat="47.20749" lon="5.99535">
        <ele>233</ele>
        <time>2026-03-18T13:09:42Z</time>
      </trkpt>
      <trkpt lat="47.2078" lon="5.9955">
        <ele>233</ele>
        <time>2026-03-18T13:09:48Z</time>
      </trkpt>
      <trkpt lat="47.20798" lon="5.99561">
        <ele>233</ele>
        <time>2026-03-18T13:09:51Z</time>
      </trkpt>
      <trkpt lat="47.20821" lon="5.99572">
        <ele>234</ele>
        <time>2026-03-18T13:09:55Z</time>
      </trkpt>
      <trkpt lat="47.20882" lon="5.99599">
        <ele>233</ele>
        <time>2026-03-18T13:10:07Z</time>
      </trkpt>
      <trkpt lat="47.20899" lon="5.99609">
        <ele>233</ele>
        <time>2026-03-18T13:10:10Z</time>
      </trkpt>
      <trkpt lat="47.20924" lon="5.99631">
        <ele>233</ele>
        <time>2026-03-18T13:10:15Z</time>
      </trkpt>
      <trkpt lat="47.20943" lon="5.99653">
        <ele>233</ele>
        <time>2026-03-18T13:10:19Z</time>
      </trkpt>
      <trkpt lat="47.20974" lon="5.99691">
        <ele>231</ele>
        <time>2026-03-18T13:10:27Z</time>
      </trkpt>
      <trkpt lat="47.20981" lon="5.99699">
        <ele>231</ele>
        <time>2026-03-18T13:10:28Z</time>
      </trkpt>
      <trkpt lat="47.20983" lon="5.99702">
        <ele>231</ele>
        <time>2026-03-18T13:10:29Z</time>
      </trkpt>
      <trkpt lat="47.20983" lon="5.99702">
        <ele>231</ele>
        <time>2026-03-18T13:10:29Z</time>
      </trkpt>
      <trkpt lat="47.20997" lon="5.99717">
        <ele>231</ele>
        <time>2026-03-18T13:10:32Z</time>
      </trkpt>
      <trkpt lat="47.21038" lon="5.99758">
        <ele>233</ele>
        <time>2026-03-18T13:10:41Z</time>
      </trkpt>
      <trkpt lat="47.21084" lon="5.998">
        <ele>234</ele>
        <time>2026-03-18T13:10:50Z</time>
      </trkpt>
      <trkpt lat="47.21163" lon="5.99875">
        <ele>231</ele>
        <time>2026-03-18T13:11:07Z</time>
      </trkpt>
      <trkpt lat="47.21197" lon="5.9991">
        <ele>231</ele>
        <time>2026-03-18T13:11:14Z</time>
      </trkpt>
      <trkpt lat="47.21272" lon="5.99987">
        <ele>233</ele>
        <time>2026-03-18T13:11:31Z</time>
      </trkpt>
      <trkpt lat="47.21318" lon="6.00032">
        <ele>233</ele>
        <time>2026-03-18T13:11:40Z</time>
      </trkpt>
      <trkpt lat="47.21364" lon="6.00079">
        <ele>234</ele>
        <time>2026-03-18T13:11:50Z</time>
      </trkpt>
      <trkpt lat="47.21417" lon="6.00138">
        <ele>236</ele>
        <time>2026-03-18T13:12:02Z</time>
      </trkpt>
      <trkpt lat="47.21495" lon="6.00244">
        <ele>233</ele>
        <time>2026-03-18T13:12:21Z</time>
      </trkpt>
      <trkpt lat="47.21537" lon="6.00301">
        <ele>234</ele>
        <time>2026-03-18T13:12:31Z</time>
      </trkpt>
      <trkpt lat="47.21567" lon="6.00347">
        <ele>234</ele>
        <time>2026-03-18T13:12:39Z</time>
      </trkpt>
      <trkpt lat="47.21577" lon="6.00366">
        <ele>234</ele>
        <time>2026-03-18T13:12:42Z</time>
      </trkpt>
      <trkpt lat="47.21586" lon="6.00389">
        <ele>234</ele>
        <time>2026-03-18T13:12:45Z</time>
      </trkpt>
      <trkpt lat="47.21596" lon="6.00422">
        <ele>234</ele>
        <time>2026-03-18T13:12:49Z</time>
      </trkpt>
      <trkpt lat="47.2161" lon="6.00492">
        <ele>233</ele>
        <time>2026-03-18T13:12:58Z</time>
      </trkpt>
      <trkpt lat="47.21622" lon="6.00567">
        <ele>233</ele>
        <time>2026-03-18T13:13:08Z</time>
      </trkpt>
      <trkpt lat="47.2164" lon="6.00704">
        <ele>235</ele>
        <time>2026-03-18T13:13:24Z</time>
      </trkpt>
      <trkpt lat="47.21644" lon="6.00767">
        <ele>235</ele>
        <time>2026-03-18T13:13:32Z</time>
      </trkpt>
      <trkpt lat="47.21646" lon="6.0082">
        <ele>236</ele>
        <time>2026-03-18T13:13:39Z</time>
      </trkpt>
      <trkpt lat="47.21646" lon="6.00828">
        <ele>236</ele>
        <time>2026-03-18T13:13:40Z</time>
      </trkpt>
      <trkpt lat="47.21649" lon="6.00857">
        <ele>237</ele>
        <time>2026-03-18T13:13:43Z</time>
      </trkpt>
      <trkpt lat="47.21652" lon="6.00924">
        <ele>240</ele>
        <time>2026-03-18T13:13:51Z</time>
      </trkpt>
      <trkpt lat="47.21651" lon="6.00949">
        <ele>240</ele>
        <time>2026-03-18T13:13:54Z</time>
      </trkpt>
      <trkpt lat="47.21654" lon="6.00986">
        <ele>240</ele>
        <time>2026-03-18T13:13:59Z</time>
      </trkpt>
      <trkpt lat="47.21662" lon="6.011">
        <ele>241</ele>
        <time>2026-03-18T13:14:13Z</time>
      </trkpt>
      <trkpt lat="47.21664" lon="6.01184">
        <ele>244</ele>
        <time>2026-03-18T13:14:23Z</time>
      </trkpt>
      <trkpt lat="47.2167" lon="6.01277">
        <ele>246</ele>
        <time>2026-03-18T13:14:34Z</time>
      </trkpt>
      <trkpt lat="47.21688" lon="6.01463">
        <ele>254</ele>
        <time>2026-03-18T13:14:57Z</time>
      </trkpt>
      <trkpt lat="47.21695" lon="6.01592">
        <ele>257</ele>
        <time>2026-03-18T13:15:12Z</time>
      </trkpt>
      <trkpt lat="47.21703" lon="6.01672">
        <ele>256</ele>
        <time>2026-03-18T13:15:22Z</time>
      </trkpt>
      <trkpt lat="47.21712" lon="6.01765">
        <ele>253</ele>
        <time>2026-03-18T13:15:33Z</time>
      </trkpt>
      <trkpt lat="47.21716" lon="6.01787">
        <ele>251</ele>
        <time>2026-03-18T13:15:36Z</time>
      </trkpt>
      <trkpt lat="47.2172" lon="6.01805">
        <ele>250</ele>
        <time>2026-03-18T13:15:39Z</time>
      </trkpt>
      <trkpt lat="47.21717" lon="6.01809">
        <ele>252</ele>
        <time>2026-03-18T13:15:39Z</time>
      </trkpt>
      <trkpt lat="47.21717" lon="6.01817">
        <ele>252</ele>
        <time>2026-03-18T13:15:40Z</time>
      </trkpt>
      <trkpt lat="47.21721" lon="6.01848">
        <ele>251</ele>
        <time>2026-03-18T13:15:44Z</time>
      </trkpt>
      <trkpt lat="47.21722" lon="6.01853">
        <ele>250</ele>
        <time>2026-03-18T13:15:45Z</time>
      </trkpt>
      <trkpt lat="47.2173" lon="6.0185">
        <ele>247</ele>
        <time>2026-03-18T13:15:46Z</time>
      </trkpt>
      <trkpt lat="47.21776" lon="6.0183">
        <ele>238</ele>
        <time>2026-03-18T13:15:55Z</time>
      </trkpt>
      <trkpt lat="47.21829" lon="6.01808">
        <ele>238</ele>
        <time>2026-03-18T13:16:04Z</time>
      </trkpt>
      <trkpt lat="47.21879" lon="6.01789">
        <ele>240</ele>
        <time>2026-03-18T13:16:14Z</time>
      </trkpt>
      <trkpt lat="47.21887" lon="6.01782">
        <ele>241</ele>
        <time>2026-03-18T13:16:15Z</time>
      </trkpt>
      <trkpt lat="47.21901" lon="6.01752">
        <ele>242</ele>
        <time>2026-03-18T13:16:20Z</time>
      </trkpt>
      <trkpt lat="47.21918" lon="6.01731">
        <ele>243</ele>
        <time>2026-03-18T13:16:24Z</time>
      </trkpt>
      <trkpt lat="47.21925" lon="6.01775">
        <ele>244</ele>
        <time>2026-03-18T13:16:29Z</time>
      </trkpt>
      <trkpt lat="47.21928" lon="6.01818">
        <ele>244</ele>
        <time>2026-03-18T13:16:34Z</time>
      </trkpt>
      <trkpt lat="47.21928" lon="6.01834">
        <ele>244</ele>
        <time>2026-03-18T13:16:36Z</time>
      </trkpt>
      <trkpt lat="47.21926" lon="6.01879">
        <ele>243</ele>
        <time>2026-03-18T13:16:42Z</time>
      </trkpt>
      <trkpt lat="47.21922" lon="6.01958">
        <ele>241</ele>
        <time>2026-03-18T13:16:51Z</time>
      </trkpt>
      <trkpt lat="47.21922" lon="6.01994">
        <ele>240</ele>
        <time>2026-03-18T13:16:56Z</time>
      </trkpt>
      <trkpt lat="47.21924" lon="6.02023">
        <ele>240</ele>
        <time>2026-03-18T13:16:59Z</time>
      </trkpt>
      <trkpt lat="47.21927" lon="6.02038">
        <ele>241</ele>
        <time>2026-03-18T13:17:01Z</time>
      </trkpt>
      <trkpt lat="47.21935" lon="6.02072">
        <ele>241</ele>
        <time>2026-03-18T13:17:05Z</time>
      </trkpt>
      <trkpt lat="47.21946" lon="6.02107">
        <ele>242</ele>
        <time>2026-03-18T13:17:10Z</time>
      </trkpt>
      <trkpt lat="47.21967" lon="6.02152">
        <ele>243</ele>
        <time>2026-03-18T13:17:17Z</time>
      </trkpt>
      <trkpt lat="47.21987" lon="6.02186">
        <ele>244</ele>
        <time>2026-03-18T13:17:22Z</time>
      </trkpt>
      <trkpt lat="47.22021" lon="6.02241">
        <ele>249</ele>
        <time>2026-03-18T13:17:31Z</time>
      </trkpt>
      <trkpt lat="47.22034" lon="6.02277">
        <ele>249</ele>
        <time>2026-03-18T13:17:36Z</time>
      </trkpt>
      <trkpt lat="47.22073" lon="6.02376">
        <ele>246</ele>
        <time>2026-03-18T13:17:50Z</time>
      </trkpt>
      <trkpt lat="47.22125" lon="6.02539">
        <ele>243</ele>
        <time>2026-03-18T13:18:12Z</time>
      </trkpt>
      <trkpt lat="47.22182" lon="6.02668">
        <ele>242</ele>
        <time>2026-03-18T13:18:30Z</time>
      </trkpt>
      <trkpt lat="47.22233" lon="6.02763">
        <ele>242</ele>
        <time>2026-03-18T13:18:45Z</time>
      </trkpt>
      <trkpt lat="47.22253" lon="6.02789">
        <ele>243</ele>
        <time>2026-03-18T13:18:50Z</time>
      </trkpt>
      <trkpt lat="47.223" lon="6.02828">
        <ele>245</ele>
        <time>2026-03-18T13:18:59Z</time>
      </trkpt>
      <trkpt lat="47.22348" lon="6.02871">
        <ele>246</ele>
        <time>2026-03-18T13:19:09Z</time>
      </trkpt>
      <trkpt lat="47.22384" lon="6.02915">
        <ele>242</ele>
        <time>2026-03-18T13:19:17Z</time>
      </trkpt>
      <trkpt lat="47.22392" lon="6.02929">
        <ele>242</ele>
        <time>2026-03-18T13:19:20Z</time>
      </trkpt>
      <trkpt lat="47.22416" lon="6.02994">
        <ele>239</ele>
        <time>2026-03-18T13:19:29Z</time>
      </trkpt>
      <trkpt lat="47.22423" lon="6.03009">
        <ele>239</ele>
        <time>2026-03-18T13:19:31Z</time>
      </trkpt>
      <trkpt lat="47.22439" lon="6.03029">
        <ele>240</ele>
        <time>2026-03-18T13:19:35Z</time>
      </trkpt>
      <trkpt lat="47.22448" lon="6.0304">
        <ele>240</ele>
        <time>2026-03-18T13:19:37Z</time>
      </trkpt>
      <trkpt lat="47.22465" lon="6.03051">
        <ele>241</ele>
        <time>2026-03-18T13:19:40Z</time>
      </trkpt>
      <trkpt lat="47.22468" lon="6.03052">
        <ele>241</ele>
        <time>2026-03-18T13:19:41Z</time>
      </trkpt>
      <trkpt lat="47.22493" lon="6.03066">
        <ele>242</ele>
        <time>2026-03-18T13:19:45Z</time>
      </trkpt>
      <trkpt lat="47.22509" lon="6.03076">
        <ele>242</ele>
        <time>2026-03-18T13:19:48Z</time>
      </trkpt>
      <trkpt lat="47.22519" lon="6.03084">
        <ele>242</ele>
        <time>2026-03-18T13:19:50Z</time>
      </trkpt>
      <trkpt lat="47.22535" lon="6.03097">
        <ele>243</ele>
        <time>2026-03-18T13:19:54Z</time>
      </trkpt>
      <trkpt lat="47.22562" lon="6.03119">
        <ele>244</ele>
        <time>2026-03-18T13:19:59Z</time>
      </trkpt>
      <trkpt lat="47.22584" lon="6.03134">
        <ele>245</ele>
        <time>2026-03-18T13:20:03Z</time>
      </trkpt>
      <trkpt lat="47.22604" lon="6.03143">
        <ele>245</ele>
        <time>2026-03-18T13:20:07Z</time>
      </trkpt>
      <trkpt lat="47.22611" lon="6.03145">
        <ele>244</ele>
        <time>2026-03-18T13:20:08Z</time>
      </trkpt>
      <trkpt lat="47.22622" lon="6.03147">
        <ele>244</ele>
        <time>2026-03-18T13:20:10Z</time>
      </trkpt>
      <trkpt lat="47.22629" lon="6.03146">
        <ele>244</ele>
        <time>2026-03-18T13:20:12Z</time>
      </trkpt>
      <trkpt lat="47.22644" lon="6.03144">
        <ele>243</ele>
        <time>2026-03-18T13:20:14Z</time>
      </trkpt>
      <trkpt lat="47.22663" lon="6.03139">
        <ele>242</ele>
        <time>2026-03-18T13:20:18Z</time>
      </trkpt>
      <trkpt lat="47.22677" lon="6.03134">
        <ele>242</ele>
        <time>2026-03-18T13:20:20Z</time>
      </trkpt>
      <trkpt lat="47.2269" lon="6.03128">
        <ele>241</ele>
        <time>2026-03-18T13:20:23Z</time>
      </trkpt>
      <trkpt lat="47.22692" lon="6.03127">
        <ele>241</ele>
        <time>2026-03-18T13:20:23Z</time>
      </trkpt>
      <trkpt lat="47.22693" lon="6.03126">
        <ele>241</ele>
        <time>2026-03-18T13:20:23Z</time>
      </trkpt>
      <trkpt lat="47.22696" lon="6.03124">
        <ele>241</ele>
        <time>2026-03-18T13:20:24Z</time>
      </trkpt>
      <trkpt lat="47.22701" lon="6.03119">
        <ele>241</ele>
        <time>2026-03-18T13:20:25Z</time>
      </trkpt>
      <trkpt lat="47.22742" lon="6.03086">
        <ele>240</ele>
        <time>2026-03-18T13:20:33Z</time>
      </trkpt>
      <trkpt lat="47.22751" lon="6.03081">
        <ele>240</ele>
        <time>2026-03-18T13:20:35Z</time>
      </trkpt>
      <trkpt lat="47.22758" lon="6.03073">
        <ele>241</ele>
        <time>2026-03-18T13:20:37Z</time>
      </trkpt>
      <trkpt lat="47.22765" lon="6.03066">
        <ele>242</ele>
        <time>2026-03-18T13:20:38Z</time>
      </trkpt>
      <trkpt lat="47.22774" lon="6.03053">
        <ele>243</ele>
        <time>2026-03-18T13:20:40Z</time>
      </trkpt>
      <trkpt lat="47.22804" lon="6.03013">
        <ele>244</ele>
        <time>2026-03-18T13:20:48Z</time>
      </trkpt>
      <trkpt lat="47.22804" lon="6.03013">
        <ele>244</ele>
        <time>2026-03-18T13:20:48Z</time>
      </trkpt>
      <trkpt lat="47.22844" lon="6.02947">
        <ele>247</ele>
        <time>2026-03-18T13:20:58Z</time>
      </trkpt>
      <trkpt lat="47.22851" lon="6.02929">
        <ele>247</ele>
        <time>2026-03-18T13:21:01Z</time>
      </trkpt>
      <trkpt lat="47.22855" lon="6.02913">
        <ele>248</ele>
        <time>2026-03-18T13:21:03Z</time>
      </trkpt>
      <trkpt lat="47.22886" lon="6.02812">
        <ele>250</ele>
        <time>2026-03-18T13:21:16Z</time>
      </trkpt>
      <trkpt lat="47.22904" lon="6.02742">
        <ele>255</ele>
        <time>2026-03-18T13:21:25Z</time>
      </trkpt>
      <trkpt lat="47.22928" lon="6.02663">
        <ele>265</ele>
        <time>2026-03-18T13:21:36Z</time>
      </trkpt>
      <trkpt lat="47.2295" lon="6.02581">
        <ele>263</ele>
        <time>2026-03-18T13:21:46Z</time>
      </trkpt>
      <trkpt lat="47.2296" lon="6.02538">
        <ele>262</ele>
        <time>2026-03-18T13:21:52Z</time>
      </trkpt>
      <trkpt lat="47.22966" lon="6.025">
        <ele>261</ele>
        <time>2026-03-18T13:21:57Z</time>
      </trkpt>
      <trkpt lat="47.22968" lon="6.02465">
        <ele>265</ele>
        <time>2026-03-18T13:22:01Z</time>
      </trkpt>
      <trkpt lat="47.2297" lon="6.02448">
        <ele>267</ele>
        <time>2026-03-18T13:22:03Z</time>
      </trkpt>
      <trkpt lat="47.22972" lon="6.02431">
        <ele>268</ele>
        <time>2026-03-18T13:22:05Z</time>
      </trkpt>
      <trkpt lat="47.22983" lon="6.02395">
        <ele>264</ele>
        <time>2026-03-18T13:22:10Z</time>
      </trkpt>
      <trkpt lat="47.2299" lon="6.02353">
        <ele>263</ele>
        <time>2026-03-18T13:22:15Z</time>
      </trkpt>
      <trkpt lat="47.22998" lon="6.02234">
        <ele>264</ele>
        <time>2026-03-18T13:22:29Z</time>
      </trkpt>
      <trkpt lat="47.22999" lon="6.02206">
        <ele>260</ele>
        <time>2026-03-18T13:22:33Z</time>
      </trkpt>
      <trkpt lat="47.22998" lon="6.02136">
        <ele>256</ele>
        <time>2026-03-18T13:22:41Z</time>
      </trkpt>
      <trkpt lat="47.22998" lon="6.02084">
        <ele>253</ele>
        <time>2026-03-18T13:22:48Z</time>
      </trkpt>
      <trkpt lat="47.22995" lon="6.02001">
        <ele>256</ele>
        <time>2026-03-18T13:22:58Z</time>
      </trkpt>
      <trkpt lat="47.22984" lon="6.01933">
        <ele>265</ele>
        <time>2026-03-18T13:23:06Z</time>
      </trkpt>
      <trkpt lat="47.22982" lon="6.01898">
        <ele>267</ele>
        <time>2026-03-18T13:23:10Z</time>
      </trkpt>
      <trkpt lat="47.22982" lon="6.01841">
        <ele>272</ele>
        <time>2026-03-18T13:23:17Z</time>
      </trkpt>
      <trkpt lat="47.22984" lon="6.01814">
        <ele>271</ele>
        <time>2026-03-18T13:23:20Z</time>
      </trkpt>
      <trkpt lat="47.2299" lon="6.01794">
        <ele>267</ele>
        <time>2026-03-18T13:23:23Z</time>
      </trkpt>
      <trkpt lat="47.23003" lon="6.01755">
        <ele>260</ele>
        <time>2026-03-18T13:23:28Z</time>
      </trkpt>
      <trkpt lat="47.23023" lon="6.01727">
        <ele>256</ele>
        <time>2026-03-18T13:23:33Z</time>
      </trkpt>
      <trkpt lat="47.23037" lon="6.01709">
        <ele>254</ele>
        <time>2026-03-18T13:23:37Z</time>
      </trkpt>
      <trkpt lat="47.23041" lon="6.01706">
        <ele>253</ele>
        <time>2026-03-18T13:23:37Z</time>
      </trkpt>
      <trkpt lat="47.23051" lon="6.01698">
        <ele>251</ele>
        <time>2026-03-18T13:23:39Z</time>
      </trkpt>
      <trkpt lat="47.23083" lon="6.01668">
        <ele>246</ele>
        <time>2026-03-18T13:23:46Z</time>
      </trkpt>
      <trkpt lat="47.23088" lon="6.01663">
        <ele>246</ele>
        <time>2026-03-18T13:23:47Z</time>
      </trkpt>
      <trkpt lat="47.23091" lon="6.0166">
        <ele>246</ele>
        <time>2026-03-18T13:23:48Z</time>
      </trkpt>
      <trkpt lat="47.23114" lon="6.01644">
        <ele>246</ele>
        <time>2026-03-18T13:23:52Z</time>
      </trkpt>
      <trkpt lat="47.23138" lon="6.01628">
        <ele>246</ele>
        <time>2026-03-18T13:23:57Z</time>
      </trkpt>
      <trkpt lat="47.23158" lon="6.0162">
        <ele>245</ele>
        <time>2026-03-18T13:24:01Z</time>
      </trkpt>
      <trkpt lat="47.23199" lon="6.01605">
        <ele>247</ele>
        <time>2026-03-18T13:24:08Z</time>
      </trkpt>
      <trkpt lat="47.23221" lon="6.016">
        <ele>247</ele>
        <time>2026-03-18T13:24:12Z</time>
      </trkpt>
      <trkpt lat="47.23228" lon="6.01597">
        <ele>248</ele>
        <time>2026-03-18T13:24:14Z</time>
      </trkpt>
      <trkpt lat="47.23236" lon="6.01595">
        <ele>248</ele>
        <time>2026-03-18T13:24:15Z</time>
      </trkpt>
      <trkpt lat="47.23273" lon="6.01584">
        <ele>249</ele>
        <time>2026-03-18T13:24:22Z</time>
      </trkpt>
      <trkpt lat="47.23315" lon="6.01572">
        <ele>249</ele>
        <time>2026-03-18T13:24:29Z</time>
      </trkpt>
      <trkpt lat="47.23325" lon="6.0157">
        <ele>250</ele>
        <time>2026-03-18T13:24:31Z</time>
      </trkpt>
      <trkpt lat="47.23359" lon="6.01564">
        <ele>249</ele>
        <time>2026-03-18T13:24:37Z</time>
      </trkpt>
      <trkpt lat="47.23426" lon="6.01556">
        <ele>248</ele>
        <time>2026-03-18T13:24:49Z</time>
      </trkpt>
      <trkpt lat="47.23437" lon="6.01553">
        <ele>247</ele>
        <time>2026-03-18T13:24:51Z</time>
      </trkpt>
      <trkpt lat="47.23442" lon="6.01554">
        <ele>247</ele>
        <time>2026-03-18T13:24:52Z</time>
      </trkpt>
      <trkpt lat="47.23446" lon="6.01551">
        <ele>247</ele>
        <time>2026-03-18T13:24:53Z</time>
      </trkpt>
      <trkpt lat="47.23451" lon="6.0155">
        <ele>246</ele>
        <time>2026-03-18T13:24:54Z</time>
      </trkpt>
      <trkpt lat="47.23471" lon="6.01546">
        <ele>245</ele>
        <time>2026-03-18T13:24:57Z</time>
      </trkpt>
      <trkpt lat="47.23495" lon="6.01546">
        <ele>244</ele>
        <time>2026-03-18T13:25:02Z</time>
      </trkpt>
      <trkpt lat="47.23534" lon="6.01553">
        <ele>244</ele>
        <time>2026-03-18T13:25:09Z</time>
      </trkpt>
      <trkpt lat="47.23543" lon="6.01558">
        <ele>244</ele>
        <time>2026-03-18T13:25:10Z</time>
      </trkpt>
      <trkpt lat="47.23557" lon="6.0155">
        <ele>245</ele>
        <time>2026-03-18T13:25:13Z</time>
      </trkpt>
      <trkpt lat="47.23567" lon="6.01543">
        <ele>245</ele>
        <time>2026-03-18T13:25:15Z</time>
      </trkpt>
      <trkpt lat="47.23681" lon="6.01516">
        <ele>249</ele>
        <time>2026-03-18T13:25:35Z</time>
      </trkpt>
      <trkpt lat="47.23702" lon="6.01512">
        <ele>249</ele>
        <time>2026-03-18T13:25:39Z</time>
      </trkpt>
      <trkpt lat="47.23718" lon="6.01506">
        <ele>250</ele>
        <time>2026-03-18T13:25:42Z</time>
      </trkpt>
      <trkpt lat="47.23728" lon="6.01504">
        <ele>250</ele>
        <time>2026-03-18T13:25:44Z</time>
      </trkpt>
      <trkpt lat="47.23755" lon="6.01502">
        <ele>251</ele>
        <time>2026-03-18T13:25:49Z</time>
      </trkpt>
      <trkpt lat="47.23777" lon="6.01498">
        <ele>252</ele>
        <time>2026-03-18T13:25:53Z</time>
      </trkpt>
      <trkpt lat="47.23788" lon="6.01494">
        <ele>253</ele>
        <time>2026-03-18T13:25:55Z</time>
      </trkpt>
      <trkpt lat="47.2381" lon="6.01483">
        <ele>256</ele>
        <time>2026-03-18T13:25:59Z</time>
      </trkpt>
      <trkpt lat="47.23819" lon="6.01481">
        <ele>257</ele>
        <time>2026-03-18T13:26:01Z</time>
      </trkpt>
      <trkpt lat="47.23824" lon="6.01481">
        <ele>257</ele>
        <time>2026-03-18T13:26:01Z</time>
      </trkpt>
      <trkpt lat="47.23981" lon="6.01512">
        <ele>261</ele>
        <time>2026-03-18T13:26:30Z</time>
      </trkpt>
      <trkpt lat="47.24003" lon="6.01515">
        <ele>263</ele>
        <time>2026-03-18T13:26:34Z</time>
      </trkpt>
      <trkpt lat="47.24005" lon="6.01513">
        <ele>263</ele>
        <time>2026-03-18T13:26:34Z</time>
      </trkpt>
      <trkpt lat="47.24007" lon="6.0151">
        <ele>264</ele>
        <time>2026-03-18T13:26:34Z</time>
      </trkpt>
      <trkpt lat="47.24009" lon="6.01499">
        <ele>265</ele>
        <time>2026-03-18T13:26:36Z</time>
      </trkpt>
      <trkpt lat="47.24016" lon="6.01457">
        <ele>269</ele>
        <time>2026-03-18T13:26:41Z</time>
      </trkpt>
      <trkpt lat="47.24022" lon="6.01422">
        <ele>272</ele>
        <time>2026-03-18T13:26:45Z</time>
      </trkpt>
      <trkpt lat="47.24028" lon="6.01383">
        <ele>274</ele>
        <time>2026-03-18T13:26:50Z</time>
      </trkpt>
      <trkpt lat="47.24031" lon="6.01365">
        <ele>275</ele>
        <time>2026-03-18T13:26:52Z</time>
      </trkpt>
      <trkpt lat="47.2403" lon="6.01352">
        <ele>276</ele>
        <time>2026-03-18T13:26:54Z</time>
      </trkpt>
      <trkpt lat="47.24027" lon="6.01343">
        <ele>276</ele>
        <time>2026-03-18T13:26:55Z</time>
      </trkpt>
      <trkpt lat="47.24009" lon="6.01317">
        <ele>276</ele>
        <time>2026-03-18T13:27:00Z</time>
      </trkpt>
      <trkpt lat="47.24001" lon="6.01308">
        <ele>276</ele>
        <time>2026-03-18T13:27:02Z</time>
      </trkpt>
      <trkpt lat="47.23995" lon="6.01299">
        <ele>276</ele>
        <time>2026-03-18T13:27:03Z</time>
      </trkpt>
      <trkpt lat="47.23973" lon="6.01271">
        <ele>277</ele>
        <time>2026-03-18T13:27:08Z</time>
      </trkpt>
      <trkpt lat="47.23971" lon="6.01269">
        <ele>277</ele>
        <time>2026-03-18T13:27:09Z</time>
      </trkpt>
      <trkpt lat="47.23965" lon="6.01263">
        <ele>277</ele>
        <time>2026-03-18T13:27:10Z</time>
      </trkpt>
      <trkpt lat="47.23944" lon="6.01238">
        <ele>277</ele>
        <time>2026-03-18T13:27:15Z</time>
      </trkpt>
      <trkpt lat="47.23925" lon="6.01214">
        <ele>277</ele>
        <time>2026-03-18T13:27:19Z</time>
      </trkpt>
      <trkpt lat="47.23915" lon="6.01194">
        <ele>278</ele>
        <time>2026-03-18T13:27:22Z</time>
      </trkpt>
      <trkpt lat="47.23911" lon="6.01187">
        <ele>278</ele>
        <time>2026-03-18T13:27:23Z</time>
      </trkpt>
      <trkpt lat="47.23915" lon="6.01183">
        <ele>278</ele>
        <time>2026-03-18T13:27:24Z</time>
      </trkpt>
      <trkpt lat="47.23923" lon="6.01169">
        <ele>278</ele>
        <time>2026-03-18T13:27:26Z</time>
      </trkpt>
      <trkpt lat="47.23964" lon="6.01097">
        <ele>279</ele>
        <time>2026-03-18T13:27:38Z</time>
      </trkpt>
      <trkpt lat="47.2399" lon="6.01049">
        <ele>280</ele>
        <time>2026-03-18T13:27:45Z</time>
      </trkpt>
      <trkpt lat="47.23996" lon="6.01038">
        <ele>281</ele>
        <time>2026-03-18T13:27:47Z</time>
      </trkpt>
      <trkpt lat="47.24014" lon="6.00984">
        <ele>281</ele>
        <time>2026-03-18T13:27:54Z</time>
      </trkpt>
      <trkpt lat="47.2403" lon="6.00936">
        <ele>282</ele>
        <time>2026-03-18T13:28:01Z</time>
      </trkpt>
      <trkpt lat="47.24032" lon="6.00927">
        <ele>282</ele>
        <time>2026-03-18T13:28:02Z</time>
      </trkpt>
      <trkpt lat="47.24051" lon="6.00874">
        <ele>282</ele>
        <time>2026-03-18T13:28:09Z</time>
      </trkpt>
      <trkpt lat="47.24067" lon="6.00828">
        <ele>281</ele>
        <time>2026-03-18T13:28:15Z</time>
      </trkpt>
      <trkpt lat="47.24078" lon="6.00795">
        <ele>281</ele>
        <time>2026-03-18T13:28:20Z</time>
      </trkpt>
      <trkpt lat="47.24081" lon="6.00787">
        <ele>281</ele>
        <time>2026-03-18T13:28:21Z</time>
      </trkpt>
      <trkpt lat="47.24085" lon="6.00775">
        <ele>281</ele>
        <time>2026-03-18T13:28:22Z</time>
      </trkpt>
      <trkpt lat="47.24104" lon="6.00724">
        <ele>281</ele>
        <time>2026-03-18T13:28:29Z</time>
      </trkpt>
      <trkpt lat="47.24116" lon="6.00689">
        <ele>281</ele>
        <time>2026-03-18T13:28:34Z</time>
      </trkpt>
      <trkpt lat="47.24117" lon="6.00687">
        <ele>281</ele>
        <time>2026-03-18T13:28:34Z</time>
      </trkpt>
      <trkpt lat="47.24119" lon="6.00692">
        <ele>281</ele>
        <time>2026-03-18T13:28:35Z</time>
      </trkpt>
      <trkpt lat="47.24117" lon="6.00687">
        <ele>281</ele>
        <time>2026-03-18T13:28:36Z</time>
      </trkpt>
      <trkpt lat="47.24122" lon="6.00682">
        <ele>281</ele>
        <time>2026-03-18T13:28:37Z</time>
      </trkpt>
      <trkpt lat="47.24154" lon="6.00747">
        <ele>281</ele>
        <time>2026-03-18T13:28:47Z</time>
      </trkpt>
      <trkpt lat="47.2416" lon="6.00759">
        <ele>281</ele>
        <time>2026-03-18T13:28:48Z</time>
      </trkpt>
      <trkpt lat="47.24171" lon="6.00782">
        <ele>281</ele>
        <time>2026-03-18T13:28:52Z</time>
      </trkpt>
      <trkpt lat="47.24182" lon="6.00805">
        <ele>281</ele>
        <time>2026-03-18T13:28:55Z</time>
      </trkpt>
      <trkpt lat="47.24205" lon="6.00853">
        <ele>282</ele>
        <time>2026-03-18T13:29:02Z</time>
      </trkpt>
      <trkpt lat="47.2421" lon="6.00873">
        <ele>282</ele>
        <time>2026-03-18T13:29:05Z</time>
      </trkpt>
      <trkpt lat="47.24214" lon="6.00879">
        <ele>282</ele>
        <time>2026-03-18T13:29:06Z</time>
      </trkpt>
      <trkpt lat="47.24212" lon="6.00884">
        <ele>282</ele>
        <time>2026-03-18T13:29:07Z</time>
      </trkpt>
      <trkpt lat="47.24212" lon="6.00889">
        <ele>282</ele>
        <time>2026-03-18T13:29:07Z</time>
      </trkpt>
      <trkpt lat="47.24212" lon="6.00894">
        <ele>282</ele>
        <time>2026-03-18T13:29:08Z</time>
      </trkpt>
      <trkpt lat="47.24213" lon="6.00899">
        <ele>282</ele>
        <time>2026-03-18T13:29:08Z</time>
      </trkpt>
      <trkpt lat="47.24215" lon="6.00903">
        <ele>282</ele>
        <time>2026-03-18T13:29:09Z</time>
      </trkpt>
      <trkpt lat="47.24219" lon="6.00907">
        <ele>282</ele>
        <time>2026-03-18T13:29:10Z</time>
      </trkpt>
      <trkpt lat="47.24222" lon="6.00909">
        <ele>282</ele>
        <time>2026-03-18T13:29:10Z</time>
      </trkpt>
      <trkpt lat="47.24229" lon="6.0091">
        <ele>282</ele>
        <time>2026-03-18T13:29:12Z</time>
      </trkpt>
      <trkpt lat="47.24233" lon="6.00907">
        <ele>282</ele>
        <time>2026-03-18T13:29:13Z</time>
      </trkpt>
      <trkpt lat="47.24236" lon="6.00904">
        <ele>282</ele>
        <time>2026-03-18T13:29:13Z</time>
      </trkpt>
      <trkpt lat="47.2424" lon="6.00903">
        <ele>282</ele>
        <time>2026-03-18T13:29:14Z</time>
      </trkpt>
      <trkpt lat="47.24242" lon="6.0092">
        <ele>282</ele>
        <time>2026-03-18T13:29:16Z</time>
      </trkpt>
      <trkpt lat="47.24245" lon="6.00899">
        <ele>282</ele>
        <time>2026-03-18T13:29:19Z</time>
      </trkpt>
      <trkpt lat="47.24246" lon="6.00887">
        <ele>282</ele>
        <time>2026-03-18T13:29:20Z</time>
      </trkpt>
      <trkpt lat="47.24245" lon="6.00871">
        <ele>282</ele>
        <time>2026-03-18T13:29:22Z</time>
      </trkpt>
      <trkpt lat="47.24249" lon="6.0086">
        <ele>281</ele>
        <time>2026-03-18T13:29:24Z</time>
      </trkpt>
      <trkpt lat="47.24272" lon="6.00822">
        <ele>281</ele>
        <time>2026-03-18T13:29:30Z</time>
      </trkpt>
      <trkpt lat="47.24278" lon="6.00807">
        <ele>281</ele>
        <time>2026-03-18T13:29:32Z</time>
      </trkpt>
      <trkpt lat="47.24283" lon="6.00797">
        <ele>281</ele>
        <time>2026-03-18T13:29:33Z</time>
      </trkpt>
      <trkpt lat="47.24289" lon="6.00796">
        <ele>281</ele>
        <time>2026-03-18T13:29:34Z</time>
      </trkpt>
      <trkpt lat="47.24293" lon="6.00792">
        <ele>280</ele>
        <time>2026-03-18T13:29:35Z</time>
      </trkpt>
      <trkpt lat="47.24298" lon="6.00785">
        <ele>281</ele>
        <time>2026-03-18T13:29:36Z</time>
      </trkpt>
      <trkpt lat="47.243" lon="6.00781">
        <ele>281</ele>
        <time>2026-03-18T13:29:37Z</time>
      </trkpt>
      <trkpt lat="47.24301" lon="6.00776">
        <ele>281</ele>
        <time>2026-03-18T13:29:38Z</time>
      </trkpt>
      <trkpt lat="47.24301" lon="6.00771">
        <ele>281</ele>
        <time>2026-03-18T13:29:38Z</time>
      </trkpt>
      <trkpt lat="47.24307" lon="6.0076">
        <ele>281</ele>
        <time>2026-03-18T13:29:40Z</time>
      </trkpt>
      <trkpt lat="47.24332" lon="6.00718">
        <ele>281</ele>
        <time>2026-03-18T13:29:47Z</time>
      </trkpt>
      <trkpt lat="47.24359" lon="6.00678">
        <ele>280</ele>
        <time>2026-03-18T13:29:54Z</time>
      </trkpt>
      <trkpt lat="47.24364" lon="6.00671">
        <ele>280</ele>
        <time>2026-03-18T13:29:55Z</time>
      </trkpt>
      <trkpt lat="47.24371" lon="6.00661">
        <ele>280</ele>
        <time>2026-03-18T13:29:56Z</time>
      </trkpt>
      <trkpt lat="47.24384" lon="6.00633">
        <ele>280</ele>
        <time>2026-03-18T13:30:01Z</time>
      </trkpt>
      <trkpt lat="47.24391" lon="6.00602">
        <ele>280</ele>
        <time>2026-03-18T13:30:05Z</time>
      </trkpt>
      <trkpt lat="47.24393" lon="6.00585">
        <ele>280</ele>
        <time>2026-03-18T13:30:07Z</time>
      </trkpt>
      <trkpt lat="47.24395" lon="6.00575">
        <ele>281</ele>
        <time>2026-03-18T13:30:08Z</time>
      </trkpt>
      <trkpt lat="47.24402" lon="6.00527">
        <ele>281</ele>
        <time>2026-03-18T13:30:14Z</time>
      </trkpt>
      <trkpt lat="47.24406" lon="6.00519">
        <ele>282</ele>
        <time>2026-03-18T13:30:15Z</time>
      </trkpt>
      <trkpt lat="47.2441" lon="6.00507">
        <ele>282</ele>
        <time>2026-03-18T13:30:17Z</time>
      </trkpt>
      <trkpt lat="47.24426" lon="6.0047">
        <ele>282</ele>
        <time>2026-03-18T13:30:22Z</time>
      </trkpt>
      <trkpt lat="47.2443" lon="6.0046">
        <ele>282</ele>
        <time>2026-03-18T13:30:23Z</time>
      </trkpt>
      <trkpt lat="47.24436" lon="6.00446">
        <ele>282</ele>
        <time>2026-03-18T13:30:25Z</time>
      </trkpt>
      <trkpt lat="47.24444" lon="6.00433">
        <ele>283</ele>
        <time>2026-03-18T13:30:27Z</time>
      </trkpt>
      <trkpt lat="47.24475" lon="6.00373">
        <ele>284</ele>
        <time>2026-03-18T13:30:37Z</time>
      </trkpt>
      <trkpt lat="47.24508" lon="6.00308">
        <ele>284</ele>
        <time>2026-03-18T13:30:46Z</time>
      </trkpt>
      <trkpt lat="47.24513" lon="6.00299">
        <ele>284</ele>
        <time>2026-03-18T13:30:48Z</time>
      </trkpt>
      <trkpt lat="47.24519" lon="6.00288">
        <ele>284</ele>
        <time>2026-03-18T13:30:49Z</time>
      </trkpt>
      <trkpt lat="47.24537" lon="6.00244">
        <ele>283</ele>
        <time>2026-03-18T13:30:56Z</time>
      </trkpt>
      <trkpt lat="47.24549" lon="6.00212">
        <ele>283</ele>
        <time>2026-03-18T13:31:00Z</time>
      </trkpt>
      <trkpt lat="47.24551" lon="6.00182">
        <ele>282</ele>
        <time>2026-03-18T13:31:04Z</time>
      </trkpt>
      <trkpt lat="47.24565" lon="6.00154">
        <ele>283</ele>
        <time>2026-03-18T13:31:08Z</time>
      </trkpt>
      <trkpt lat="47.24573" lon="6.0013">
        <ele>284</ele>
        <time>2026-03-18T13:31:11Z</time>
      </trkpt>
      <trkpt lat="47.24587" lon="6.001">
        <ele>285</ele>
        <time>2026-03-18T13:31:16Z</time>
      </trkpt>
      <trkpt lat="47.24591" lon="6.0009">
        <ele>285</ele>
        <time>2026-03-18T13:31:17Z</time>
      </trkpt>
      <trkpt lat="47.24604" lon="6.00048">
        <ele>286</ele>
        <time>2026-03-18T13:31:23Z</time>
      </trkpt>
      <trkpt lat="47.24607" lon="6.0004">
        <ele>286</ele>
        <time>2026-03-18T13:31:24Z</time>
      </trkpt>
      <trkpt lat="47.24613" lon="6.00041">
        <ele>287</ele>
        <time>2026-03-18T13:31:25Z</time>
      </trkpt>
      <trkpt lat="47.24618" lon="6.0004">
        <ele>287</ele>
        <time>2026-03-18T13:31:26Z</time>
      </trkpt>
      <trkpt lat="47.24639" lon="6.00031">
        <ele>288</ele>
        <time>2026-03-18T13:31:29Z</time>
      </trkpt>
      <trkpt lat="47.24656" lon="6.00023">
        <ele>288</ele>
        <time>2026-03-18T13:31:33Z</time>
      </trkpt>
      <trkpt lat="47.24671" lon="6.0001">
        <ele>289</ele>
        <time>2026-03-18T13:31:36Z</time>
      </trkpt>
      <trkpt lat="47.24688" lon="5.9999">
        <ele>289</ele>
        <time>2026-03-18T13:31:40Z</time>
      </trkpt>
      <trkpt lat="47.24693" lon="5.99984">
        <ele>289</ele>
        <time>2026-03-18T13:31:41Z</time>
      </trkpt>
      <trkpt lat="47.247" lon="5.99975">
        <ele>290</ele>
        <time>2026-03-18T13:31:42Z</time>
      </trkpt>
      <trkpt lat="47.24705" lon="5.99968">
        <ele>290</ele>
        <time>2026-03-18T13:31:44Z</time>
      </trkpt>
      <trkpt lat="47.24711" lon="5.9996">
        <ele>290</ele>
        <time>2026-03-18T13:31:45Z</time>
      </trkpt>
      <trkpt lat="47.24721" lon="5.99946">
        <ele>291</ele>
        <time>2026-03-18T13:31:48Z</time>
      </trkpt>
      <trkpt lat="47.24727" lon="5.99948">
        <ele>291</ele>
        <time>2026-03-18T13:31:49Z</time>
      </trkpt>
      <trkpt lat="47.24735" lon="5.99945">
        <ele>292</ele>
        <time>2026-03-18T13:31:50Z</time>
      </trkpt>
      <trkpt lat="47.24735" lon="5.99945">
        <ele>292</ele>
        <time>2026-03-18T13:31:50Z</time>
      </trkpt>
      <trkpt lat="47.24741" lon="5.99943">
        <ele>292</ele>
        <time>2026-03-18T13:31:51Z</time>
      </trkpt>
      <trkpt lat="47.24743" lon="5.99941">
        <ele>292</ele>
        <time>2026-03-18T13:31:52Z</time>
      </trkpt>
      <trkpt lat="47.2476" lon="5.99904">
        <ele>293</ele>
        <time>2026-03-18T13:31:57Z</time>
      </trkpt>
      <trkpt lat="47.24763" lon="5.99899">
        <ele>293</ele>
        <time>2026-03-18T13:31:58Z</time>
      </trkpt>
      <trkpt lat="47.24765" lon="5.99862">
        <ele>293</ele>
        <time>2026-03-18T13:32:02Z</time>
      </trkpt>
      <trkpt lat="47.2476" lon="5.99858">
        <ele>293</ele>
        <time>2026-03-18T13:32:03Z</time>
      </trkpt>
      <trkpt lat="47.24766" lon="5.99846">
        <ele>293</ele>
        <time>2026-03-18T13:32:05Z</time>
      </trkpt>
      <trkpt lat="47.2477" lon="5.99837">
        <ele>293</ele>
        <time>2026-03-18T13:32:06Z</time>
      </trkpt>
      <trkpt lat="47.24782" lon="5.99809">
        <ele>293</ele>
        <time>2026-03-18T13:32:10Z</time>
      </trkpt>
      <trkpt lat="47.24787" lon="5.99796">
        <ele>293</ele>
        <time>2026-03-18T13:32:12Z</time>
      </trkpt>
      <trkpt lat="47.24803" lon="5.99753">
        <ele>293</ele>
        <time>2026-03-18T13:32:18Z</time>
      </trkpt>
      <trkpt lat="47.24805" lon="5.99748">
        <ele>293</ele>
        <time>2026-03-18T13:32:19Z</time>
      </trkpt>
      <trkpt lat="47.24816" lon="5.99725">
        <ele>294</ele>
        <time>2026-03-18T13:32:22Z</time>
      </trkpt>
      <trkpt lat="47.24869" lon="5.99656">
        <ele>294</ele>
        <time>2026-03-18T13:32:35Z</time>
      </trkpt>
      <trkpt lat="47.24872" lon="5.9966">
        <ele>294</ele>
        <time>2026-03-18T13:32:36Z</time>
      </trkpt>
      <trkpt lat="47.24857" lon="5.99679">
        <ele>294</ele>
        <time>2026-03-18T13:32:39Z</time>
      </trkpt>
      <trkpt lat="47.24872" lon="5.9966">
        <ele>294</ele>
        <time>2026-03-18T13:32:43Z</time>
      </trkpt>
      <trkpt lat="47.24869" lon="5.99656">
        <ele>294</ele>
        <time>2026-03-18T13:32:43Z</time>
      </trkpt>
      <trkpt lat="47.24875" lon="5.99648">
        <ele>294</ele>
        <time>2026-03-18T13:32:45Z</time>
      </trkpt>
      <trkpt lat="47.2488" lon="5.9965">
        <ele>294</ele>
        <time>2026-03-18T13:32:46Z</time>
      </trkpt>
      <trkpt lat="47.24885" lon="5.99649">
        <ele>294</ele>
        <time>2026-03-18T13:32:47Z</time>
      </trkpt>
      <trkpt lat="47.24886" lon="5.99646">
        <ele>294</ele>
        <time>2026-03-18T13:32:47Z</time>
      </trkpt>
      <trkpt lat="47.24895" lon="5.99654">
        <ele>293</ele>
        <time>2026-03-18T13:32:49Z</time>
      </trkpt>
      <trkpt lat="47.24902" lon="5.99662">
        <ele>293</ele>
        <time>2026-03-18T13:32:50Z</time>
      </trkpt>
      <trkpt lat="47.24909" lon="5.99666">
        <ele>292</ele>
        <time>2026-03-18T13:32:52Z</time>
      </trkpt>
      <trkpt lat="47.24917" lon="5.99664">
        <ele>292</ele>
        <time>2026-03-18T13:32:53Z</time>
      </trkpt>
      <trkpt lat="47.24926" lon="5.99658">
        <ele>292</ele>
        <time>2026-03-18T13:32:55Z</time>
      </trkpt>
      <trkpt lat="47.24939" lon="5.99649">
        <ele>292</ele>
        <time>2026-03-18T13:32:58Z</time>
      </trkpt>
      <trkpt lat="47.24946" lon="5.99646">
        <ele>292</ele>
        <time>2026-03-18T13:32:59Z</time>
      </trkpt>
      <trkpt lat="47.24954" lon="5.99643">
        <ele>292</ele>
        <time>2026-03-18T13:33:00Z</time>
      </trkpt>
      <trkpt lat="47.24966" lon="5.99642">
        <ele>291</ele>
        <time>2026-03-18T13:33:02Z</time>
      </trkpt>
      <trkpt lat="47.24978" lon="5.99645">
        <ele>291</ele>
        <time>2026-03-18T13:33:05Z</time>
      </trkpt>
      <trkpt lat="47.25024" lon="5.99663">
        <ele>289</ele>
        <time>2026-03-18T13:33:13Z</time>
      </trkpt>
      <trkpt lat="47.25031" lon="5.99664">
        <ele>289</ele>
        <time>2026-03-18T13:33:14Z</time>
      </trkpt>
      <trkpt lat="47.25036" lon="5.99664">
        <ele>290</ele>
        <time>2026-03-18T13:33:15Z</time>
      </trkpt>
      <trkpt lat="47.25039" lon="5.99663">
        <ele>290</ele>
        <time>2026-03-18T13:33:16Z</time>
      </trkpt>
      <trkpt lat="47.25041" lon="5.99664">
        <ele>290</ele>
        <time>2026-03-18T13:33:16Z</time>
      </trkpt>
      <trkpt lat="47.25049" lon="5.99662">
        <ele>290</ele>
        <time>2026-03-18T13:33:18Z</time>
      </trkpt>
      <trkpt lat="47.25073" lon="5.99654">
        <ele>290</ele>
        <time>2026-03-18T13:33:22Z</time>
      </trkpt>
      <trkpt lat="47.25081" lon="5.99651">
        <ele>290</ele>
        <time>2026-03-18T13:33:23Z</time>
      </trkpt>
      <trkpt lat="47.25088" lon="5.99677">
        <ele>290</ele>
        <time>2026-03-18T13:33:27Z</time>
      </trkpt>
      <trkpt lat="47.25094" lon="5.99693">
        <ele>290</ele>
        <time>2026-03-18T13:33:29Z</time>
      </trkpt>
      <trkpt lat="47.25102" lon="5.99709">
        <ele>290</ele>
        <time>2026-03-18T13:33:31Z</time>
      </trkpt>
      <trkpt lat="47.25132" lon="5.99758">
        <ele>290</ele>
        <time>2026-03-18T13:33:39Z</time>
      </trkpt>
      <trkpt lat="47.25136" lon="5.99766">
        <ele>290</ele>
        <time>2026-03-18T13:33:41Z</time>
      </trkpt>
      <trkpt lat="47.2515" lon="5.99788">
        <ele>290</ele>
        <time>2026-03-18T13:33:44Z</time>
      </trkpt>
      <trkpt lat="47.25174" lon="5.99827">
        <ele>290</ele>
        <time>2026-03-18T13:33:51Z</time>
      </trkpt>
      <trkpt lat="47.25182" lon="5.99849">
        <ele>291</ele>
        <time>2026-03-18T13:33:54Z</time>
      </trkpt>
      <trkpt lat="47.25184" lon="5.99856">
        <ele>291</ele>
        <time>2026-03-18T13:33:55Z</time>
      </trkpt>
      <trkpt lat="47.25186" lon="5.99877">
        <ele>292</ele>
        <time>2026-03-18T13:33:57Z</time>
      </trkpt>
      <trkpt lat="47.25186" lon="5.99889">
        <ele>293</ele>
        <time>2026-03-18T13:33:59Z</time>
      </trkpt>
      <trkpt lat="47.25183" lon="5.99899">
        <ele>293</ele>
        <time>2026-03-18T13:34:00Z</time>
      </trkpt>
      <trkpt lat="47.25176" lon="5.99915">
        <ele>294</ele>
        <time>2026-03-18T13:34:02Z</time>
      </trkpt>
      <trkpt lat="47.25168" lon="5.9993">
        <ele>294</ele>
        <time>2026-03-18T13:34:04Z</time>
      </trkpt>
      <trkpt lat="47.25144" lon="5.99964">
        <ele>295</ele>
        <time>2026-03-18T13:34:10Z</time>
      </trkpt>
      <trkpt lat="47.25138" lon="5.99972">
        <ele>296</ele>
        <time>2026-03-18T13:34:12Z</time>
      </trkpt>
      <trkpt lat="47.25131" lon="5.99981">
        <ele>296</ele>
        <time>2026-03-18T13:34:13Z</time>
      </trkpt>
      <trkpt lat="47.25126" lon="5.99972">
        <ele>296</ele>
        <time>2026-03-18T13:34:15Z</time>
      </trkpt>
      <trkpt lat="47.25121" lon="5.99963">
        <ele>296</ele>
        <time>2026-03-18T13:34:16Z</time>
      </trkpt>
      <trkpt lat="47.25117" lon="5.99969">
        <ele>296</ele>
        <time>2026-03-18T13:34:17Z</time>
      </trkpt>
      <trkpt lat="47.25114" lon="5.9997">
        <ele>296</ele>
        <time>2026-03-18T13:34:18Z</time>
      </trkpt>
      <trkpt lat="47.25111" lon="5.99968">
        <ele>296</ele>
        <time>2026-03-18T13:34:18Z</time>
      </trkpt>
      <trkpt lat="47.25094" lon="5.99943">
        <ele>295</ele>
        <time>2026-03-18T13:34:23Z</time>
      </trkpt>
      <trkpt lat="47.25093" lon="5.9994">
        <ele>295</ele>
        <time>2026-03-18T13:34:23Z</time>
      </trkpt>
      <trkpt lat="47.25093" lon="5.99937">
        <ele>295</ele>
        <time>2026-03-18T13:34:23Z</time>
      </trkpt>
      <trkpt lat="47.25094" lon="5.99934">
        <ele>295</ele>
        <time>2026-03-18T13:34:24Z</time>
      </trkpt>
    </trkseg>
  </trk>
</gpx>